     2              OBSERVATION DATA    GPS                 RINEX VERSION / TYPE
teqc 1999Jul19 20000201 02:03:35UTC                         PGM / RUN BY / DATE
                                                            COMMENT
L2: 1 -> 1; 5 -> 5; 60 -> 9                                 COMMENT
L2: 1 -> 1; 5 -> 5; 60 -> 9                                 COMMENT
L2: 1 -> 1; 5 -> 5; 60 -> 9                                 COMMENT
L2: 1 -> 1; 5 -> 5; 60 -> 9                                 COMMENT
L2: 1 -> 1; 5 -> 5; 60 -> 9                                 COMMENT
Original Marker Name: 0019                                  COMMENT
Campaign Name: Imperial Valley Leveling                     COMMENT
4-Character Station Name: 0019                              COMMENT
6-Character Antenna Code: TRMSST                            COMMENT
Vertical Measurement Point: BPA                             COMMENT
Vertical Offset to Rinex Ref. Point: 0.0000                 COMMENT
Radial Measurement Point: RRP                               COMMENT
Radial Offset to Rinex Ref. Point: 0.0000                   COMMENT
Antenna Height from Field Measurement: 2.2170 m             COMMENT
Additional Antenna Identification Info.:                    COMMENT
Model 14532.00                                              COMMENT
Original XYZ: -2329989.6894 -4835014.5715 3434284.0236      COMMENT
New XYZ position is based on association with SCEC monument COMMENT
E1C8V7T6+0011. Position of that monument is believed to be  COMMENT
valid to within 1 m horizontally; vertical accuracy         COMMENT
should be no worse than 3-times this value.                 COMMENT
                                                            COMMENT
Revised Rinex header created by UCSD GPS archive for        COMMENT
GSAC on 17-Jul-2000 (2000:199) 21:30:58 GMT                 COMMENT
For assistance contact dagnew@ucsd.edu                      COMMENT
or anderson@python.ucsd.edu                                 COMMENT
                                                            COMMENT
F 612                                                       MARKER NAME
0019                                                        MARKER NUMBER
-Unknown- CALIF DEPT TRANSPORTATION                         OBSERVER / AGENCY
1502 TRIMBLE 4000 SSE NP 5.71; SP 1.26                      REC # / TYPE / VERS
S/N UNKNOWN TR 4000SST L1/L2 GEO                            ANT # / TYPE
 -2329993.4422 -4835019.1798  3434281.3376                  APPROX POSITION XYZ
        2.2170        0.0000        0.0000                  ANTENNA: DELTA H/E/N
     1     1     0                                          WAVELENGTH FACT L1/2
     7    C1    L1    L2    P1    P2    S1    S2            # / TYPES OF OBSERV
     0                                                      INTERVAL
  1995     4    13    15    42   30.000000                  TIME OF FIRST OBS
  1995     4    13    18    44    0.000000                  TIME OF LAST OBS
                                                            END OF HEADER
 95  4 13 15 42 30.0000000  0  8G14G18G19G22G27G28G29G31
  23528275.617       44888.91215
        10.500
  20658293.6724     -26614.45557
        27.7504
  21705702.9224     -29080.10057
        22.0004
  23731927.7194      40891.77656
        14.7504
  24411570.4694     -33350.66955
         8.2504
                     -9164.01015     -8569.30415  23679984.156    23679987.852
         9.000          10.000
  20780085.9384      -1917.51657
        25.7504
  23730159.3834     -51145.80855
         9.7504
 95  4 13 15 42 45.0000000  0  8G14G18G19G22G27G28G29G31
  23536792.6724      89643.43845
        11.0004
  20653221.5784     -53268.44647
        27.7504
  21700152.7034     -58246.84047
        22.2504
  23739685.6094      81661.47146
        13.7504
  24402899.6564     -78920.53645
         8.2504
                    -36692.630 5    -30020.111 5  23674745.875    23674749.141
         9.000           9.750
  20779713.5554      -3873.92647
        25.7504
  23720411.1724    -102377.40945
         9.7504
 95  4 13 15 43  0.0000000  0  8G14G18G19G22G27G28G29G31
  23545288.6484     134290.46845
        11.0004
  20648141.2114     -79966.19648     -8322.54258                  20648144.4224
        28.0004         43.5004
  21694584.4534     -87508.64247     -9125.85857                  21694588.0984
        22.5004         28.7504
  23747426.4924     122338.04846      2109.41355                  23747429.8204
        14.0004         10.2504
  24394202.9534    -124620.47045
         8.2504
                    -64251.939 5    -51494.843 5  23669501.570    23669504.613
         9.000           9.750
  20779334.9064      -5864.42347      -932.35957                  20779338.0354
        25.5004         39.2504
  23710642.8364    -153708.96745
        10.0004
 95  4 13 15 43 15.0000000  0  8G14G18G19G22G27G28G29G31
  23553774.6414     178883.94345     32428.39755                  23553779.5634
        11.2504          6.7504
  20643063.1484    -106652.17847    -29116.76648                  20643066.4184
        27.7504         44.2504
  21689008.3364    -116811.26847    -31959.05547                  21689011.9574
        22.5004         28.7504
  23755159.4384     162976.94246     33776.11545                  23755162.2384
        13.5004          8.5004
  24385491.9694    -170398.16245    -26160.82355                  24385496.6334
         9.0004          6.0004
                    -91787.054 5    -72950.733 5  23664261.703    23664264.945
         9.000           9.750
  20778959.2584      -7837.74947     -2469.97847                  20778962.5634
        25.5004         38.7504
  23700866.3054    -205083.81045    -34692.97355                  23700871.6374
        10.2504          5.2504
 95  4 13 15 43 30.0000000  0  8G14G18G19G22G27G28G29G31
  23562263.6254     223494.27945     67189.70645                  23562268.4414
        11.2504          6.2504
  20638001.0554    -133252.74747    -49844.45648                  20638004.1954
        27.7504         44.0004
  21683437.9924    -146083.34247    -54768.42847                  21683441.4844
        22.7504         29.0004
  23762899.2894     203649.35146     65468.91045                  23762902.3134
        14.0004          9.2504
  24376779.0944    -216181.34745    -61836.00645                  24376784.3444
         8.5004          5.2504
                   -119225.913 5    -94331.623 5  23659039.906    23659043.617
         9.000          10.000
  20778600.9384      -9719.92547     -3936.58747                  20778604.3014
        25.2504         39.2504
  23691096.2734    -256427.27245    -74700.82845                  23691101.1954
         9.7504          6.5004
 95  4 13 15 43 45.0000000  0  8G14G18G19G22G27G28G29G31
  23570768.3364     268188.71445    102016.55745                  23570773.5514
        11.0004          6.2504
  20632969.0164    -159697.42248    -70450.67448                  20632972.1214
        28.0004         43.2504
  21677886.2194    -175255.91347    -77500.27647                  21677890.0274
        22.2504         29.0004
  23770658.2344     244423.01646     97240.61645                  23770661.2584
        13.5004          9.0004
  24368080.0474    -261894.51245    -97456.60245                  24368084.1254
         8.7504          5.0004
                   -146498.482 5   -115582.950 5  23653850.438    23653853.926
         9.250          10.000
  20778273.5704     -11440.80947     -5277.51947                  20778276.9694
        25.5004         39.2504
  23681345.1564    -307669.33645   -114629.65445                  23681349.8204
        10.0004          6.5004
 95  4 13 15 44  0.0000000  0  8G14G18G19G22G27G28G29G31
  23579298.9534     313016.35745    136947.18445                  23579304.0274
        11.2504          6.2504
  20627976.6644    -185932.30848    -90893.41848                  20627979.6414
        28.0004         43.7504
  21672363.8444    -204278.46847   -100115.22947                  21672367.5234
        22.5004         30.2504
  23778446.7734     285351.44546    129132.91245                  23778450.0434
        13.2504          9.7504
  24359405.1804    -307483.22345   -132980.25544                  24359409.3634
         9.0004          4.2504
                   -173552.143 5   -136663.698 5  23648702.469    23648705.910
         9.250          10.250
  20777987.1024     -12946.53347     -6450.79548                  20777990.3834
        25.5004         39.5004
  23671623.4454    -358757.00445   -154438.19945                  23671629.1054
        10.2504          6.5004
 95  4 13 15 44 15.0000000  0  8G14G18G19G22G27G28G29G31
  23587862.5864     358018.55945    172013.84645                  23587867.4024
        11.2504          7.2504
  20623031.9614    -211915.47048   -111140.01848                  20623034.9964
        28.0004         43.7504
  21666877.5394    -233108.64047   -122580.27847                  21666881.4304
        22.2504         28.2504
  23786272.9304     326475.21046    161177.39845                  23786276.7624
        13.2504          9.5004
  24350762.5474    -352902.41945   -168371.80244                  24350767.0944
         8.7504          4.2504
                   -200345.257 5   -157541.418 5  23643603.594    23643607.238
         9.250          10.250
  20777748.9694     -14197.75247     -7425.75547                  20777752.2504
        25.5004         38.2504
  23661939.7664    -409646.24145   -194092.09745                  23661944.5474
        10.5004          5.5004
 95  4 13 15 44 30.0000000  0  8G14G18G19G22G27G28G29G31
  23596464.6024     403222.99445    207238.07045                  23596470.4734
        11.0004          5.7504
  20618141.1254    -237618.59148   -131168.40548                  20618144.0664
        28.2504         43.7504
  21661433.5864    -261716.48747   -144872.08147                  21661437.5594
        22.0004         29.0004
  23794139.9694     367819.94146    193394.08245                  23794144.3164
        12.2504         10.0004
  24342157.2974    -398122.78745   -203608.42545                  24342162.2664
         8.7504          5.7504
                   -226850.306 5   -178194.681 5  23638559.922    23638563.609
         9.250          10.500
  20777563.6884     -15170.19147     -8183.48947                  20777566.9224
        25.5004         38.7504
  23652298.6804    -460311.73345   -233571.67845                  23652303.6954
        11.2504          6.0004
 95  4 13 15 44 45.0000000  0  8G14G18G19G22G27G28G29G31
  23605109.0314     448648.43245    242634.51545                  23605114.3634
        11.5004          5.7504
  20613307.2734    -263019.77748   -150961.52248                  20613310.2154
        28.2504         44.0004
  21656035.8594    -290081.44247   -166974.62047                  21656040.0314
        22.2504         28.7504
  23802053.5314     409404.92646    225797.94545                  23802057.8094
        12.7504         10.2504
  24333592.5084    -443124.78945   -238674.89444                  24333597.2194
         8.0004          3.7504
                   -253047.174 5   -198607.806 5  23633574.961    23633578.414
         9.250          10.250
  20777435.8284     -15844.64447     -8709.02447                  20777439.0394
        25.7504         38.7504
  23642703.3914    -510733.93945   -272861.67945                  23642708.3134
        11.0004          6.0004
 95  4 13 15 45  0.0000000  0  8G14G18G19G22G27G28G29G31
  23613797.5164     494306.05245    278211.88945                  23613802.7544
        11.5004          6.2504
  20608532.7894    -288110.63748   -170512.82448                  20608535.5904
        28.7504         45.5004
  21650686.8834    -318191.30147   -188878.38547                  21650690.8914
        22.5004         28.5004
  23810014.8364     451242.54946    258398.68245                  23810019.4064
        12.5004          9.2504
  24325074.1174    -487892.67045   -273558.92444                  24325078.6294
         8.2504          3.5004
                   -278925.244 5   -218772.502 5  23628650.586    23628653.793
         9.250          10.500
  20777365.6804     -16213.05547     -8996.08948                  20777368.8444
        25.5004         39.7504
  23633156.1724    -560902.71745   -311954.19945                  23633160.6844
        11.0004          6.2504
 95  4 13 15 45 15.0000000  0  8G14G18G19G22G27G28G29G31
  23622529.6804     540198.55945    313972.28645                  23622534.5204
        10.5004          5.7504
  20603816.9694    -312892.55348   -189823.39548                  20603819.8164
        28.5004         45.0004
  21645386.1334    -346047.89047   -210584.79747                  21645389.9414
        22.5004         29.2504
  23818024.3204     493333.30546    291196.66845                  23818028.5274
        12.5004         10.0004
  24316599.6644    -532426.21145   -308260.34744                  24316604.3524
         8.2504          4.0004
                   -304485.377 5   -238689.471 5  23623786.328    23623790.145
         9.000          10.750
  20777353.5944     -16276.51447     -9045.52748                  20777356.7464
        25.7504         39.5004
  23623657.1804    -610820.30845   -350850.99745                  23623660.9884
        11.2504          7.5004
 95  4 13 15 45 30.0000000  0  8G14G18G19G22G27G28G29G31
  23631309.0084     586330.91645    349919.55545                  23631313.7664
        10.7504          6.5004
  20599160.1804    -337363.67848   -208891.78848                  20599163.0984
        28.5004         45.0004
  21640133.7034    -373647.93947   -232091.31547                  21640137.6764
        22.2504         29.2504
  23826083.1024     535680.44546    324194.43745                  23826087.0394
        13.2504         11.5004
  24308170.0394    -576722.23045   -342776.69045                  24308174.9384
         8.0004          5.0004
                   -329724.088 5   -258355.979 5  23618983.469    23618987.465
         9.000          11.000
  20777400.8444     -16029.27547     -8852.86348                  20777403.9844
        26.0004         40.2504
  23614206.5164    -660485.85145   -389551.39445                  23614211.2274
        11.2504          6.7504
 95  4 13 15 45 45.0000000  0  8G14G18G19G22G27G28G29G31
  23640133.2584     632702.36745    386053.16245                  23640138.4734
        10.5004          6.5004
  20594562.5704    -361524.46048   -227718.35448                  20594565.5594
        28.7504         45.0004
  21634930.4614    -400991.17947   -253397.71947                  21634934.3984
        22.5004         29.2504
  23834190.1334     578282.47046    357390.81945                  23834194.2814
        13.5004         10.0004
  24299786.9224    -620778.10745   -377105.95743                  24299790.4384
         8.0004          3.2504
                   -354639.946 5   -277770.917 5  23614242.336    23614246.047
         9.250          11.250
  20777507.2584     -15468.51847     -8415.90447                  20777510.4224
        25.7504         38.5004
  23604803.4844    -709897.57445   -428054.00645                  23604808.3954
        11.2504          6.7504
 95  4 13 15 46  0.0000000  0  8G14G18G19G22G27G28G29G31
  23649001.7504     679306.98145    422368.42245                  23649007.1174
        10.2504          6.0004
  20590022.2974    -385382.51048   -246309.02848                  20590025.2624
        28.2504         44.0004
  21629775.0164    -428084.07347   -274509.04447                  21629778.8954
        22.5004         29.2504
  23842344.7734     621134.24346    390781.79745                  23842348.8754
        14.0004         10.7504
  24291447.4064    -664602.87745   -411255.07844                  24291452.4804
         8.0004          3.7504
                   -379239.043 5   -296939.028 5  23609561.383    23609565.180
         9.250          11.000
  20777672.4454     -14599.55647     -7738.78148                  20777675.4694
        25.7504         39.5004
  23595448.1724    -759061.89245   -466363.85245                  23595453.1644
        11.2504          6.5004
 95  4 13 15 46 15.0000000  0  8G14G18G19G22G27G28G29G31
  23657914.6024     726143.93845    458864.74345                  23657920.3094
        10.2504          5.2504
  20585539.1954    -408941.45548   -264666.63448                  20585542.2664
        28.5004         44.7504
  21624666.1954    -454929.73147   -295427.72747                  21624670.0744
        22.5004         28.5004
  23850545.4064     664231.70146    424364.22945                  23850549.4264
        13.7504         10.7504
  24283150.6954    -708201.85545   -445228.25943                  24283155.7464
         8.0004          3.0004
                   -403524.286 5   -315862.573 5  23604940.117    23604943.680
         9.500          11.250
  20777896.5314     -13422.49947     -6821.58847                  20777899.6724
        26.0004         37.7504
  23586138.6334    -807982.48745   -504483.76545                  23586143.2504
        11.0004          7.5004
 95  4 13 15 46 30.0000000  0  8G14G18G19G22G27G28G29G31
  23666870.1174     773206.88845    495537.15145                  23666875.3204
        10.0004          6.0004
  20581111.4844    -432210.57748   -282798.40648                  20581114.4844
        28.5004         46.0004
  21619603.2344    -481534.42947   -316158.64247                  21619607.1724
        22.2504         30.0004
  23858791.8444     707563.76746    458129.47245                  23858795.9694
        14.5004         11.7504
  24274895.1414    -751583.61845   -479032.20344                  24274899.7344
         8.0004          4.0004
                   -427504.068 5   -334548.096 5  23600376.875    23600380.359
         9.500          11.000
  20778177.4144     -11945.37847     -5670.57948                  20778180.6024
        25.7504         39.7504
  23576873.8674    -856669.73045   -542421.84645                  23576878.9774
        11.0004          6.0004
 95  4 13 15 46 45.0000000  0  8G14G18G19G22G27G28G29G31
  23675868.3674     820490.52345    532381.51945                  23675873.6994
         9.7504          5.0004
  20576737.9384    -455193.59248   -300707.23348                  20576741.0084
        28.7504         45.0004
  21614586.0394    -507901.07247   -336704.06247                  21614590.1764
        22.2504         29.7504
  23867081.4614     751126.25446    492074.25945                  23867085.1644
        15.0004         11.2504
  24266679.7734    -794754.72645   -512672.00444                  24266684.6604
         8.2504          3.5004
                   -451182.260 5   -352998.623 5  23595871.180    23595874.438
         9.750          11.000
  20778515.6024     -10170.21447     -4287.32648                  20778518.8364
        25.7504         39.7504
  23567652.5164    -905126.86745   -580180.64445                  23567657.1684
        11.0004          6.5004
 95  4 13 15 47  0.0000000  0  8G14G18G19G22G27G28G29G31
  23684905.5234     867981.22945    569387.26345                  23684911.1844
         9.7504          4.7504
  20572416.4454    -477902.93148   -318402.81148                  20572419.4574
        28.2504         45.2504
  21609611.6564    -534042.80947   -357074.23547                  21609615.6294
        22.7504         30.2504
  23875412.9454     794908.66546    526190.41445                  23875416.6954
        14.7504         11.2504
  24258501.8754    -837728.25245   -546157.85744                  24258507.8754
         8.0004          4.2504
                   -474570.886 5   -371223.510 5  23591420.500    23591423.809
         9.750          11.000
  20778907.1024      -8111.77847     -2683.34248                  20778910.3594
        25.7504         40.5004
  23558473.5784    -953363.00645   -617767.21245                  23558478.9104
        11.2504          6.5004
 95  4 13 15 47 15.0000000  0  8G14G18G19G22G27G28G29G31
  23693981.8914     915676.35745    606552.26145                  23693986.6724
        10.0004          5.7504
  20568146.3364    -500343.66548   -335889.08448                  20568149.4534
        29.0004         44.7504
  21604679.0164    -559964.15947   -377272.67047                  21604682.8014
        23.0004         30.0004
  23883785.3284     838906.60846    560474.52446                  23883788.7854
        15.0004         12.5004
  24250360.8204    -880510.71545   -579494.81444                  24250366.7504
         8.2504          4.0004
                   -497673.507 5   -389225.534 5  23587024.461    23587027.492
        10.000          11.000
  20779352.3364      -5773.23247      -861.09648                  20779355.6524
        25.7504         40.0004
  23549335.6254   -1001382.03345   -655184.61145                  23549340.7344
        11.0004          7.2504
 95  4 13 15 47 30.0000000  0  8G14G18G19G22G27G28G29G31
  23703095.1334     963568.09145    643870.49745                  23703099.5394
        10.0004          5.2504
  20563926.0234    -522520.70448   -353169.88048                  20563929.0594
        28.7504         46.0004
  21599787.0784    -585670.57547   -397303.63147                  21599790.8984
        22.7504         30.2504
  23892198.0474     883114.24446    594922.02545                  23892202.0664
        15.2504         11.2504
  24242255.0474    -923110.69845   -612689.59445                  24242259.9574
         8.5004          4.5004
                   -520494.972 5   -407008.478 5  23582681.641    23582684.684
        10.000          11.000
  20779849.7894      -3158.49647      1176.36648                  20779853.1764
        25.7504         39.5004
  23540238.4064   -1049189.75845   -692437.38045                  23540243.1054
        11.2504          7.2504
 95  4 13 15 47 45.0000000  0  8G14G18G19G22G27G28G29G31
  23712244.7584    1011649.69645    681336.64645                  23712250.3594
        10.0004          5.2504
  20559755.7114    -544436.72048   -370247.28548                  20559758.7814
        29.2504         46.0004
  21594936.0314    -611163.84647   -417168.50447                  21594939.8874
        22.7504         31.2504
  23900649.6954     927529.49446    629531.30845                  23900653.6214
        14.5004         11.0004
  24234182.0394    -965531.68545   -645744.88444                  24234187.4184
         8.2504          4.0004
                   -543038.011 5   -424574.458 5  23578391.648    23578395.012
        10.000          11.000
  20780399.2424       -270.78547      3426.53548                  20780402.5594
        25.7504         39.7504
  23531180.9844   -1096789.11245   -729527.75445                  23531186.0124
        11.2504          7.0004
 95  4 13 15 48  0.0000000  0  8G14G18G19G22G27G28G29G31
  23721429.0784    1059912.88845    718944.30545                  23721434.7854
        10.0004          6.5004
  20555633.4774    -566097.85748   -387126.08148                  20555636.6414
        28.7504         46.5004
  21590124.6804    -636450.10747   -436872.07147                  21590128.4304
        23.5004         30.2504
  23909140.1174     972144.89146    664296.54245                  23909144.1484
        14.2504         10.0004
  24226143.2974   -1007779.76545   -678665.42644                  24226147.9964
         8.5004          4.2504
                   -565309.822 5   -441929.100 5  23574153.398    23574156.816
        10.000          11.000
  20780998.9304       2880.91847      5882.41448                  20781002.3284
        26.0004         40.7504
  23522160.0474   -1144187.88545   -766461.84045                  23522165.1804
        10.5004          6.5004
 95  4 13 15 48 15.0000000  0  8G14G18G19G22G27G28G29G31
  23730646.6484    1108351.89845    756688.97645                  23730652.2504
        10.2504          6.5004
  20551559.2034    -587508.45348   -403809.64848                  20551562.3674
        29.2504         45.7504
  21585351.5394    -661531.86847   -456416.28247                  21585355.3014
        23.2504         31.2504
  23917667.4144    1016956.63846    699214.78645                  23917671.5274
        13.5004          9.2504
  24218135.2034   -1049857.30945   -711453.11345                  24218140.1024
         8.0004          4.7504
                   -587314.615 5   -459075.674 5  23569966.109    23569969.363
        10.000          11.000
  20781648.0944       6290.64647      8539.34848                  20781651.3284
        26.2504         40.7504
  23513177.7344   -1191392.90445   -803244.94845                  23513182.8444
        10.5004          6.5004
 95  4 13 15 48 30.0000000  0  8G14G18G19G22G27G28G29G31
  23739895.0164    1156954.18545    794560.86545                  23739900.4654
        10.2504          6.7504
  20547530.3834    -608679.14448   -420306.28248                  20547533.6524
        28.7504         45.7504
  21580614.8914    -686420.32847   -475809.87447                  21580618.8404
        22.7504         31.7504
  23926229.3984    1061952.38346    734276.39945                  23926233.8634
        13.2504          9.0004
  24210159.5704   -1091773.44845   -744114.99944                  24210164.7974
         8.5004          4.0004
                   -609062.328 5   -476021.933 5  23565827.484    23565830.957
        10.000          11.000
  20782343.2274       9944.14047     11386.22548                  20782346.4384
        26.2504         40.2504
  23504230.0394   -1238413.47845   -839884.32845                  23504235.3484
        11.0004          6.5004
 95  4 13 15 48 45.0000000  0  8G14G18G19G22G27G28G29G31
  23749174.9304    1205717.54645    832558.26645                  23749179.7584
        10.7504          6.5004
  20543548.0314    -629608.18548   -436614.61648                  20543551.3714
        28.7504         46.0004
  21575915.5554    -711115.90747   -495053.17147                  21575919.5634
        23.0004         30.2504
  23934826.6254    1107130.99146    769480.49545                  23934831.0554
        12.7504          9.0004
  24202214.0084   -1133528.81145   -776651.63144                  24202217.8874
         8.5004          4.2504
                   -630552.702 5   -492767.659 5  23561737.945    23561741.539
        10.000          11.000
  20783083.9694      13837.39347     14419.93248                  20783087.1214
        26.2504         41.5004
  23495318.0474   -1285248.21045   -876378.89445                  23495323.1914
        11.2504          6.7504
 95  4 13 15 49  0.0000000  0  8G14G18G19G22G27G28G29G31
  23758484.3444    1254638.63245    870678.58345                  23758489.5354
        11.0004          6.0004
  20539611.1254    -650295.70448   -452734.75148                  20539614.3364
        28.2504         45.0004
  21571251.6724    -735624.75847   -514150.95747                  21571255.7624
        23.0004         31.2504
  23943458.7344    1152492.50446    804827.11245                  23943462.9304
        12.7504          8.7504
  24194298.4924   -1175123.53045   -809063.06945                  24194302.0784
         8.5004          4.7504
                   -651786.497 5   -509313.456 5  23557697.234    23557700.758
        10.000          11.000
  20783870.3364      17969.27347     17639.58148                  20783873.4884
        26.2504         40.5004
  23486440.7114   -1331897.37245   -912728.87745                  23486445.5514
        11.0004          7.5004
 95  4 13 15 49 15.0000000  0  8G14G18G19G22G27G28G29G31
  23767822.2974    1303711.86945    908917.45245                  23767827.5824
        10.5004          6.5004
  20535718.6804    -670750.67248   -468673.67948                  20535721.9494
        28.2504         45.0004
  21566622.0084    -759954.18147   -533108.94547                  21566626.0044
        23.0004         30.2504
  23952124.5474    1198029.58346    840310.55745                  23952128.3914
        13.5004          8.5004
  24186413.0314   -1216560.89745   -841351.89145                  24186417.1334
         8.7504          5.2504
                   -672769.381 5   -525663.736 5  23553704.438    23553708.031
        10.000          11.000
  20784701.3284      22335.62047     21041.93348                  20784704.3874
        26.2504         41.2504
  23477597.4454   -1378368.39145   -948940.05245                  23477602.0984
        11.2504          7.0004
 95  4 13 15 49 30.0000000  0  8G14G18G19G22G27G28G29G31
  23777189.4384    1352935.96145    947273.87845                  23777194.6174
        10.5004          6.0004
  20531870.2974    -690973.97348   -484432.08848                  20531873.5904
        28.5004         44.7504
  21562026.5394    -784104.71947   -551927.53747                  21562030.3954
        23.5004         31.0004
  23960822.3914    1243738.66146    875928.00445                  23960826.5164
        13.2504          9.7504
  24178557.9304   -1257838.41845   -873516.18044                  24178561.7974
         8.7504          4.0004
                   -693502.292 5   -541819.235 5  23549759.156    23549762.820
        10.000          11.250
  20785577.5314      26939.41547     24629.31048                  20785580.5664
        26.5004         41.7504
  23468788.7664   -1424661.35046   -985012.45745                  23468793.3014
        12.0004          7.5004
 95  4 13 15 49 45.0000000  0  8G14G18G19G22G27G28G29G31
  23786583.5704    1402301.19045    985740.27145                  23786589.2304
        10.0004          5.5004
  20528064.8914    -710972.11948   -500015.05248                  20528068.0904
        28.2504         44.7504
  21557463.7814    -808082.30747   -570611.36247                  21557467.5434
        23.5004         30.7504
  23969552.1254    1289613.16246    911674.36545                  23969556.3674
        13.2504          8.2504
  24170733.1644   -1298959.55745   -905558.60345                  24170737.7934
         9.0004          4.5004
                   -713992.407 5   -557785.540 5  23545860.047    23545863.613
        10.000          11.250
  20786497.2504      31773.14247     28395.85548                  20786500.2624
        26.5004         41.0004
  23460012.4144   -1470779.60846  -1020948.74645                  23460017.4774
        12.0004          6.5004
 95  4 13 15 50  0.0000000  0  8G14G18G19G22G27G28G29G31
  23796004.2664    1451808.49545   1024317.35445                  23796009.7854
         9.5004          5.0004
  20524302.6414    -730742.54948   -515420.57348                  20524305.9454
        28.5004         44.0004
  21552933.5004    -831889.32147   -589162.27647                  21552937.2854
        23.5004         31.0004
  23978312.8594    1335650.91146    947547.92845                  23978317.0314
        13.0004          8.0004
  24162937.6414   -1339925.26445   -937479.92945                  24162942.4804
         9.2504          5.2504
                   -734240.434 5   -573563.204 5  23542007.000    23542010.563
        10.250          11.500
  20787460.6564      36836.84047     32341.59548                  20787463.7274
        26.2504         40.2504
  23451270.5554   -1516719.96346  -1056746.40945                  23451274.9494
        12.0004          7.7504
 95  4 13 15 50 15.0000000  0  8G14G18G19G22G27G28G29G31
  23805452.3524    1501459.26245   1063006.25445                  23805458.6094
         9.5004          4.5004
  20520583.1884    -750287.58248   -530650.46248                  20520586.5274
        28.0004         44.7504
  21548435.2734    -855526.26547   -607580.66147                  21548439.1994
        23.2504         31.5004
  23987103.8594    1381849.78346    983547.04045                  23987107.9264
        13.0004          8.7504
  24155171.1024   -1380738.46945   -969282.40645                  24155175.6134
         9.2504          5.0004
                   -754246.723 5   -589152.499 5  23538200.023    23538203.605
        10.250          11.500
  20788467.7734      42129.61847     36465.84548                  20788470.8794
        26.2504         41.2504
  23442562.0314   -1562482.61245  -1092405.59945                  23442566.6954
        11.5004          6.5004
 95  4 13 15 50 30.0000000  0  8G14G18G19G22G27G28G29G31
  23814928.6414    1551252.91645   1101806.48345                  23814934.1374
         9.5004          5.0004
  20516907.1804    -769607.52648   -545704.95848                  20516910.5664
        28.7504         44.2504
  21543968.9924    -878997.67447   -625870.05847                  21543972.8134
        23.2504         32.0004
  23995924.8284    1428206.91746   1019669.47545                  23995928.9534
        12.2504          7.5004
  24147432.0634   -1421405.09945  -1000970.65345                  24147437.7934
         8.7504          5.0004
                   -774013.603 5   -604555.245 5  23534438.414    23534442.090
        10.250          11.500
  20789518.0314      47647.85547     40765.76848                  20789521.0904
        26.2504         39.7504
  23433887.2584   -1608067.35845  -1127926.16945                  23433892.0864
        11.7504          7.5004
 95  4 13 15 50 45.0000000  0  8G14G18G19G22G27G28G29G31
  23824429.8054    1601187.59545   1140716.59445                  23824435.5234
         9.5004          4.5004
  20513272.8984    -788703.94248   -560585.27648                  20513276.1914
        28.0004         44.7504
  21539533.2734    -902307.09147   -644033.22647                  21539536.9884
        23.5004         31.0004
  24004775.6724    1474716.90946   1055911.00845                  24004779.9964
        12.2504          6.7504
  24139720.2034   -1461930.15745  -1032548.60045                  24139724.6214
         8.7504          4.7504
                   -793544.625 5   -619774.204 5  23530721.609    23530725.395
        10.250          11.250
  20790610.5944      53389.13847     45239.49948                  20790613.7344
        26.2504         40.5004
  23425246.1644   -1653476.41646  -1163309.83245                  23425251.0984
        12.0004          7.0004
 95  4 13 15 51  0.0000000  0  8G14G18G19G22G27G28G29G31
  23833957.8984    1651258.12345   1179732.56745                  23833964.1914
         9.2504          5.2504
  20509680.1954    -807583.28548   -575296.44548                  20509683.5474
        28.2504         44.2504
  21535127.2664    -925459.84647   -662074.32147                  21535131.1214
        23.2504         30.7504
  24013654.9774    1521375.92746   1092268.68945                  24013659.0664
        12.5004          7.5004
  24132034.3754   -1502317.77645  -1064019.45545                  24132038.1024
         8.7504          5.7504
                   -812844.693 5   -634813.203 5  23527049.141    23527052.496
        10.250          11.250
  20791745.0554      59350.61547     49884.80548                  20791748.2304
        26.0004         40.7504
  23416637.3204   -1698716.41146  -1198561.75145                  23416642.2544
        12.2504          7.2504
 95  4 13 15 51 15.0000000  0  8G14G18G19G22G27G28G29G31
  23843512.1334    1701463.16745   1218853.37645                  23843518.7074
         9.5004          4.7504
  20506128.0234    -826251.00848   -589842.71648                  20506131.3284
        28.5004         43.2504
  21530751.0394    -948456.98247   -679994.16347                  21530755.0124
        23.5004         30.7504
  24022562.0394    1568182.58546   1128741.40145                  24022565.9184
        12.7504          7.5004
  24124374.4224   -1542570.43745  -1095385.11145                  24124380.0474
         8.2504          5.2504
                   -831916.708 5   -649674.484 5  23523419.875    23523422.871
        10.500          11.000
  20792920.8134      65530.25047     54700.10448                  20792924.0234
        25.7504         40.0004
  23408060.1804   -1743790.20346  -1233684.17345                  23408065.4414
        12.0004          8.2504
 95  4 13 15 51 30.0000000  0  8G14G18G19G22G27G28G29G31
  23853091.5164    1751803.23045   1258079.38745                  23853097.5634
         9.0004          5.0004
  20502615.9694    -844706.50348   -604223.61848                  20502619.2734
        28.2504         44.5004
  21526405.5554    -971294.37047   -697789.51847                  21526409.3284
        23.7504         30.5004
  24031496.8364    1615136.40246   1165328.78545                  24031500.6094
        12.5004          8.0004
  24116740.6804   -1582689.04745  -1126646.34345                  24116745.4614
         8.7504          4.7504
                   -850759.668 5   -664357.295 5  23519834.156    23519837.391
        10.500          11.000
  20794138.3674      71927.84847     59685.25048                  20794141.7774
        26.0004         40.0004
  23399514.8594   -1788695.88546  -1268675.58945                  23399519.2774
        12.0004          7.5004
 95  4 13 15 51 45.0000000  0  8G14G18G19G22G27G28G29G31
  23862696.8134    1802277.68945   1297410.11144                  23862702.3324
         9.5004          4.2504
  20499145.0634    -862946.99648   -618436.98048                  20499148.3554
        28.5004         44.7504
  21522089.9774    -993972.30547   -715460.62847                  21522093.9144
        23.5004         32.2504
  24040459.8284    1662238.54445   1202031.72945                  24040464.3524
        11.7504          7.7504
  24109130.7664   -1622678.31945  -1157806.78345                  24109136.3204
         8.7504          6.0004
                   -869372.963 5   -678861.139 5  23516291.773    23516295.699
        10.000          11.250
  20795396.9534      78542.42247     64839.46248                  20795400.1174
        26.2504         40.5004
  23391001.7344   -1833433.69346  -1303536.19845                  23391006.1414
        12.0004          7.2504
 95  4 13 15 52  0.0000000  0  8G14G18G19G22G27G28G29G31
  23872327.0394    1852883.28145   1336843.01344                  23872332.7584
         9.7504          4.2504
  20495713.9534    -880976.30148   -632485.78548                  20495717.2584
        28.5004         43.5004
  21517804.1024   -1016494.33147   -733010.24447                  21517808.1914
        23.2504         31.5004
  24049450.6724    1709485.68946   1238847.68745                  24049454.5514
        12.0004          7.5004
  24101544.6644   -1662545.39145  -1188872.02645                  24101549.4344
         8.7504          5.0004
                   -887759.171 5   -693188.040 5  23512793.047    23512796.988
        10.000          11.500
  20796696.0234      85367.23447     70157.49648                  20796699.1524
        26.5004         40.2504
  23382519.3444   -1878009.02646  -1338270.21745                  23382524.0554
        12.0004          7.5004
 95  4 13 15 52 15.0000000  0  8G14G18G19G22G27G28G29G31
  23881981.1954    1903618.52345   1376376.94745                  23881986.6334
         9.5004          5.2504
  20492322.8834    -898798.67348   -646373.34248                  20492326.1884
        28.5004         43.7504
  21513547.8284   -1038862.08747   -750439.65547                  21513551.6724
        23.7504         31.7504
  24058467.8594    1756871.44245   1275771.63345                  24058472.0784
        11.5004          7.5004
  24093980.9224   -1702294.68745  -1219845.48545                  24093985.5864
         9.5004          6.0004
                   -905920.352 5   -707339.594 5  23509337.375    23509341.055
        10.250          11.250
  20798034.1254      92399.63147     75637.29048                  20798037.2194
        26.7504         42.0004
  23374066.6334   -1922428.18946  -1372882.52045                  23374071.8594
        12.2504          8.5004
 95  4 13 15 52 30.0000000  0  8G14G18G19G22G27G28G29G31
  23891660.5004    1954482.08945   1416010.89045                  23891666.4654
         9.2504          4.7504
  20488970.2894    -916415.93648   -660101.07148                  20488973.6524
        28.5004         43.5004
  21509320.9224   -1061074.05547   -767747.67147                  21509324.6954
        23.5004         32.2504
  24067511.5164    1804395.77445   1312803.55745                  24067516.4964
        11.7504          7.5004
  24086439.8674   -1741924.76245  -1250726.05445                  24086444.0274
         9.5004          4.5004
                   -923855.892 5   -721315.324 5  23505924.406    23505927.840
        10.500          11.500
  20799411.7034      99639.18347     81278.49748                  20799414.7734
        26.2504         42.0004
  23365643.6414   -1966692.19046  -1407373.92445                  23365648.7154
        12.2504          8.2504
 95  4 13 15 52 45.0000000  0  8G14G18G19G22G27G28G29G31
  23901362.8364    2005467.66045   1455739.87145                  23901368.1454
         9.2504          4.7504
  20485656.1334    -933832.16048   -673672.14848                  20485659.4264
        28.2504         43.0004
  21505122.7424   -1083135.19747   -784938.16647                  21505126.4694
        23.5004         31.5004
  24076580.6484    1852054.33345   1349940.09945                  24076585.0904
        11.7504          7.2504
  24078920.4694   -1781436.80145  -1281514.62145                  24078925.2624
         9.2504          5.7504
                   -941569.958 5   -735118.470 5  23502553.453    23502556.883
        10.250          11.250
  20800828.4534     107084.01247     87079.66848                  20800831.5004
        26.7504         41.2504
  23357249.5164   -2010804.96646  -1441747.49545                  23357254.0514
        12.5004          8.5004
 95  4 13 15 53  0.0000000  0  8G14G18G19G22G27G28G29G31
  23911087.2584    2056572.85345   1495562.08745                  23911092.4734
         9.0004          5.2504
  20482379.5314    -951050.48048   -687089.01748                  20482382.7544
        28.7504         43.7504
  21500953.2034   -1105045.82347   -802011.37147                  21500957.0124
        23.2504         32.0004
  24085675.4614    1899846.86746   1387181.01245                  24085679.3284
        12.0004          8.5004
  24071424.7814   -1820829.90445  -1312210.52445                  24071429.5514
         9.5004          6.0004
                   -959062.953 5   -748749.362 5  23499224.500    23499228.145
        10.500          11.250
  20802284.7894     114737.01747     93043.04748                  20802287.7304
        26.7504         40.7504
  23348883.3204   -2054767.48846  -1476003.96945                  23348888.1254
        12.2504          9.0004
 95  4 13 15 53 15.0000000  0  8G14G18G19G22G27G28G29G31
  23920834.4534    2107794.03245   1535474.67144                  23920839.5394
         9.0004          4.2504
  20479140.1644    -968074.12148   -700354.18348                  20479143.3524
        28.7504         44.2504
  21496811.8054   -1126810.46347   -818970.82047                  21496815.4964
        23.5004         31.0004
  24094795.0474    1947770.97345   1424524.45845                  24094798.9964
        11.7504          7.2504
  24063950.0004   -1860109.02145  -1342817.61745                  24063954.6884
         9.0004          5.5004
                   -976338.199 5   -762210.584 5  23495937.063    23495940.645
        10.250          11.250
  20803780.1954     122594.06247     99165.42048                  20803783.0434
        27.0004         41.7504
  23340546.1414   -2098582.25246  -1510145.31745                  23340550.6994
        12.5004          9.2504
 95  4 13 15 53 30.0000000  0  8G14G18G19G22G27G28G29G31
  23930603.8524    2159130.58345   1575477.15545                  23930608.8324
         9.2504          4.5004
  20475938.3524    -984898.31448   -713463.93948                  20475941.4574
        28.7504         43.7504
  21492698.5554   -1148426.23547   -835814.27047                  21492702.3404
        23.7504         31.7504
  24103939.6484    1995826.84745   1461970.59045                  24103944.3714
        11.5004          8.5004
  24056496.9144   -1899274.71245  -1373336.29645                  24056501.0864
         9.0004          6.2504
                   -993394.244 5   -775500.991 5  23492691.539    23492695.027
        10.500          11.250
  20805314.9304     130658.83447    105449.65348                  20805317.8364
        27.0004         40.7504
  23332236.9534   -2142245.22746  -1544168.39145                  23332241.7704
        12.5004          7.7504
 95  4 13 15 53 45.0000000  0  8G14G18G19G22G27G28G29G31
  23940394.6644    2210579.11145   1615566.90344                  23940399.6454
         9.5004          4.2504
  20472774.8754   -1001523.88948   -726418.92648                  20472777.8164
        29.2504         44.2504
  21488612.7664   -1169896.32347   -852544.19747                  21488616.5274
        23.7504         32.0004
  24113109.3364    2044010.87745   1499516.56145                  24113113.7544
        11.7504          7.2504
  24049065.4224   -1938329.03645  -1403768.20445                  24049069.4654
         9.0004          6.5004
                  -1010232.846 5   -788621.963 5  23489487.367    23489490.797
        10.500          11.250
  20806888.7664     138930.20647    111894.88048                  20806891.7544
        26.5004         40.0004
  23323956.4454   -2185758.27846  -1578074.63045                  23323961.6724
        12.2504          8.7504
 95  4 13 15 54  0.0000000  0  8G14G18G19G22G27G28G29G31
  23950205.1414    2262135.90445   1655741.00545                  23950210.5434
         9.2504          5.2504
  20469647.9534   -1017955.73048   -739222.95048                  20469650.9304
        29.0004         44.0004
  21484553.7114   -1191226.23847   -869164.89947                  21484557.5664
        23.2504         31.5004
  24122301.6094    2092318.56945   1537158.91545                  24122306.3094
        11.7504          7.7504
  24041654.2034   -1977274.36845  -1434115.19645                  24041659.1374
         8.7504          5.7504
                  -1026858.910 5   -801577.322 5  23486323.398    23486326.969
        10.500          11.250
  20808500.9454     147403.11547    118497.14548                  20808504.0044
        26.2504         41.2504
  23315704.2814   -2229123.74846  -1611865.88845                  23315709.7544
        12.2504          8.7504
 95  4 13 15 54 15.0000000  0  8G14G18G19G22G27G28G29G31
  23960036.6484    2313801.80545   1696000.11745                  23960041.4774
         9.2504          5.0004
  20466557.9224   -1034195.09148   -751876.99148                  20466560.7344
        29.5004         44.0004
  21480521.6414   -1212415.16747   -885675.74147                  21480525.5314
        23.5004         31.7504
  24131517.9454    2140747.07446   1574895.38745                  24131522.1524
        12.2504          8.7504
  24034264.1254   -2016108.32745  -1464375.39545                  24034268.6844
         9.0004          5.7504
                  -1043273.132 5   -814367.613 5  23483199.789    23483203.164
        10.500          10.750
  20810152.0394     156079.30547    125257.81648                  20810155.1684
        26.5004         41.7504
  23307480.4224   -2272340.53846  -1645541.27445                  23307485.0864
        12.5004          8.0004
 95  4 13 15 54 30.0000000  0  8G14G18G19G22G27G28G29G31
  23969888.4924    2365575.34545   1736343.12644                  23969893.8954
         9.0004          4.2504
  20463504.4304   -1050241.77348   -764380.89248                  20463507.2304
        29.2504         44.0004
  21476516.0784   -1233464.82447   -902078.05947                  21476519.8874
        23.5004         31.2504
  24140756.5084    2189298.04646   1612727.29145                  24140760.6214
        12.2504          8.5004
  24026895.9144   -2054830.19145  -1494548.24745                  24026899.3714
         8.7504          5.2504
                  -1059476.555 5   -826993.646 5  23480116.430    23480119.582
        10.500          10.750
  20811842.0944     164961.46647    132178.97948                  20811845.2704
        26.0004         41.7504
  23299284.5234   -2315408.70646  -1679100.85845                  23299289.0944
        12.2504          9.0004
 95  4 13 15 54 45.0000000  0  8G14G18G19G22G27G28G29G31
  23979762.1254    2417458.57045   1776771.58645                  23979767.3054
         9.0004          4.7504
  20460488.1954   -1066090.94748   -776730.89148                  20460491.0664
        29.5004         44.0004
  21472536.9924   -1254373.87347   -918370.82047                  21472540.8714
        23.7504         31.5004
  24150020.0004    2237978.49345   1650660.10445                  24150024.3244
        11.7504          8.0004
  24019548.8834   -2093435.99545  -1524630.67545                  24019553.3714
         8.5004          5.2504
                  -1075466.324 5   -839453.189 5  23477073.828    23477076.660
        10.500          10.500
  20813572.0474     174053.21947    139263.45948                  20813575.2464
        26.2504         41.7504
  23291118.2424   -2358322.28746  -1712539.98845                  23291122.8014
        12.5004          8.7504
 95  4 13 15 55  0.0000000  0  8G14G18G19G22G27G28G29G31
  23989656.2974    2469449.07845   1817283.63345                  23989661.3834
         9.2504          5.0004
  20457509.3984   -1081744.25548   -788928.26648                  20457512.1174
        29.2504         43.7504
  21468584.8284   -1275144.23247   -934555.51147                  21468588.6134
        24.0004         31.0004
  24159308.1644    2286785.29146   1688691.35045                  24159312.2664
        12.5004          8.0004
  24012225.0634   -2131926.20345  -1554623.01945                  24012229.8444
         9.2504          6.0004
                  -1091244.150 5   -851747.590 5  23474071.086    23474074.316
        10.250          10.500
  20815342.0554     183352.56847    146509.70448                  20815345.2304
        26.2504         41.7504
  23282981.8204   -2401082.41146  -1745859.54545                  23282987.2464
        12.7504          9.2504
 95  4 13 15 55 15.0000000  0  8G14G18G19G22G27G28G29G31
  23999569.8444    2521547.18945   1857879.54644                  23999574.9884
         9.7504          3.7504
  20454569.0314   -1097197.35948   -800969.64048                  20454571.8794
        29.2504         41.0004
  21464659.0314   -1295774.19047   -950630.79647                  21464662.7584
        23.7504         31.7504
  24168619.8054    2335721.65445   1726823.58045                  24168624.1994
        11.7504          8.0004
  24004922.5314   -2170298.23145  -1584523.25045                  24004927.3834
         9.0004          5.0004
                  -1106807.078 5   -863874.529 5  23471109.469    23471113.020
        10.000          10.750
  20817150.8524     192858.76347    153917.12748                  20817153.9344
        26.5004         42.5004
  23274874.2344   -2443687.51246  -1779058.28845                  23274878.5354
        12.7504          9.0004
 95  4 13 15 55 30.0000000  0  8G14G18G19G22G27G28G29G31
  24009503.4064    2573748.71945   1898556.02745                  24009508.8444
         9.5004          4.5004
  20451665.4614   -1112454.95748   -812858.67348                  20451668.2734
        29.7504         42.7504
  21460759.3984   -1316265.03947   -966597.68247                  21460763.2074
        23.2504         31.7504
  24177956.5704    2384783.55445   1765053.59945                  24177960.9184
        11.5004          8.2504
  23997643.0004   -2208554.16845  -1614333.07145                  23997647.7234
         9.0004          5.5004
                  -1122159.095 5   -875837.135 5  23468187.969    23468191.703
        10.000          10.750
  20818997.9924     202565.41747    161480.75048                  20819000.9344
        27.0004         41.7504
  23266795.3914   -2486139.79046  -1812137.95445                  23266800.3954
        12.5004          9.5004
 95  4 13 15 55 45.0000000  0  8G14G18G19G22G27G28G29G31
  24019456.2894    2626051.19945   1939311.19045                  24019461.8094
         9.5004          5.2504
  20448798.3984   -1127521.71148   -824598.99248                  20448801.2234
        30.0004         42.2504
  21456885.7894   -1336620.33347   -982458.93947                  21456889.9264
        23.2504         31.2504
  24187315.6484    2433965.83246   1803377.43445                  24187320.0784
        12.0004          7.5004
  23990384.3754   -2246695.37945  -1644053.47445                  23990389.7424
         9.0004          4.7504
                  -1137303.227 5   -887637.750 5  23465306.352    23465309.824
        10.000          10.750
  20820882.7504     212469.04347    169197.86348                  20820885.6564
        27.0004         42.2504
  23258745.2894   -2528444.33746  -1845102.51245                  23258750.3634
        12.2504          8.7504
 95  4 13 15 56  0.0000000  0  8G14G18G19G22G27G28G29G31
  24029428.9924    2678457.20845   1980147.03245                  24029434.8524
         9.2504          5.0004
  20445967.3524   -1142398.44048   -836191.24348                  20445970.1644
        29.5004         43.5004
  21453037.5704   -1356842.78947   -998216.68847                  21453041.7194
        23.0004         31.7504
  24196697.2664    2483268.57845   1841795.15745                  24196701.8834
        11.7504          8.7504
  23983149.6724   -2284720.35545  -1673683.28545                  23983152.9414
         9.0004          5.2504
                  -1152238.568 5   -899275.671 5  23462464.352    23462467.832
        10.250          10.750
  20822804.6334     222568.70347    177067.73048                  20822807.5394
        26.7504         42.5004
  23250722.4844   -2570602.46346  -1877952.97345                  23250726.8794
        12.2504          9.7504
 95  4 13 15 56 15.0000000  0  8G14G18G19G22G27G28G29G31
  24039421.2504    2730967.69945   2021064.27745                  24039425.9264
         9.2504          5.0004
  20443173.0704   -1157082.15148   -847633.08648                  20443175.8714
        29.7504         40.2504
  21449215.4224   -1376930.43047  -1013869.38247                  21449219.6644
        23.5004         31.2504
  24206102.5474    2532691.85345   1880306.77545                  24206106.3794
        11.7504          6.5004
  23975934.7504   -2322628.97745  -1703222.46045                  23975938.5824
         8.7504          5.2504
                  -1166962.963 5   -910749.206 5  23459662.594    23459665.531
        10.250          10.750
  20824764.0004     232866.75047    185092.18248                  20824766.9064
        26.5004         41.2504
  23242728.5704   -2612613.49646  -1910688.80645                  23242733.5394
        12.5004          9.2504
 95  4 13 15 56 30.0000000  0  8G14G18G19G22G27G28G29G31
  24049432.4844    2783576.69245   2062058.27045                  24049438.4964
         9.0004          4.7504
  20440415.3134   -1171575.34548   -858926.48348                  20440417.9494
        30.0004         45.5004
  21445417.6564   -1396888.25147  -1029420.92847                  21445421.7704
        23.5004         32.5004
  24215529.3594    2582231.94145   1918909.43445                  24215533.7544
        11.5004          6.7504
  23968742.1724   -2360426.65645  -1732675.17344                  23968747.0824
         8.7504          4.0004
                  -1181479.874 5   -922061.069 5  23456899.930    23456903.141
        10.250          10.750
  20826760.3524     243356.77047    193266.22248                  20826763.3754
        26.5004         41.2504
  23234760.7894   -2654483.20446  -1943314.51745                  23234765.2304
        12.7504          9.7504
 95  4 13 15 56 45.0000000  0  8G14G18G19G22G27G28G29G31
  24059462.3594    2836283.55245   2103128.50944                  24059468.6414
         9.0004          3.7504
  20437694.0944   -1185876.58948   -870070.29948                  20437696.6134
        30.2504         44.7504
  21441643.7734   -1416718.55047  -1044873.11047                  21441647.6994
        23.5004         31.5004
  24224979.0084    2631889.43445   1957603.56445                  24224983.3794
        11.2504          6.5004
  23961570.7344   -2398113.33545  -1762041.43045                  23961573.9344
         9.0004          4.5004
                  -1195788.886 5   -933210.941 5  23454176.805    23454180.203
        10.000          11.000
  20828792.5474     254035.03147    201586.94648                  20828795.4654
        26.5004         41.2504
  23226820.7814   -2696209.30946  -1975828.34245                  23226825.2934
        13.0004          8.7504
 95  4 13 15 57  0.0000000  0  8G14G18G19G22G27G28G29G31
  24069510.0234    2889085.23845   2144272.65844                  24069515.4494
         9.0004          4.2504
  20435008.8054   -1199986.49248   -881065.02448                  20435011.3364
        29.7504         47.7504
  21437894.3364   -1436423.42447  -1060227.54947                  21437898.0984
        24.0004         31.7504
  24234450.5634    2681659.70645   1996385.58645                  24234455.1804
        11.7504          7.5004
  23954419.6414   -2435692.46245  -1791323.83745                  23954424.0354
         9.2504          5.0004
                  -1209891.005 5   -944199.595 5  23451493.258    23451496.973
        10.000          11.000
  20830859.5474     264897.93347    210051.54448                  20830862.4534
        26.5004         40.7504
  23218907.0164   -2737793.26546  -2008231.39845                  23218911.8794
        12.7504          8.5004
 95  4 13 15 57 15.0000000  0  8G14G18G19G22G27G28G29G31
  24079576.0164    2941982.94945   2185491.63944                  24079580.5744
         8.5004          3.7504
  20432360.4534   -1213903.41748   -891909.37547                  20432363.1374
        29.7504         39.0004
  21434168.2734   -1456003.87347  -1075485.03447                  21434172.2114
        24.0004         31.7504
  24243942.3134    2731541.78645   2035254.72945                  24243946.6844
        11.2504          7.2504
  23947288.2974   -2473168.99545  -1820526.30545                  23947292.6214
         9.0004          5.0004
                  -1223786.166 5   -955026.981 5  23448849.281    23448852.613
        10.250          11.000
  20832961.9224     275945.66947    218660.16648                  20832964.7234
        26.5004         41.0004
  23211020.7504   -2779237.18546  -2040525.33145                  23211025.4384
        13.0004          9.7504
 95  4 13 15 57 30.0000000  0  8G14G18G19G22G27G28G29G31
  24089660.7734    2994981.04245   2226788.83644                  24089665.2734
         8.2504          4.0004
  20429749.3674   -1227624.29148   -902600.95848                  20429752.0864
        29.5004         45.0004
  21430466.2504   -1475457.59847  -1090643.78047                  21430470.0474
        24.0004         33.0004
  24253455.6724    2781536.80845   2074211.86745                  24253460.1604
        11.0004          5.0004
  23940175.2664   -2510544.96345  -1849650.43244                  23940179.4264
         9.0004          4.0004
                  -1237472.742 5   -965691.834 5  23446244.773    23446247.938
        10.250          10.750
  20835099.8674     287179.51047    227413.80648                  20835102.6334
        27.0004         41.7504
  23203161.6484   -2820537.19846  -2072707.12645                  23203166.3244
        12.5004          9.0004
 95  4 13 15 57 45.0000000  0  8G14G18G19G22G27G28G29G31
  24099765.1254    3048079.43645   2268164.16943                  24099770.7384
         7.7504          3.2504
  20427175.6094   -1241149.03748   -913139.71848                  20427178.1294
        29.2504         42.7504
  21426788.6174   -1494784.88547  -1105703.99847                  21426792.3204
        24.5004         33.2504
  24262991.0164    2831641.41346   2113254.41045                  24262995.3054
        12.0004          7.7504
  23933081.2274   -2547824.83145  -1878699.66845                  23933085.7154
         9.7504          5.2504
                  -1250951.115 5   -976194.454 5  23443679.969    23443683.004
        10.250          10.500
  20837273.5784     298602.83047    236315.09148                  20837276.4614
        26.7504         40.7504
  23195329.9064   -2861693.03646  -2104776.58945                  23195334.7464
        12.7504         10.0004
 95  4 13 15 58  0.0000000  0  8G14G18G19G22G27G28G29G31
  24109887.8674    3101275.41545   2309615.54244                  24109893.3984
         7.5004          3.5004
  20424639.3984   -1254477.21148   -923525.30248                  20424641.9884
        29.5004         42.0004
  21423134.2274   -1513989.56447  -1120668.67447                  21423137.8134
        24.7504         33.5004
  24272545.7814    2881854.51045   2152381.48045                  24272550.5164
        11.7504          7.0004
  23926004.4774   -2585011.28645  -1907676.10945                  23926008.8714
         9.2504          5.7504
                  -1264222.085 5   -986535.462 5  23441154.453    23441157.820
        10.250          10.750
  20839483.2974     310214.03347    245362.78048                  20839486.2274
        26.7504         41.2504
  23187525.0474   -2902707.42746  -2136735.82145                  23187529.5944
        13.0004          9.5004
 95  4 13 15 58 15.0000000  0  8G14G18G19G22G27G28G29G31
  24120028.6484    3154564.10345   2351139.16543                  24120034.0744
         7.5004          3.2504
  20422139.9844   -1267611.68648   -933759.95248                  20422142.7034
        29.5004         42.0004
  21419502.9384   -1533072.64547  -1135538.60547                  21419506.4064
        24.7504         33.0004
  24282121.7664    2932174.72346   2191592.02945                  24282126.5234
        12.0004          6.7504
  23918945.2424   -2622109.50845  -1936583.79745                  23918949.1564
         9.7504          5.7504
                  -1277288.560 5   -996717.130 5  23438668.070    23438671.297
        10.250          10.750
  20841727.7424     322010.80347    254555.06848                  20841730.6254
        26.5004         41.0004
  23179747.8984   -2943578.98546  -2168583.74945                  23179752.5044
        13.0004          9.5004
 95  4 13 15 58 30.0000000  0  8G14G18G19G22G27G28G29G31
  24130185.4614    3207943.10144   2392733.18942                  24130191.5204
         7.2504          2.0004
  20419677.5704   -1280552.45948   -943843.67148                  20419680.1604
        29.5004         40.5004
  21415894.9064   -1552031.22347  -1150311.51547                  21415898.4224
        24.5004         33.0004
  24291717.7584    2982603.72345   2230887.35045                  24291722.2584
        11.7504          6.2504
  23911903.4614   -2659119.00745  -1965422.36445                  23911908.3714
        10.0004          5.5004
                  -1290150.054 5  -1006739.068 5  23436220.688    23436223.816
        10.250          10.500
  20844008.1024     333992.51047    263891.46048                  20844011.0204
        27.0004         41.7504
  23171997.7504   -2984305.61946  -2200318.75445                  23172002.4964
        13.0004          9.5004
 95  4 13 15 58 45.0000000  0  8G14G18G19G22G27G28G29G31
  24140360.8524    3261411.95345   2434397.20143                  24140367.2034
         7.7504          3.2504
  20417251.9454   -1293298.17148   -953775.39148                  20417254.6174
        29.0004         41.0004
  21412310.8834   -1570865.63847  -1164987.67747                  21412314.5394
        24.2504         32.5004
  24301335.4534    3033143.59246   2270269.05045                  24301340.3404
        12.5004          7.2504
  23904876.7894   -2696037.87445  -1994190.28645                  23904881.1024
        10.0004          4.5004
                  -1302806.134 5  -1016600.940 5  23433812.156    23433815.445
        10.250          10.750
  20846323.7504     346161.38947    273373.69648                  20846326.6454
        26.7504         42.0004
  23164275.4224   -3024885.65946  -2231939.53745                  23164279.6764
        13.2504         10.0004
 95  4 13 15 59  0.0000000  0  8G14G18G19G22G27G28G29G31
  24150552.5634    3314969.33345   2476130.18544                  24150560.0434
         7.7504          3.7504
  20414863.2344   -1305851.29648   -963557.04248                  20414866.1054
        29.0004         41.5004
  21408750.2584   -1589576.19047  -1179567.32647                  21408753.8914
        24.2504         32.2504
  24310973.5084    3083792.65346   2309735.85845                  24310977.7974
        12.2504          7.7504
  23897868.3754   -2732869.37545  -2022890.13845                  23897872.9344
         9.7504          4.7504
                  -1315258.799 5  -1026304.305 5  23431442.719    23431445.805
        10.250          10.750
  20848674.8914     358518.10347    283002.30648                  20848677.8444
        26.5004         42.0004
  23156580.8284   -3065321.79046  -2263448.16145                  23156585.4804
        13.5004          9.7504
 95  4 13 15 59 15.0000000  0  8G14G18G19G22G27G28G29G31
  24160762.1724    3368615.67645   2517932.48843                  24160766.7424
         7.7504          2.7504
  20412511.5394   -1318211.13248   -973188.08148                  20412514.3524
        29.2504         42.0004
  21405214.2734   -1608158.01347  -1194046.66247                  21405218.0944
        24.0004         33.0004
  24320632.8594    3134551.52346   2349288.20645                  24320637.1844
        12.0004          7.7504
  23890877.5234   -2769610.98545  -2051519.95945                  23890881.6254
        10.2504          6.2504
                  -1327506.257 5  -1035847.771 5  23429112.102    23429115.250
        10.500          10.750
  20851062.6254     371065.15947    292779.23248                  20851065.6724
        26.7504         41.7504
  23148913.3984   -3105613.03846  -2294843.91545                  23148917.7464
        13.2504         10.0004
 95  4 13 15 59 30.0000000  0  8G14G18G19G22G27G28G29G31
  24170986.6414    3422351.52045   2559804.57343                  24170992.0434
         7.5004          3.2504
  20410195.9454   -1330378.92948   -982669.47648                  20410198.8284
        29.2504         41.2504
  21401703.5784   -1626607.70747  -1208423.03947                  21401707.2344
        24.2504         33.7504
  24330312.2584    3185419.52145   2388925.60045                  24330316.8754
        11.0004          7.2504
  23883902.5164   -2806258.74245  -2080076.64145                  23883906.4064
         9.7504          5.0004
                  -1339549.040 5  -1045231.745 5  23426820.328    23426823.488
        10.250          10.750
  20853486.6884     383803.12347    302704.91348                  20853489.8164
        26.5004         42.2504
  23141274.4924   -3145757.26546  -2326125.09445                  23141278.6524
        13.5004          9.0004
 95  4 13 15 59 45.0000000  0  8G14G18G19G22G27G28G29G31
  24181228.6484    3476172.72145   2601743.15643                  24181233.3484
         7.7504          3.0004
  20407915.8364   -1342360.89248   -992006.05448                  20407918.7894
        29.2504         42.2504
  21398217.5084   -1644926.69747  -1222697.56847                  21398221.3524
        24.0004         33.0004
  24340012.4304    3236392.74845   2428644.98345                  24340017.0004
        10.7504          6.7504
  23876947.4304   -2842810.89345  -2108558.83945                  23876951.6374
        10.0004          6.2504
                  -1351389.791 5  -1054458.298 5  23424567.141    23424570.324
        10.250          10.750
  20855945.9144     396727.94047    312776.19448                  20855949.0784
        26.5004         41.5004
  23133663.0394   -3185756.24946  -2357293.09945                  23133668.0904
        13.5004          9.7504
 95  4 13 16  0  0.0000000  0  8G14G18G19G22G27G28G29G31
  24191487.4774    3530083.84745   2643751.76743                  24191493.3484
         8.0004          2.7504
  20405671.7344   -1354152.95648  -1001194.68348                  20405674.5824
        29.0004         42.7504
  21394756.9614   -1663111.61747  -1236867.63647                  21394760.8874
        24.2504         33.0004
  24349733.7814    3287478.44445   2468452.01445                  24349738.1414
        10.7504          6.7504
  23870010.9694   -2879260.37345  -2136961.00645                  23870015.0944
         9.7504          6.2504
                  -1363023.092 5  -1063523.197 5  23422353.383    23422356.625
        10.250          10.750
  20858441.8284     409844.84647    322997.16148                  20858444.9804
        26.2504         41.5004
  23126079.7424   -3225606.05946  -2388344.86445                  23126084.2664
        13.2504          9.5004
 95  4 13 16  0 15.0000000  0  8G14G18G19G22G27G28G29G31
  24201761.9844    3584080.14845   2685826.81444                  24201767.4804
         8.2504          3.7504
  20403463.3524   -1365758.24748  -1010237.76448                  20403466.3404
        29.0004         41.5004
  21391321.0864   -1681167.23647  -1250936.94347                  21391324.9304
        24.2504         33.7504
  24359475.3204    3338674.58345   2508345.09745                  24359480.5234
         9.2504          6.7504
  23863093.9694   -2915609.82645  -2165285.21845                  23863098.8674
        10.0004          6.5004
                  -1374452.575 5  -1072429.276 5  23420178.477    23420181.809
        10.500          10.750
  20860973.3834     423146.68547    333362.22448                  20860976.6524
        26.2504         41.0004
  23118524.2424   -3265308.12646  -2419281.50945                  23118528.7304
        13.0004          9.0004
 95  4 13 16  0 30.0000000  0  8G14G18G19G22G27G28G29G31
  24212053.1564    3638158.90545   2727966.07844                  24212058.3244
         8.0004          4.2504
  20401290.7344   -1377175.98748  -1019134.70148                  20401293.7344
        29.2504         42.5004
  21387909.1644   -1699095.94347  -1264907.36147                  21387913.0904
        24.0004         33.7504
  24369237.8834    3389977.39945   2548321.26545                  24369243.1804
         9.2504          5.2504
  23856196.2894   -2951861.05445  -2193532.93745                  23856200.9534
        10.5004          5.5004
                  -1385680.089 5  -1081177.981 5  23418041.969    23418045.063
        10.250          10.750
  20863539.2504     436631.29547    343869.71348                  20863542.4734
        26.2504         42.2504
  23110997.1254   -3304864.15946  -2450104.35745                  23111002.1414
        13.0004          9.5004
 95  4 13 16  0 45.0000000  0  8G14G18G19G22G27G28G29G31
  24222360.3444    3692321.61345   2770170.74644                  24222365.1374
         8.2504          4.2504
  20399154.4384   -1388402.34648  -1027882.50948                  20399157.4964
        29.0004         42.2504
  21384521.6644   -1716898.82847  -1278779.73347                  21384525.4494
        24.2504         34.0004
  24379021.1644    3441386.99345   2588380.67945                  24379025.5824
         9.0004          5.7504
  23849316.6724   -2988011.68745  -2221702.23645                  23849321.8874
        10.2504          5.7504
                  -1396704.495 5  -1089768.419 5  23415944.188    23415947.105
        10.250          10.750
  20866140.1884     450298.22947    354519.27148                  20866143.1884
        26.5004         42.5004
  23103497.3524   -3344275.16546  -2480814.19045                  23103502.0394
        13.2504         11.7504
 95  4 13 16  1  0.0000000  0  8G14G18G19G22G27G28G29G31
  24232684.9144    3746572.23745   2812443.94345                  24232690.2814
         8.5004          4.7504
  20397054.6804   -1399437.09448  -1036481.01248                  20397057.7154
        29.2504         41.0004
  21381157.8834   -1734575.33847  -1292553.63447                  21381161.6454
        24.2504         33.0004
  24388824.2114    3492901.50545   2628521.81945                  24388829.1094
         8.7504          6.0004
  23842456.4304   -3024061.02645  -2249792.60945                  23842461.3634
        10.0004          6.7504
                  -1407525.090 5  -1098200.042 5  23413884.852    23413888.023
        10.000          10.750
  20868775.7194     464148.64747    365311.80048                  20868778.6484
        26.5004         42.0004
  23096026.5784   -3383537.94946  -2511408.53745                  23096031.3594
        13.5004         10.5004
 95  4 13 16  1 15.0000000  0  8G14G18G19G22G27G28G29G31
  24243024.3524    3800909.95745   2854784.98843                  24243029.7894
         8.0004          2.5004
  20394990.7424   -1410282.81548  -1044932.22148                  20394993.8364
        29.0004         43.0004
  21377818.5314   -1752125.06347  -1306228.73647                  21377822.3284
        24.2504         34.2504
  24398646.5634    3544517.64445   2668742.17445                  24398652.1884
         8.7504          6.0004
  23835615.8754   -3060008.02445  -2277803.25745                  23835620.7974
         9.7504          5.7504
                  -1418142.264 5  -1106473.150 5  23411864.375    23411867.973
        10.000          11.000
  20871446.0004     478180.59647    376245.78148                  20871448.9414
        26.5004         40.7504
  23088582.8754   -3422651.90746  -2541886.91245                  23088587.7154
        13.5004         10.5004
 95  4 13 16  1 30.0000000  0  8G14G18G19G22G27G28G29G31
  24253381.2734    3855334.22645   2897193.49943                  24253387.3914
         8.0004          2.7504
  20392962.7974   -1420939.33048  -1053235.99448                  20392965.8204
        29.0004         40.7504
  21374502.2114   -1769550.16047  -1319806.72747                  21374506.0084
        24.2504         33.5004
  24408488.5164    3596235.58145   2709041.84345                  24408493.0514
         9.0004          5.2504
  23828795.3754   -3095850.72645  -2305732.58945                  23828800.0864
         9.7504          6.5004
                  -1428555.160 5  -1114587.086 5  23409882.781    23409886.527
        10.000          11.250
  20874151.4224     492396.25347    387322.91848                  20874154.3984
        26.5004         40.5004
  23081168.5474   -3461614.37846  -2572247.24645                  23081173.1524
        13.5004         10.5004
 95  4 13 16  1 45.0000000  0  8G14G18G19G22G27G28G29G31
  24263753.8834    3909846.16345   2939670.29944                  24263759.8134
         7.7504          4.2504
  20390971.1564   -1431405.14748  -1061391.17648                  20390974.3444
        28.7504         40.7504
  21371209.8204   -1786852.75047  -1333289.25647                  21371213.6764
        24.2504         34.5004
  24418350.2194    3648057.10945   2749422.22845                  24418354.4384
         9.2504          5.0004
  23821994.9384   -3131589.45545  -2333580.95645                  23821999.2504
         9.7504          6.2504
                  -1438761.119 5  -1122539.770 5  23407940.781    23407944.414
        10.000          11.250
  20876891.6254     506797.68247    398544.80648                  20876894.6024
        26.0004         39.5004
  23073783.8284   -3500424.24946  -2602488.67045                  23073788.2464
        14.0004         10.0004
 95  4 13 16  2  0.0000000  0  8G14G18G19G22G27G28G29G31
  24274144.0864    3964443.59245   2982213.71943                  24274150.5664
         7.5004          3.0004
  20389015.3204   -1441682.47048  -1069399.47248                  20389018.4964
        28.5004         40.0004
  21367939.3674   -1804039.78347  -1346681.74547                  21367943.2344
        24.5004         34.2504
  24428230.4384    3699980.38745   2789881.91945                  24428234.5514
         8.7504          5.0004
  23815212.5164   -3167229.53445  -2361352.40645                  23815217.9304
         9.5004          6.5004
                  -1448761.231 5  -1130332.055 5  23406037.875    23406041.453
        10.250          11.250
  20879667.2274     521382.99447    409909.98648                  20879670.2034
        26.2504         40.5004
  23066426.5084   -3539084.62246  -2632613.60045                  23066430.9384
        13.7504         10.5004
 95  4 13 16  2 15.0000000  0  8G14G18G19G22G27G28G29G31
  24284550.1884    4019122.66545   3024820.77344                  24284555.9064
         8.0004          3.7504
  20387095.2504   -1451770.95148  -1077260.62548                  20387098.4734
        28.2504         40.7504
  21364690.3914   -1821112.66047  -1359985.27747                  21364694.0354
        24.5004         33.0004
  24438130.3524    3752005.08345   2830420.59745                  24438133.5164
         8.7504          4.7504
  23808448.9694   -3202770.90245  -2389046.97945                  23808453.9024
         9.7504          6.7504
                  -1458555.512 5  -1137963.952 5  23404174.242    23404177.387
        10.250          11.000
  20882477.3914     536151.51447    421417.91948                  20882480.3794
        26.5004         41.2504
  23059097.5704   -3577598.03246  -2662624.02445                  23059101.8834
        14.0004         11.7504
 95  4 13 16  2 30.0000000  0  8G14G18G19G22G27G28G29G31
  24294969.6024    4073881.04344   3067489.57844                  24294975.3794
         7.2504          4.0004
  20385210.9694   -1461673.03348  -1084976.52948                  20385214.3204
        28.0004         41.0004
  21361463.3674   -1838071.18747  -1373199.70847                  21361467.2814
        24.5004         33.7504
  24448048.9694    3804125.82645   2871034.13645                  24448052.7894
         9.7504          5.5004
  23801704.6414   -3238213.25045  -2416664.35745                  23801709.6684
         9.7504          6.7504
                  -1468145.259 5  -1145436.468 5  23402349.281    23402352.496
        10.500          11.000
  20885323.1094     551104.74547    433069.77948                  20885325.9924
        26.2504         40.0004
  23051796.2894   -3615966.68046  -2692521.64345                  23051800.3444
        14.2504         11.0004
 95  4 13 16  2 45.0000000  0  8G14G18G19G22G27G28G29G31
  24305405.2894    4128723.39344   3110223.85944                  24305410.9734
         6.5004          4.2504
  20383362.0864   -1471389.94948  -1092548.14748                  20383365.4494
        28.0004         39.7504
  21358259.0234   -1854910.76447  -1386321.45847                  21358262.6564
        24.7504         34.2504
  24457985.5394    3856344.56545   2911724.06345                  24457989.1604
        10.5004          5.2504
  23794980.0314   -3273551.77945  -2444200.84445                  23794985.0124
        10.0004          6.2504
                  -1477527.520 5  -1152747.309 5  23400563.672    23400567.105
        10.250          11.000
  20888204.6334     566248.22147    444869.88748                  20888207.5634
        26.5004         40.5004
  23044523.1094   -3654188.81846  -2722305.09245                  23044527.6334
        14.0004         11.0004
 95  4 13 16  3  0.0000000  0  8G14G18G19G22G27G28G29G31
  24315857.7814    4183649.48144   3153023.35143                  24315864.0984
         6.5004          3.2504
  20381547.4304   -1480926.27448  -1099979.04447                  20381550.7464
        28.2504         38.7504
  21355077.1884   -1871631.08647  -1399350.27047                  21355080.9734
        24.7504         35.2504
  24467941.0554    3908659.49045   2952488.91445                  24467943.6454
        10.7504          5.5004
  23788274.2814   -3308788.32745  -2471657.88645                  23788278.9344
         9.5004          6.0004
                  -1486703.176 5  -1159897.161 5  23398817.852    23398821.113
        10.500          11.000
  20891122.9454     581583.14047    456819.17248                  20891125.9454
        26.2504         40.7504
  23037277.5164   -3692262.46446  -2751972.83345                  23037282.1914
        14.0004         10.7504
 95  4 13 16  3 15.0000000  0  8G14G18G19G22G27G28G29G31
  24326325.7194    4238661.20144   3195889.56843                  24326331.8014
         6.5004          3.0004
  20379766.8984   -1490282.04248  -1107269.25248                  20379770.2384
        28.2504         41.0004
  21351918.2974   -1888230.57247  -1412284.93047                  21351922.1414
        24.7504         34.2504
  24477914.6954    3961072.65345   2993330.36945                  24477917.6254
        11.2504          4.5004
  23781589.7424   -3343919.37145  -2499032.69545                  23781593.9494
        10.2504          6.2504
                  -1495668.780 5  -1166883.333 5  23397111.664    23397114.891
        10.500          10.750
  20894077.9844     597113.46747    468920.72148                  20894081.1604
        25.7504         40.0004
  23030061.4774   -3730185.32746  -2781523.09946                  23030065.7664
        14.5004         12.5004
 95  4 13 16  3 30.0000000  0  8G14G18G19G22G27G28G29G31
  24336809.2424    4293750.97644   3238816.64144                  24336814.6334
         6.7504          3.5004
  20378020.7504   -1499458.08848  -1114419.41448                  20378023.9734
        28.2504         40.7504
  21348782.0084   -1904712.33847  -1425127.85947                  21348785.8164
        24.2504         34.5004
  24487907.5704    4013582.78646   3034247.32045                  24487911.0164
        12.5004          5.7504
  23774923.3754   -3378949.44845  -2526328.84445                  23774927.3954
        10.2504          7.5004
                  -1504426.823 5  -1173707.770 5  23395445.281    23395448.270
        10.500          10.750
  20897069.5944     612835.12347    481171.36248                  20897072.8054
        25.7504         39.5004
  23022872.9304   -3767961.44746  -2810959.00145                  23022877.0314
        14.7504         11.5004
 95  4 13 16  3 45.0000000  0  8G14G18G19G22G27G28G29G31
  24347307.9774    4348920.67144   3281805.96844                  24347314.5164
         6.7504          4.0004
  20376309.7194   -1508450.96648  -1121426.84948                  20376313.0594
        28.5004         39.5004
  21345668.1644   -1921075.58147  -1437878.43247                  21345671.9614
        24.5004         34.5004
  24497918.5314    4066192.79846   3075242.14145                  24497920.5474
        12.2504          5.2504
  23768275.3284   -3413879.85545  -2553547.32145                  23768279.6174
         9.5004          7.5004
                  -1512975.288 5  -1180368.901 5  23393818.414    23393821.535
        10.500          10.750
  20900098.1884     628748.59547    493571.46448                  20900101.4104
        25.7504         39.7504
  23015712.3364   -3805588.35646  -2840278.64145                  23015716.4384
        14.5004         11.7504
 95  4 13 16  4  0.0000000  0  6G18G19G27G28G29G31
  20374633.2114   -1517261.21548  -1128291.97148                  20374636.5394
        28.5004         40.7504
  21342577.2814   -1937318.84947  -1450535.51947                  21342581.1724
        24.7504         34.7504
  23761647.9774   -3448711.29345  -2580688.66345                  23761652.9104
        10.0004          6.5004
                  -1521314.722 5  -1186867.149 5  23392231.547    23392234.418
        10.500          10.750
  20903162.6954     644853.03247    506120.37548                  20903165.8714
        25.5004         40.0004
  23008580.5634   -3843067.20846  -2869482.90946                  23008584.8054
        14.5004         12.2504
 95  4 13 16  4 15.0000000  0  6G18G19G27G28G29G31
  20372992.9774   -1525881.05748  -1135008.72848                  20372996.1054
        28.7504         40.5004
  21339510.5314   -1953433.62547  -1463092.48047                  21339514.2464
        24.5004         34.7504
  23755040.4454   -3483436.95145  -2607747.60045                  23755045.3914
        10.2504          7.2504
                  -1529441.175 5  -1193199.435 5  23390684.953    23390688.203
        10.250          10.750
  20906264.7194     661154.46047    518822.78248                  20906267.8954
        25.5004         40.0004
  23001478.1094   -3880392.21246  -2898567.31545                  23001482.5744
        15.0004         11.5004
 95  4 13 16  4 30.0000000  0  6G18G19G27G28G29G31
  20371389.6024   -1534307.44548  -1141574.73948                  20371392.9414
        29.0004         41.7504
  21336469.6564   -1969413.83847  -1475544.58847                  21336473.4884
        24.2504         34.0004
  23748452.9144   -3518054.09245  -2634721.98345                  23748457.2154
        10.5004          7.2504
                  -1537352.784 5  -1199364.318 5  23389179.367    23389182.801
        10.250          11.000
  20909405.1414     677656.68347    531681.65448                  20909408.3164
        25.7504         39.5004
  22994405.5004   -3917556.85246  -2927526.73246                  22994409.8954
        14.7504         12.2504
 95  4 13 16  4 45.0000000  0  6G18G19G27G28G29G31
  20369824.0394   -1542534.49348  -1147985.42348                  20369827.2384
        29.0004         41.0004
  21333455.4454   -1985253.72347  -1487887.35047                  21333459.2894
        24.2504         34.5004
  23741886.8054   -3552558.72545  -2661608.66945                  23741890.7664
        10.7504          7.7504
                  -1545044.224 5  -1205357.635 5  23387715.633    23387719.121
        10.000          11.000
  20912584.5314     694364.82347    544700.98048                  20912587.5084
        25.7504         41.5004
  22987366.3364   -3954549.56846  -2956352.19545                  22987370.8714
        15.0004         11.5004
 95  4 13 16  5  0.0000000  0  6G18G19G27G28G29G31
  20368296.8754   -1550559.57148  -1154238.73148                  20368300.0044
        28.7504         41.5004
  21330467.6254   -2000955.06347  -1500122.15447                  21330471.3634
        24.2504         34.0004
  23735341.4774   -3586955.18845  -2688411.10245                  23735346.1994
        11.0004          6.7504
                  -1552516.875 5  -1211180.463 5  23386293.594    23386296.914
        10.000          10.750
  20915802.0474     711272.64147    557875.89948                  20915804.9414
        26.0004         39.5004
  22980359.3134   -3991370.11946  -2985043.51645                  22980363.6844
        14.7504         11.0004
 95  4 13 16  5 15.0000000  0  6G18G19G27G28G29G31
  20366808.6024   -1558378.57148  -1160331.45348                  20366811.8014
        28.7504         41.2504
  21327506.1564   -2016517.30347  -1512248.57247                  21327509.9414
        24.5004         34.2504
  23728817.0394   -3621242.81745  -2715128.70545                  23728821.4574
        11.5004          7.0004
                  -1559768.682 5  -1216831.211 5  23384913.766    23384916.801
        10.000          10.750
  20919057.5004     728380.69847    571206.84948                  20919060.2424
        26.2504         40.5004
  22973385.5944   -4028018.45846  -3013600.63945                  22973390.0474
        15.0004         11.5004
 95  4 13 16  5 30.0000000  0  6G18G19G27G28G29G31
  20365360.3444   -1565990.71048  -1166262.98748                  20365363.6134
        29.0004         40.7504
  21324571.4924   -2031939.83547  -1524266.12447                  21324575.3134
        24.7504         34.7504
  23722312.8594   -3655420.80745  -2741760.89545                  23722317.0204
        11.2504          7.7504
                  -1566800.141 5  -1222310.256 5  23383575.734    23383578.520
        10.250          10.500
  20922350.8914     745686.58647    584691.95648                  20922353.8204
        26.2504         40.7504
  22966444.1564   -4064497.33046  -3042025.71046                  22966448.5514
        15.2504         12.5004
 95  4 13 16  5 45.0000000  0  6G18G19G27G28G29G31
  20363952.3204   -1573389.25448  -1172028.08248                  20363955.5904
        29.0004         41.0004
  21321664.6804   -2047213.64947  -1536167.79147                  21321668.4774
        24.5004         34.0004
  23715830.5944   -3689483.74245  -2768303.42445                  23715835.0234
        11.2504          8.0004
                  -1573604.725 5  -1227612.511 5  23382281.000    23382283.758
        10.250          10.500
  20925683.0394     763197.41247    598336.75547                  20925685.8984
        26.0004         39.2504
  22959535.4844   -4100800.04546  -3070313.50445                  22959540.2194
        15.2504         11.0004
 95  4 13 16  6  0.0000000  0  6G18G19G27G28G29G31
  20362585.8674   -1580571.19948  -1177624.39748                  20362589.0204
        29.2504         41.0004
  21318787.2894   -2062335.30647  -1547950.89647                  21318790.9574
        24.5004         34.7504
  23709371.7504   -3723426.03445  -2794751.94845                  23709376.2624
        11.2504          7.7504
                  -1580178.944 5  -1232735.266 5  23381029.758    23381032.805
        10.250          10.500
  20929055.0234     780918.31347    612145.24548                  20929058.0354
        25.7504         40.0004
  22952661.3134   -4136923.68546  -3098461.78346                  22952665.8834
        15.0004         12.5004
 95  4 13 16  6 15.0000000  0  6G18G19G27G28G29G31
  20361259.8834   -1587539.05748  -1183053.89748                  20361262.8834
        29.5004         41.5004
  21315938.8754   -2077304.03247  -1559614.83547                  21315942.6724
        24.5004         33.7504
  23702936.3594   -3757246.24445  -2821105.32845                  23702940.7074
        11.5004          7.5004
                  -1586524.563 5  -1237679.893 5  23379822.109    23379825.461
        10.250          10.750
  20932466.5634     798846.24147    626115.05648                  20932469.7034
        25.7504         39.7504
  22945821.0554   -4172868.92646  -3126471.03346                  22945825.5434
        15.2504         12.0004
 95  4 13 16  6 30.0000000  0  6G18G19G27G28G29G31
  20359975.0634   -1594290.70748  -1188314.92048                  20359978.2974
        29.5004         42.0004
  21313119.9844   -2092117.38547  -1571157.70147                  21313123.6644
        24.5004         34.7504
  23696523.6024   -3790941.64745  -2847361.48345                  23696527.6564
        11.0004          7.2504
                  -1592638.404 5  -1242443.915 5  23378658.758    23378662.066
        10.250          10.750
  20935917.5084     816980.61647    640245.73448                  20935920.6844
        26.0004         40.2504
  22939015.8444   -4208631.49346  -3154337.95546                  22939020.2974
        15.5004         13.2504
 95  4 13 16  6 45.0000000  0  6G18G19G27G28G29G31
  20358731.5784   -1600824.49048  -1193406.17548                  20358734.7194
        29.5004         41.7504
  21310330.5164   -2106775.97647  -1582579.96947                  21310334.2304
        24.7504         35.2504
  23690135.7584   -3824510.62345  -2873519.10445                  23690140.2344
        11.2504          6.7504
                  -1598517.609 5  -1247025.100 5  23377540.063    23377543.348
        10.500          11.000
  20939407.6094     835321.05847    654536.98548                  20939410.7854
        25.7504         40.2504
  22932245.0084   -4244210.47646  -3182061.80446                  22932249.4614
        15.2504         12.7504
 95  4 13 16  7  0.0000000  0  6G18G19G27G28G29G31
  20357531.1414   -1607134.24948  -1198322.86948                  20357534.2234
        29.7504         40.5004
  21307570.9384   -2121278.08247  -1593880.30747                  21307574.6174
        25.2504         35.2504
  23683772.5234   -3857949.99945  -2899575.74745                  23683776.9064
        11.2504          7.0004
                  -1604158.647 5  -1251420.699 5  23376466.867    23376469.852
        10.500          11.000
  20942937.3834     853870.44247    668991.04548                  20942940.5354
        25.7504         40.2504
  22925509.3754   -4279607.53046  -3209643.90546                  22925513.2304
        15.5004         12.0004
 95  4 13 16  7 15.0000000  0  6G18G19G27G28G29G31
  20356372.6174   -1613221.80148  -1203066.41648                  20356375.7344
        29.5004         41.2504
  21304840.5784   -2135625.65347  -1605060.22847                  21304844.0704
        25.0004         35.0004
  23677433.7274   -3891260.74745  -2925532.15945                  23677438.5084
        11.5004          6.5004
                  -1609562.558 5  -1255631.520 5  23375438.422    23375441.449
        10.500          11.000
  20946507.4064     872629.80047    683608.72448                  20946510.5594
        26.0004         40.5004
  22918807.5234   -4314826.51346  -3237087.24545                  22918812.0704
        15.0004         11.7504
 95  4 13 16  7 30.0000000  0  6G18G19G27G28G29G31
  20355256.7194   -1619085.83548  -1207635.79348                  20355259.9184
        29.5004         42.0004
  21302140.4694   -2149815.71747  -1616117.41547                  21302143.9494
        25.2504         36.5004
  23671120.4534   -3924438.42845  -2951384.88845                  23671125.0234
        11.7504          6.7504
                  -1614726.196 5  -1259655.120 5  23374455.617    23374458.668
        10.500          10.750
  20950118.2034     891605.80147    698395.21248                  20950121.2154
        26.0004         41.0004
  22912139.9924   -4349864.52946  -3264389.56946                  22912144.5164
        15.2504         12.7504
 95  4 13 16  7 45.0000000  0  6G18G19G27G28G29G31
  20354183.7974   -1624725.53648  -1212030.36348                  20354186.9964
        30.0004         41.7504
  21299469.8914   -2163850.05647  -1627053.25347                  21299473.5234
        25.2504         35.2504
  23664831.8674   -3957485.83846  -2977136.11145                  23664836.2974
        12.0004          6.5004
                  -1619650.928 5  -1263492.559 5  23373518.453    23373521.574
        10.250          10.750
  20953770.2894     910797.09547    713349.46448                  20953773.4064
        26.2504         41.2504
  22905507.5704   -4384718.79846  -3291548.72846                  22905511.9534
        14.7504         12.5004
 95  4 13 16  8  0.0000000  0  6G18G19G27G28G29G31
  20353153.3204   -1630139.37348  -1216248.93448                  20353156.4144
        29.7504         40.7504
  21296828.3204   -2177731.11547  -1637869.66147                  21296831.8484
        25.5004         36.2504
  23658567.9304   -3990403.32945  -3002786.08445                  23658572.3834
        11.7504          7.7504
                  -1624335.986 5  -1267143.238 5  23372626.906    23372630.227
        10.000          11.000
  20957463.8364     930205.92447    728473.22548                  20957466.9064
        26.5004         40.7504
  22898910.3284   -4419386.47946  -3318562.48045                  22898914.9104
        14.5004         11.2504
 95  4 13 16  8 15.0000000  0  6G18G19G27G28G29G31
  20352166.9384   -1635323.49648  -1220288.51048                  20352169.9144
        30.0004         41.2504
  21294216.3594   -2191456.34147  -1648564.63347                  21294219.8054
        25.2504         36.7504
  23652328.0634   -4023187.47045  -3028332.15745                  23652332.5044
        10.7504          7.2504
                  -1628777.553 5  -1270604.187 5  23371781.789    23371785.117
        10.250          11.000
  20961199.8204     949837.79647    743770.78348                  20961202.6914
        26.7504         41.0004
  22892349.5784   -4453862.18446  -3345426.63246                  22892354.1374
        14.5004         13.0004
 95  4 13 16  8 30.0000000  0  6G18G19G27G28G29G31
  20351223.8134   -1640280.60448  -1224151.19148                  20351226.9064
        30.2504         42.0004
  21291633.4844   -2205030.21047  -1659141.66947                  21291636.9534
        25.5004         36.7504
  23646114.4384   -4055843.52045  -3053778.41045                  23646118.7734
        11.0004          6.2504
                  -1632978.663 5  -1273877.767 5  23370982.320    23370985.668
        10.250          11.000
  20964977.5164     969690.64247    759240.52848                  20964980.4804
        26.2504         40.2504
  22885824.8284   -4488150.05446  -3372144.42645                  22885829.0354
        14.0004         11.7504
 95  4 13 16  8 45.0000000  0  6G18G19G27G28G29G31
  20350323.8834   -1645008.96348  -1227835.62248                  20350326.8954
        30.2504         41.5004
  21289078.1724   -2218458.89547  -1669605.57347                  21289081.7344
        25.5004         37.0004
  23639923.6644   -4088375.87545  -3079128.27645                  23639927.8364
        11.0004          7.0004
                  -1636940.513 5  -1276964.908 5  23370228.328    23370231.672
        10.250          10.750
  20968797.9224     989767.38847    774884.74448                  20968800.9694
        26.2504         40.7504
  22879335.1724   -4522253.25246  -3398718.32046                  22879339.9654
        14.0004         12.2504
 95  4 13 16  9  0.0000000  0  6G18G19G27G28G29G31
  20349466.8134   -1649513.33148  -1231345.52148                  20349469.7074
        30.7504         41.7504
  21286548.9454   -2231748.18947  -1679960.85947                  21286552.5084
        25.0004         36.7504
  23633755.4694   -4120791.78545  -3104387.40945                  23633758.8554
        11.2504          5.2504
                  -1640669.115 5  -1279870.304 5  23369518.656    23369522.133
        10.250          11.000
  20972660.2034    1010064.16347    790700.41248                  20972663.2504
        25.7504         39.5004
  22872879.1804   -4556178.95946  -3425153.91146                  22872883.6914
        14.2504         12.2504
 95  4 13 16  9 15.0000000  0  6G18G19G27G28G29G31
  20348652.7034   -1653792.05748  -1234679.59148                  20348655.5744
        30.7504         42.2504
  21284047.6094   -2244893.12547  -1690203.66647                  21284051.2194
        25.2504         36.7504
  23627609.4614   -4153087.60045  -3129552.98045                  23627613.2344
        10.7504          6.2504
                  -1644160.402 5  -1282590.778 5  23368854.430    23368857.809
        10.250          11.000
  20976565.1564    1030585.22447    806690.84548                  20976568.2274
        26.0004         39.5004
  22866458.3134   -4589921.30046  -3451446.61146                  22866463.0234
        14.2504         12.2504
 95  4 13 16  9 30.0000000  0  6G18G19G27G28G29G31
  20347880.6724   -1657849.01148  -1237840.85348                  20347883.4384
        30.7504         42.2504
  21281574.0234   -2257893.30547  -1700333.66847                  21281577.6334
        25.5004         36.2504
  23621486.5634   -4185263.77045  -3154625.32045                  23621490.7934
        11.0004          7.2504
                  -1647415.409 5  -1285127.133 5  23368235.266    23368238.426
        10.500          11.000
  20980512.4224    1051326.59447    822852.95148                  20980515.3754
        26.2504         39.5004
  22860072.4774   -4623480.52246  -3477596.63246                  22860076.9884
        14.2504         12.0004
 95  4 13 16  9 45.0000000  0  6G18G19G27G28G29G31
  20347150.6174   -1661685.09148  -1240830.00248                  20347153.4064
        31.0004         42.5004
  21279127.6484   -2270749.00847  -1710351.09247                  21279131.2234
        25.0004         37.5004
  23615386.7504   -4217321.34645  -3179605.21345                  23615391.1214
        11.2504          7.2504
                  -1650434.463 5  -1287479.634 5  23367660.734    23367663.715
        10.750          10.750
  20984500.2194    1072283.97347    839183.36848                  20984503.0434
        26.0004         40.2504
  22853721.0314   -4656855.72046  -3503603.26046                  22853725.4734
        14.7504         12.0004
 95  4 13 16 10  0.0000000  0  6G18G19G27G28G29G31
  20346461.5704   -1665307.25948  -1243652.46748                  20346464.3244
        31.2504         42.5004
  21276707.5944   -2283465.60647  -1720260.12847                  21276711.4264
        25.2504         37.0004
  23609307.2814   -4249266.06645  -3204497.18245                  23609311.6524
        11.0004          7.0004
                  -1653223.411 5  -1289652.825 5  23367130.039    23367132.977
        10.500          10.750
  20988527.9224    1093449.17247    855675.72948                  20988530.6644
        26.0004         40.2504
  22847404.1334   -4690051.50246  -3529470.08245                  22847408.4344
        14.5004         11.7504
 95  4 13 16 10 15.0000000  0  6G18G19G27G28G29G31
  20345812.7274   -1668716.45848  -1246308.98748                  20345815.5394
        31.2504         41.7504
  21274314.6804   -2296041.17147  -1730059.26447                  21274318.3714
        25.2504         36.5004
  23603250.5784   -4281096.43245  -3229300.05445                  23603254.6454
        11.5004          6.0004
                  -1655782.877 5  -1291647.196 5  23366642.883    23366645.520
        10.500          10.500
  20992595.1024    1114821.74747    872329.67448                  20992597.9844
        26.2504         40.5004
  22841121.1024   -4723070.99846  -3555199.53646                  22841125.1094
        15.2504         12.5004
 95  4 13 16 10 30.0000000  0  6G18G19G27G28G29G31
  20345204.1414   -1671914.24048  -1248800.76348                  20345206.9304
        31.2504         42.0004
  21271948.2894   -2308476.10947  -1739748.82147                  21271951.9804
        25.2504         38.0004
  23597214.4064   -4312814.85945  -3254015.68945                  23597218.4264
        11.2504          6.2504
                  -1658116.102 5  -1293465.285 5  23366198.898    23366201.824
        10.500          10.500
  20996700.4534    1136396.22247    889140.95148                  20996703.3484
        26.2504         40.5004
  22834870.3754   -4755918.72346  -3580795.15046                  22834874.2074
        15.7504         13.2504
 95  4 13 16 10 45.0000000  0  6G18G19G27G28G29G31
  20344635.6094   -1674902.04348  -1251128.91848                  20344638.4224
        31.0004         42.2504
  21269608.5394   -2320772.91747  -1749330.74147                  21269612.1134
        25.5004         37.2504
  23591199.5704   -4344424.04045  -3278646.21045                  23591204.0354
        11.0004          7.5004
                  -1660224.699 5  -1295108.338 5  23365797.602    23365800.504
        10.500          10.500
  21000843.3204    1158167.37047    906105.47648                  21000846.1214
        26.2504         42.0004
  22828651.6094   -4788594.73546  -3606256.95646                  22828655.4774
        15.2504         12.0004
 95  4 13 16 11  0.0000000  0  6G18G19G27G28G29G31
  20344105.9844   -1677685.37248  -1253297.74548                  20344108.9264
        31.0004         41.7504
  21267294.6174   -2332932.76947  -1758805.95147                  21267298.0744
        25.5004         37.0004
  23585204.9614   -4375926.14645  -3303193.27345                  23585209.7894
        10.5004          7.2504
                  -1662112.211 5  -1296579.121 5  23365438.313    23365441.270
        10.500          10.500
  21005022.6644    1180129.20847    923218.59548                  21005025.6294
        26.5004         41.0004
  22822466.8204   -4821100.61646  -3631586.20146                  22822470.5944
        15.7504         13.7504
 95  4 13 16 11 15.0000000  0  6G18G19G27G28G29G31
  20343613.5314   -1680272.47648  -1255313.66748                  20343616.4144
        30.7504         41.7504
  21265006.1094   -2344959.05647  -1768177.08547                  21265009.6844
        25.5004         37.0004
  23579229.5394   -4407326.30645  -3327660.90545                  23579234.6134
        10.7504          7.0004
                  -1663785.002 5  -1297882.582 5  23365119.938    23365123.043
        10.500          10.500
  21009236.3134    1202272.45447    940473.06448                  21009239.2774
        26.2504         41.5004
  22816313.0394   -4853439.39646  -3656785.23145                  22816316.5904
        16.2504         11.7504
 95  4 13 16 11 30.0000000  0  6G18G19G27G28G29G31
  20343158.2814   -1682665.21748  -1257178.13948                  20343161.0594
        31.2504         42.2504
  21262742.2274   -2356853.96847  -1777445.84447                  21262745.8364
        25.2504         36.5004
  23573273.1334   -4438626.18045  -3352050.40145                  23573277.7154
        11.0004          7.2504
                  -1665245.313 5  -1299020.476 5  23364842.242    23364844.977
        10.750          10.500
  21013484.5704    1224595.40147    957867.56648                  21013487.7814
        26.5004         40.5004
  22810191.0704   -4885609.90146  -3681853.14946                  22810194.5744
        16.0004         12.2504
 95  4 13 16 11 45.0000000  0  6G18G19G27G28G29G31
  20342739.3524   -1684866.06748  -1258893.08848                  20342742.1054
        31.0004         41.7504
  21260502.7034   -2368622.25347  -1786615.93147                  21260506.1954
        25.0004         37.2504
  23567335.0554   -4469830.32345  -3376365.30145                  23567339.4024
        11.2504          7.5004
                  -1666496.173 5  -1299995.165 5  23364604.195    23364607.227
        10.750          10.750
  21017766.2894    1247097.46047    975401.62848                  21017769.2894
        26.0004         40.7504
  22804100.8364   -4917613.54346  -3706791.03446                  22804104.3164
        16.0004         12.0004
 95  4 13 16 12  0.0000000  0  6G18G19G27G28G29G31
  20342357.5004   -1686874.55348  -1260458.14048                  20342360.2664
        31.2504         41.0004
  21258286.3284   -2380269.90847  -1795692.02647                  21258290.0314
        25.2504         37.2504
  23561414.5944   -4500941.62245  -3400607.86745                  23561418.2274
        10.5004          7.5004
                  -1667540.047 5  -1300808.563 5  23364405.648    23364408.707
        10.750          10.750
  21022083.1174    1269781.07347    993077.17048                  21022086.1294
        26.2504         40.2504
  22798042.5704   -4949450.44446  -3731598.99146                  22798046.3094
        16.0004         12.0004
 95  4 13 16 12 15.0000000  0  6G18G19G27G28G29G31
  20342011.2274   -1688692.86948  -1261875.00948                  20342014.0394
        31.0004         42.0004
  21256091.4304   -2391803.40647  -1804679.15947                  21256095.0864
        25.2504         36.5004
  23555511.1024   -4531964.51345  -3424781.52945                  23555515.5554
        10.7504          8.2504
                  -1668381.492 5  -1301464.230 5  23364245.453    23364248.457
        10.750          11.000
  21026433.8364    1292644.05247   1010892.46748                  21026436.7424
        26.2504         40.5004
  22792014.5704   -4981128.05846  -3756282.83546                  22792018.2504
        15.7504         13.0004
 95  4 13 16 12 30.0000000  0  6G18G19G27G28G29G31
  20341701.8284   -1690320.05148  -1263142.94148                  20341704.6644
        31.2504         41.2504
  21253918.3204   -2403224.49047  -1813578.70047                  21253921.8484
        25.0004         37.2504
  23549624.5634   -4562900.97945  -3448887.84845                  23549629.8714
        10.5004          7.7504
                  -1669020.706 5  -1301962.311 5  23364123.727    23364126.957
        10.750          11.000
  21030818.2344    1315686.22847   1028847.40648                  21030821.1884
        26.0004         40.5004
  22786016.1724   -5012648.52346  -3780844.21246                  22786019.7704
        15.7504         13.0004
 95  4 13 16 12 45.0000000  0  6G18G19G27G28G29G31
  20341427.6884   -1691759.84248  -1264264.85548                  20341430.5124
        31.2504         41.5004
  21251765.1094   -2414538.78547  -1822395.03247                  21251768.6844
        25.2504         37.0004
  23543753.7114   -4593752.24345  -3472927.76545                  23543758.9494
        11.0004          8.5004
                  -1669458.663 5  -1302303.570 5  23364040.414    23364043.453
        10.750          11.000
  21035236.9924    1338906.24447   1046940.92248                  21035240.0044
        26.0004         40.2504
  22780047.7584   -5044012.49446  -3805283.65146                  22780051.6024
        15.5004         13.5004
 95  4 13 16 13  0.0000000  0  6G18G19G27G28G29G31
  20341188.7584   -1693016.62348  -1265244.16348                  20341191.4304
        31.5004         41.0004
  21249631.6414   -2425749.58247  -1831130.71147                  21249635.2854
        25.0004         36.7504
  23537898.7584   -4624520.63645  -3496903.10845                  23537903.2114
        11.7504          8.2504
                  -1669698.167 5  -1302490.187 5  23363994.727    23363997.801
        10.500          11.000
  21039688.6484    1362301.15547   1065170.71448                  21039691.7424
        25.7504         40.2504
  22774108.9224   -5075222.35846  -3829603.01146                  22774113.0944
        16.2504         14.0004
 95  4 13 16 13 15.0000000  0  6G18G19G27G28G29G31
  20340983.7584   -1694092.30548  -1266082.35748                  20340986.4884
        31.2504         41.0004
  21247518.0784   -2436857.94547  -1839786.57947                  21247521.7234
        25.2504         36.2504
  23532059.0084   -4655205.49045  -3520813.37545                  23532063.9884
        11.0004          7.7504
                  -1669740.394 5  -1302523.078 5  23363986.672    23363989.738
        10.500          11.000
  21044174.2664    1385871.53747   1083537.24048                  21044177.2894
        26.0004         41.0004
  22768198.9384   -5106280.14846  -3853803.85846                  22768202.7464
        16.2504         14.7504
 95  4 13 16 13 30.0000000  0  6G18G19G27G28G29G31
  20340812.8914   -1694990.65348  -1266782.37048                  20340815.5864
        31.0004         41.7504
  21245422.8834   -2447867.69847  -1848365.60147                  21245426.4454
        25.0004         37.0004
  23526235.5474   -4685812.11445  -3544662.67845                  23526240.8554
        11.5004          8.2504
                  -1669589.104 5  -1302405.185 5  23364015.492    23364018.730
        10.500          11.000
  21048692.2424    1409615.00947   1102038.64148                  21048695.3484
        25.7504         40.5004
  22762317.2034   -5137188.97646  -3877888.63546                  22762321.5274
        16.0004         14.5004
 95  4 13 16 13 45.0000000  0  6G18G19G27G28G29G31
  20340675.2034   -1695713.93448  -1267345.96248                  20340677.9224
        31.2504         41.5004
  21243346.1724   -2458781.65547  -1856869.97547                  21243349.6294
        25.2504         36.5004
  23520425.9304   -4716339.29445  -3568450.07945                  23520431.0044
        11.2504          9.2504
                  -1669245.103 5  -1302137.123 5  23364080.898    23364084.184
        10.500          11.000
  21053243.9694    1433532.55647   1120675.68748                  21053247.1334
        26.0004         40.2504
  22756462.2974   -5167954.22446  -3901861.54646                  22756466.5394
        16.5004         15.7504
 95  4 13 16 14  0.0000000  0  6G18G19G27G28G29G31
  20340570.5704   -1696263.77148  -1267774.40848                  20340573.2424
        31.0004         41.5004
  21241287.6724   -2469598.46147  -1865298.64947                  21241291.1294
        25.5004         37.5004
  23514632.3284   -4746786.50845  -3592175.16145                  23514637.4494
        11.7504          8.7504
                  -1668708.075 5  -1301718.656 5  23364182.992    23364186.324
        10.250          11.250
  21057827.8524    1457622.09747   1139446.75148                  21057831.1564
        26.0004         39.7504
  22750635.0004   -5198577.32146  -3925723.67246                  22750639.3834
        16.2504         15.2504
 95  4 13 16 14 15.0000000  0  6G18G19G27G28G29G31
  20340498.9774   -1696640.42048  -1268067.90148                  20340501.6484
        31.5004         40.5004
  21239248.2344   -2480315.59647  -1873649.65447                  21239251.6684
        25.2504         37.0004
  23508853.7814   -4777153.26445  -3615837.54945                  23508858.4694
        11.5004          8.0004
                  -1667978.047 5  -1301149.797 5  23364321.922    23364325.309
        10.500          11.250
  21062444.1254    1481879.99347   1158349.00248                  21062447.2304
        26.2504         41.0004
  22744834.8204   -5229058.44446  -3949475.17746                  22744839.2854
        16.5004         14.7504
 95  4 13 16 14 30.0000000  0  6G18G19G27G28G29G31
  20340458.5864   -1696852.22748  -1268232.94148                  20340461.1994
        31.5004         40.5004
  21237227.9534   -2490933.36647  -1881923.23647                  21237231.3634
        25.2504         37.7504
  23503089.0554   -4807446.02746  -3639442.27145                  23503093.9184
        12.0004          9.2504
                  -1667059.688 5  -1300434.191 5  23364496.930    23364500.195
        10.750          11.250
  21067090.6724    1506299.15447   1177376.91548                  21067093.7664
        25.7504         40.2504
  22739060.4774   -5259402.93046  -3973120.21746                  22739064.8834
        16.7504         15.5004
 95  4 13 16 14 45.0000000  0  6G18G19G27G28G29G31
  20340448.7424   -1696904.13248  -1268273.38948                  20340451.2154
        31.7504         41.0004
  21235226.1564   -2501451.94247  -1890119.52247                  21235229.9184
        25.0004         38.5004
  23497338.5634   -4837665.49545  -3662989.93245                  23497342.6884
        11.7504         11.7504
                  -1665954.139 5  -1299572.720 5  23364707.219    23364710.602
        10.750          11.250
  21071768.3054    1530879.16647   1196530.16348                  21071771.4224
        25.7504         41.0004
  22733312.5164   -5289606.99846  -3996655.84346                  22733316.9694
        16.7504         16.7504
 95  4 13 16 15  0.0000000  0  6G18G19G27G28G29G31
  20340469.5004   -1696795.39248  -1268188.65648                  20340472.0084
        31.5004         40.5004
  21233244.3594   -2511866.90047  -1898235.06947                  21233248.0634
        25.2504         37.7504
  23491601.6884   -4867810.85945  -3686479.77745                  23491606.5634
        11.7504          9.0004
                  -1664660.265 5  -1298564.500 5  23364953.453    23364956.602
        10.750          11.000
  21076476.5704    1555621.55947   1215809.94548                  21076479.7234
        25.5004         40.2504
  22727593.3204   -5319664.84046  -4020077.50846                  22727597.5984
        17.2504         15.0004
 95  4 13 16 15 15.0000000  0  6G18G19G27G28G29G31
  20340521.5634   -1696521.66048  -1267975.35848                  20340523.9884
        31.2504         41.0004
  21231282.9694   -2522174.09447  -1906266.64447                  21231286.6724
        25.2504         37.7504
  23485880.2734   -4897881.26746  -3709911.26645                  23485884.5744
        12.5004          8.7504
                  -1663176.244 5  -1297408.119 5  23365235.922    23365238.949
        10.750          11.000
  21081216.4614    1580529.84147   1235218.99148                  21081219.5084
        25.7504         40.0004
  22721901.4224   -5349571.82946  -4043381.63946                  22721905.5944
        17.0004         15.2504
 95  4 13 16 15 30.0000000  0  6G18G19G27G28G29G31
  20340604.0394   -1696088.02148  -1267637.45448                  20340606.5824
        31.2504         41.0004
  21229340.5634   -2532381.06147  -1914220.12147                  21229344.1844
        25.0004         37.0004
  23480170.7814   -4927884.29346  -3733290.23445                  23480175.2344
        12.5004          7.7504
                  -1661508.406 5  -1296108.501 5  23365553.336    23365556.180
        11.000          10.750
  21085986.4924    1605597.39247   1254752.14148                  21085989.6214
        25.7504         39.7504
  22716237.9454   -5379334.00346  -4066572.93146                  22716242.3404
        16.7504         15.5004
 95  4 13 16 15 45.0000000  0  6G18G19G27G28G29G31
  20340718.3984   -1695488.09648  -1267169.98048                  20340721.0474
        31.0004         40.2504
  21227418.1094   -2542484.02147  -1922092.55447                  21227421.8364
        25.2504         37.2504
  23474474.9534   -4957815.17846  -3756612.97845                  23474479.2424
        12.5004          8.7504
                  -1659652.649 5  -1294662.445 5  23365906.523    23365909.434
        11.000          11.000
  21090787.9064    1630827.88947   1274412.26148                  21090791.0234
        26.0004         41.0004
  22710603.1414   -5408946.62646  -4089647.67846                  22710607.1024
        17.0004         14.2504
 95  4 13 16 16  0.0000000  0  6G18G19G27G28G29G31
  20340864.0554   -1694721.27348  -1266572.45648                  20340866.8324
        30.7504         39.5004
  21225514.8754   -2552486.03147  -1929886.32447                  21225518.4614
        25.5004         36.7504
  23468792.8674   -4987674.89445  -3779880.27945                  23468797.6024
        11.7504          8.7504
                  -1657611.104 5  -1293071.637 5  23366294.906    23366298.176
        11.000          11.000
  21095619.3594    1656217.96047   1294196.72248                  21095622.5004
        25.7504         40.5004
  22704996.3594   -5438411.27746  -4112607.13846                  22705000.0394
        17.2504         14.5004
 95  4 13 16 16 15.0000000  0  6G18G19G27G28G29G31
  20341043.4694   -1693779.64548  -1265838.72248                  20341046.2344
        30.7504         39.5004
  21223631.0084   -2562385.59547  -1937600.25947                  21223634.6294
        25.2504         38.0004
  23463123.8204   -5017463.95746  -3803092.51745                  23463128.8364
        12.0004          8.7504
                  -1655381.603 5  -1291334.362 5  23366719.141    23366722.320
        11.000          11.000
  21100481.6484    1681768.19847   1314105.99248                  21100484.6844
        26.2504         40.0004
  22699418.2194   -5467723.83046  -4135448.07746                  22699422.2504
        17.0004         15.2504
 95  4 13 16 16 30.0000000  0  6G18G19G27G28G29G31
  20341256.1094   -1692661.93048  -1264967.77347                  20341258.7934
        30.7504         38.5004
  21221765.5164   -2572188.41747  -1945238.82047                  21221768.9264
        25.2504         37.0004
  23457468.5554   -5047185.68846  -3826252.27545                  23457472.7274
        12.5004          9.0004
                  -1652967.183 5  -1289452.997 5  23367178.617    23367181.930
        11.000          11.250
  21105373.8594    1707476.99047   1334138.81048                  21105376.9884
        26.2504         39.7504
  22693867.3204   -5496890.35846  -4158175.22946                  22693871.5864
        16.5004         15.7504
 95  4 13 16 16 45.0000000  0  6G18G19G27G28G29G31
  20341502.2894   -1691366.92548  -1263958.67947                  20341504.9844
        30.7504         38.0004
  21219918.0164   -2581896.84147  -1952803.82047                  21219921.4494
        25.2504         38.2504
  23451825.7814   -5076837.33146  -3849357.44045                  23451830.3164
        12.7504          8.2504
                  -1650368.383 5  -1287427.956 5  23367673.086    23367676.250
        10.750          11.250
  21110296.7274    1733346.86947   1354297.15048                  21110299.8204
        26.0004         40.0004
  22688345.2664   -5525911.66146  -4180789.22146                  22688349.2034
        16.7504         14.5004
 95  4 13 16 17  0.0000000  0  6G18G19G27G28G29G31
  20341783.1644   -1689890.69148  -1262808.37147                  20341785.8714
        30.2504         38.2504
  21218088.1884   -2591511.95947  -1960296.11047                  21218091.7384
        25.0004         37.7504
  23446197.0554   -5106415.88246  -3872405.64945                  23446201.3794
        12.5004          9.2504
                  -1647584.819 5  -1285258.941 5  23368202.961    23368205.832
        11.000          11.000
  21115250.2814    1759378.33647   1374581.40648                  21115253.2704
        26.0004         40.0004
  22682850.3754   -5554788.95546  -4203290.99546                  22682854.2544
        17.0004         15.2504
 95  4 13 16 17 15.0000000  0  6G18G19G27G28G29G31
  20342099.0784   -1688231.69848  -1261515.64947                  20342101.9024
        30.5004         37.7504
  21216275.7734   -2601037.07947  -1967718.27447                  21216279.4184
        25.2504         37.5004
  23440581.9064   -5135924.03746  -3895399.01045                  23440586.0554
        12.5004          8.2504
                  -1644618.783 5  -1282947.739 5  23368767.391    23368770.363
        11.000          11.000
  21120234.0864    1785567.83947   1394988.80548                  21120236.9804
        26.5004         40.5004
  22677381.3594   -5583527.53646  -4225684.67946                  22677385.4494
        16.7504         16.0004
 95  4 13 16 17 30.0000000  0  6G18G19G27G28G29G31
  20342449.5554   -1686389.60348  -1260080.25047                  20342452.2504
        30.5004         38.5004
  21214479.9224   -2610475.61247  -1975072.97347                  21214483.3204
        25.7504         37.5004
  23434980.3284   -5165359.74246  -3918335.91145                  23434984.6994
        12.2504          8.2504
                  -1641469.272 5  -1280493.571 5  23369366.594    23369369.555
        10.750          10.750
  21125248.0004    1811915.97047   1415519.81048                  21125250.8244
        26.5004         40.5004
  22671938.0864   -5612132.40746  -4247974.17146                  22671942.2114
        16.7504         16.2504
 95  4 13 16 17 45.0000000  0  6G18G19G27G28G29G31
  20342834.6884   -1684366.32448  -1258503.67147                  20342837.3134
        30.5004         38.5004
  21212700.2584   -2619827.00347  -1982359.76847                  21212703.7154
        25.5004         37.7504
  23429392.9384   -5194723.29646  -3941216.58045                  23429397.4964
        12.2504          8.5004
                  -1638135.332 5  -1277895.688 5  23370000.914    23370004.133
        10.750          11.000
  21130291.9614    1838422.82247   1436174.49748                  21130294.6914
        26.2504         39.5004
  22666519.4534   -5640605.32546  -4270160.85146                  22666523.8244
        16.2504         15.7504
 95  4 13 16 18  0.0000000  0  6G18G19G27G28G29G31
  20343253.7734   -1682163.29448  -1256787.02547                  20343256.3054
        30.5004         39.0004
  21210937.3134   -2629090.77147  -1989578.28147                  21210940.9104
        25.5004         38.5004
  23423818.7194   -5224015.69446  -3964041.81445                  23423823.4184
        12.2504          9.2504
                  -1634616.348 5  -1275153.625 5  23370670.633    23370673.844
        11.000          11.250
  21135366.7424    1865090.24847   1456954.30147                  21135369.6374
        26.2504         39.2504
  22661126.5944   -5668946.63346  -4292244.97146                  22661131.0594
        16.7504         15.2504
 95  4 13 16 18 15.0000000  0  6G18G19G27G28G29G31
  20343706.7504   -1679783.00448  -1254932.25347                  20343709.3054
        30.7504         38.2504
  21209191.0634   -2638267.87047  -1996729.26348                  21209194.5554
        25.5004         39.7504
  23418256.9224   -5253241.73546  -3986815.33845                  23418261.2344
        12.0004          8.7504
                  -1630913.663 5  -1272268.411 5  23371375.273    23371378.480
        11.000          11.250
  21140471.3754    1891915.26947   1477856.90547                  21140474.3404
        25.7504         39.0004
  22655757.9224   -5697158.72946  -4314228.40346                  22655762.0234
        16.5004         15.2504
 95  4 13 16 18 30.0000000  0  6G18G19G27G28G29G31
  20344192.6564   -1677229.85148  -1252942.78547                  20344195.2814
        30.5004         39.2504
  21207460.9614   -2647359.24347  -2003813.44647                  21207464.5234
        25.7504         37.5004
  23412707.9694   -5282402.75446  -4009538.19345                  23412711.9184
        12.0004         10.0004
                  -1627027.907 5  -1269240.548 5  23372114.742    23372117.840
        11.000          11.250
  21145606.1094    1918900.20547   1498884.12247                  21145609.3444
        25.2504         37.5004
  22650413.5474   -5725242.31546  -4336111.70246                  22650417.8954
        16.0004         15.0004
 95  4 13 16 18 45.0000000  0  6G18G19G27G28G29G31
  20344710.5164   -1674508.83448  -1250822.51247                  20344713.2464
        30.7504         38.5004
  21205747.8364   -2656362.44347  -2010828.92347                  21205751.4224
        25.5004         38.2504
  23407171.1024   -5311497.90546  -4032209.70545                  23407175.3914
        12.0004          8.7504
                  -1622958.532 5  -1266069.599 5  23372889.117    23372892.051
        11.250          11.250
  21150771.7344    1946045.79447   1520036.51747                  21150775.0044
        25.0004         38.5004
  22645094.9144   -5753192.79046  -4357891.27846                  22645099.6484
        16.2504         17.5004
 95  4 13 16 19  0.0000000  0  6G18G19G27G28G29G31
  20345259.4144   -1671623.82148  -1248574.45147                  20345262.1684
        30.7504         39.2504
  21204051.3594   -2665276.52847  -2017774.96247                  21204054.9224
        25.2504         36.5004
  23401646.5944   -5340529.41846  -4054831.64445                  23401650.6604
        12.2504         10.0004
                  -1618704.909 5  -1262755.086 5  23373698.641    23373701.629
        11.250          11.250
  21155967.8834    1973351.15747   1541313.41747                  21155971.2464
        25.2504         38.5004
  22639802.0004   -5781005.86046  -4379563.77846                  22639806.7704
        16.2504         16.5004
 95  4 13 16 19 15.0000000  0  6G18G19G27G28G29G31
  20345839.5554   -1668575.71448  -1246199.30447                  20345842.3324
        30.7504         37.7504
  21202372.0164   -2674102.44547  -2024652.29147                  21202375.5434
        26.0004         38.5004
  23396133.4844   -5369501.13846  -4077406.99145                  23396137.7034
        12.0004          8.7504
                  -1614266.888 5  -1259296.886 5  23374543.195    23374546.316
        11.250          11.500
  21161193.5864    2000813.18747   1562712.39047                  21161197.0084
        25.0004         38.7504
  22634536.2424   -5808679.63646  -4401127.74846                  22634540.8014
        16.5004         15.7504
 95  4 13 16 19 30.0000000  0  6G18G19G27G28G29G31
  20346450.0864   -1665366.51648  -1243698.63048                  20346452.8404
        30.5004         39.5004
  21200708.5864   -2682842.61647  -2031462.80947                  21200711.9734
        25.7504         38.7504
  23390631.4694   -5398414.89246  -4099937.17645                  23390635.6294
        12.5004          9.5004
                  -1609644.422 5  -1255694.962 5  23375422.781    23375425.910
        11.500          11.500
  21166449.2344    2028431.34947   1584233.02947                  21166452.4574
        25.5004         39.0004
  22629296.4614   -5836212.52546  -4422581.92546                  22629301.1844
        16.5004         16.5004
 95  4 13 16 19 45.0000000  0  6G18G19G27G28G29G31
  20347091.0704   -1661998.29348  -1241074.04147                  20347093.9184
        30.2504         38.2504
  21199062.1094   -2691495.58647  -2038205.37747                  21199065.7074
        25.7504         38.0004
  23385140.0554   -5427271.98946  -4122423.21245                  23385144.3204
        12.0004          7.7504
                  -1604837.657 5  -1251949.431 5  23376337.461    23376340.523
        11.500          11.500
  21171734.5234    2056203.98747   1605874.03648                  21171737.6994
        25.7504         39.5004
  22624084.7584   -5863601.93546  -4443924.30846                  22624089.0704
        16.7504         17.2504
 95  4 13 16 20  0.0000000  0  6G18G19G27G28G29G31
  20347762.5394   -1658469.57748  -1238324.39247                  20347765.4104
        30.0004         37.0004
  21197432.3594   -2700059.55947  -2044878.59748                  21197435.9104
        25.7504         39.7504
  23379659.2974   -5456072.09446  -4144864.84845                  23379663.7384
        12.0004          8.2504
                  -1599847.460 5  -1248060.961 5  23377286.984    23377290.137
        11.500          11.500
  21177048.6414    2084129.46347   1627634.13848                  21177051.6524
        26.2504         39.7504
  22618901.0944   -5890842.05946  -4465150.36846                  22618905.3954
        16.7504         16.5004
 95  4 13 16 20 15.0000000  0  6G18G19G27G28G29G31
  20348465.2424   -1654776.75248  -1235446.86847                  20348468.0554
        30.2504         37.2504
  21195820.0784   -2708533.49347  -2051481.66447                  21195823.7934
        25.7504         38.2504
  23374190.4304   -5484812.87046  -4167260.23345                  23374194.5204
        12.2504          8.5004
                  -1594674.202 5  -1244029.846 5  23378271.602    23378274.605
        11.500          11.500
  21182391.2894    2112207.03147   1649512.75348                  21182394.4064
        26.0004         39.7504
  22613746.2504   -5917932.08146  -4486259.45346                  22613750.5514
        16.7504         16.7504
 95  4 13 16 20 30.0000000  0  6G18G19G27G28G29G31
  20349200.0314   -1650914.72148  -1232437.49547                  20349202.8674
        29.7504         37.2504
  21194225.0164   -2716914.67747  -2058012.45247                  21194228.7664
        25.5004         38.5004
  23368733.6024   -5513488.70446  -4189605.02645                  23368737.4104
        12.2504          8.0004
                  -1589314.989 5  -1239853.836 5  23379291.313    23379294.699
        11.500          11.500
  21187764.2664    2140440.57647   1671512.91348                  21187767.3484
        26.2504         39.7504
  22608620.2424   -5944866.00746  -4507246.91646                  22608624.8244
        16.5004         16.7504
 95  4 13 16 20 45.0000000  0  6G18G19G27G28G29G31
  20349967.0084   -1646884.13848  -1229296.78247                  20349969.8204
        29.7504         37.2504
  21192647.5554   -2725204.39047  -2064471.96647                  21192651.1994
        25.7504         39.2504
  23363288.4924   -5542100.24946  -4211899.71445                  23363292.0314
        12.5004          9.2504
                  -1583771.289 5  -1235534.064 5  23380346.219    23380349.379
        11.500          11.750
  21193166.1954    2168828.03247   1693632.99848                  21193169.2544
        26.2504         40.5004
  22603525.2344   -5971641.70246  -4528111.08046                  22603529.4884
        16.5004         15.5004
 95  4 13 16 21  0.0000000  0  6G18G19G27G28G29G31
  20350766.6954   -1642681.39048  -1226021.91447                  20350769.4614
        29.7504         37.5004
  21191088.1174   -2733399.74947  -2070857.96147                  21191091.7624
        25.7504         38.7504
  23357856.7274   -5570645.61746  -4234142.83845                  23357861.1804
        12.2504          8.7504
                  -1578041.836 5  -1231069.556 5  23381436.398    23381439.641
        11.250          11.500
  21198596.7664    2197365.99547   1715870.36447                  21198599.7664
        26.0004         39.0004
  22598460.1334   -5998259.09646  -4548851.89046                  22598464.4224
        17.0004         16.7504
 95  4 13 16 21 15.0000000  0  6G18G19G27G28G29G31
  20351599.2734   -1638306.60248  -1222612.99047                  20351602.0984
        29.7504         37.2504
  21189546.1884   -2741502.50147  -2077171.78647                  21189549.7854
        26.0004         37.2504
  23352436.9694   -5599125.26246  -4256334.75945                  23352441.3634
        12.2504         10.2504
                  -1572128.538 5  -1226461.789 5  23382561.734    23382564.887
        11.500          11.500
  21204055.3834    2226051.48447   1738222.68648                  21204058.3714
        26.0004         39.7504
  22593424.1564   -6024723.65246  -4569473.60946                  22593428.4574
        16.5004         16.5004
 95  4 13 16 21 30.0000000  0  6G18G19G27G28G29G31
  20352465.2894   -1633755.70348  -1219066.83547                  20352468.0554
        29.7504         37.2504
  21188022.7344   -2749507.71547  -2083409.61247                  21188026.2974
        25.7504         39.0004
  23347031.7584   -5627534.56746  -4278471.85845                  23347035.8244
        13.2504         10.0004
                  -1566029.610 5  -1221709.375 5  23383722.313    23383725.539
        11.250          11.750
  21209542.7424    2254888.25547   1760692.89047                  21209545.7774
        25.7504         39.2504
  22588417.7974   -6051034.91146  -4589975.87446                  22588421.9574
        16.5004         16.2504
 95  4 13 16 21 45.0000000  0  6G18G19G27G28G29G31
  20353365.0944   -1629027.80148  -1215382.75547                  20353367.9534
        30.0004         37.7504
  21186519.3284   -2757409.66747  -2089566.97047                  21186522.9024
        25.7504         38.7504
  23341639.2664   -5655869.99546  -4300551.40345                  23341643.5084
        13.0004         10.0004
                  -1559743.449 5  -1216811.064 5  23384918.672    23384921.781
        11.000          11.750
  21215059.6094    2283878.58347   1783282.74547                  21215062.8094
        25.7504         38.5004
  22583439.9774   -6077192.54846  -4610358.43146                  22583443.9384
        16.7504         15.5004
 95  4 13 16 22  0.0000000  0  6G18G19G27G28G29G31
  20354298.6414   -1624122.76048  -1211560.64647                  20354301.3714
        30.0004         37.5004
  21185035.7424   -2765205.57947  -2095641.70247                  21185039.2704
        25.7504         39.2504
  23336261.3284   -5684130.70846  -4322572.72145                  23336265.7344
        12.7504         10.0004
                  -1553270.508 5  -1211767.212 5  23386150.211    23386153.543
        11.250          11.750
  21220605.5944    2313023.09347   1805992.74747                  21220608.6294
        25.5004         38.2504
  22578490.7734   -6103198.05246  -4630622.44346                  22578494.7464
        16.2504         15.5004
 95  4 13 16 22 15.0000000  0  6G18G19G27G28G29G31
  20355265.0784   -1619043.45348  -1207602.74547                  20355267.8914
        30.0004         37.2504
  21183571.5394   -2772899.69047  -2101637.10847                  21183575.0314
        26.0004         39.0004
  23330897.6564   -5712318.92546  -4344537.55245                  23330901.5704
        13.2504          9.7504
                  -1546614.406 5  -1206580.634 5  23387416.992    23387420.074
        11.000          11.500
  21226180.9064    2342321.41047   1828822.59547                  21226183.9064
        25.5004         39.2504
  22573569.8984   -6129057.70846  -4650772.81046                  22573573.9534
        16.5004         15.7504
 95  4 13 16 22 30.0000000  0  6G18G19G27G28G29G31
  20356264.6024   -1613790.80848  -1203509.77447                  20356267.2624
        30.0004         36.7504
  21182126.9924   -2780490.88347  -2107552.32147                  21182130.3444
        26.0004         38.2504
  23325547.4614   -5740434.12446  -4366445.49345                  23325551.4224
        13.2504         10.7504
                  -1539772.392 5  -1201249.199 5  23388718.852    23388721.922
        11.250          11.250
  21231785.9924    2371776.87547   1851774.89947                  21231789.0274
        25.7504         37.7504
  22568677.0004   -6154770.78546  -4670808.95246                  22568681.0904
        17.0004         16.0004
 95  4 13 16 22 45.0000000  0  6G18G19G27G28G29G31
  20357297.0234   -1608366.96948  -1199283.40447                  20357299.7544
        30.0004         37.0004
  21180702.2114   -2787978.41847  -2113386.76048                  21180705.5164
        26.2504         39.7504
  23320210.6094   -5768476.68346  -4388296.81645                  23320214.5704
        13.0004          9.5004
                  -1532741.636 5  -1195770.678 5  23390056.758    23390059.855
        11.250          11.250
  21237421.2424    2401390.23947   1874850.23947                  21237424.3834
        25.5004         39.2504
  22563812.4924   -6180334.15046  -4690728.44746                  22563816.7114
        16.7504         16.0004
 95  4 13 16 23  0.0000000  0  6G18G19G27G28G29G31
  20358360.8134   -1602775.52648  -1194926.43847                  20358363.5554
        29.7504         37.2504
  21179296.8674   -2795363.01347  -2119140.98747                  21179300.2194
        26.0004         39.2504
  23314888.2114   -5796447.22846  -4410092.03645                  23314892.5944
        13.0004         10.7504
                  -1525523.437 5  -1190146.107 5  23391430.344    23391433.578
        11.000          11.250
  21243086.4454    2431159.64247   1898047.17047                  21243089.6804
        25.7504         38.7504
  22558975.8674   -6205751.55246  -4710534.19846                  22558979.8524
        17.2504         16.7504
 95  4 13 16 23 15.0000000  0  6G18G19G27G28G29G31
  20359456.2894   -1597018.29648  -1190440.28247                  20359459.0204
        30.0004         37.0004
  21177910.3834   -2802648.44447  -2124817.94348                  21177913.7114
        26.0004         40.2504
  23309579.3284   -5824345.42946  -4431830.88645                  23309583.3714
        13.0004         10.5004
                  -1518119.583 5  -1184376.870 5  23392839.219    23392842.449
        11.250          11.250
  21248781.2734    2461086.52147   1921366.81047                  21248784.5204
        25.7504         37.7504
  22554166.2504   -6231027.36646  -4730229.62146                  22554170.1294
        17.7504         17.2504
 95  4 13 16 23 30.0000000  0  6G18G19G27G28G29G31
  20360583.2974   -1591096.00448  -1185825.50947                  20360586.1214
        29.7504         38.0004
  21176542.4924   -2809838.35947  -2130420.47248                  21176545.7734
        26.2504         39.5004
  23304284.3674   -5852171.12246  -4453513.22145                  23304288.6804
        12.7504          9.2504
                  -1510529.944 5  -1178462.865 5  23394283.625    23394286.590
        11.250          11.250
  21254506.9844    2491175.27747   1944812.58447                  21254510.2544
        25.7504         38.7504
  22549383.4534   -6256159.74446  -4749813.27846                  22549387.5664
        18.0004         17.2504
 95  4 13 16 23 45.0000000  0  6G18G19G27G28G29G31
  20361742.1884   -1585005.14248  -1181079.38447                  20361745.1764
        29.5004         35.2504
  21175192.3834   -2816932.30347  -2135948.21748                  21175195.7584
        26.0004         40.0004
  23299003.3984   -5879920.61846  -4475136.19345                  23299007.7344
        12.5004         11.0004
                  -1502751.250 5  -1172401.538 5  23395763.867    23395766.875
        11.250          11.250
  21260263.9064    2521429.02547   1968386.92347                  21260267.1414
        25.5004         38.5004
  22544629.5084   -6281142.59346  -4769280.41546                  22544633.4344
        18.2504         18.5004
 95  4 13 16 24  0.0000000  0  6G18G19G27G28G29G31
  20362932.7974   -1578748.60148  -1176204.15647                  20362935.7854
        29.2504         36.5004
  21173859.3834   -2823937.65647  -2141406.92747                  21173862.9344
        26.2504         39.2504
  23293737.1884   -5907595.96446  -4496701.38645                  23293741.6764
        13.0004         10.7504
                  -1494785.403 5  -1166194.382 5  23397279.570    23397282.938
        11.250          11.500
  21266052.0944    2551845.63047   1992088.16147                  21266055.3054
        25.5004         38.0004
  22539903.6024   -6305976.89446  -4788631.81146                  22539907.4694
        18.2504         17.2504
 95  4 13 16 24 15.0000000  0  6G18G19G27G28G29G31
  20364155.4064   -1572324.69148  -1171198.51247                  20364158.5474
        29.2504         36.2504
  21172542.4694   -2830857.15047  -2146798.74148                  21172546.0784
        26.0004         39.5004
  23288485.3594   -5935197.25746  -4518208.87545                  23288489.0634
        13.5004         11.0004
                  -1486631.427 5  -1159840.632 5  23398831.219    23398834.820
        11.250          11.500
  21271871.5784    2582427.50747   2015918.18647                  21271874.8244
        25.2504         37.0004
  22535206.5234   -6330659.47546  -4807864.97146                  22535210.1914
        18.5004         17.7504
 95  4 13 16 24 30.0000000  0  6G18G19G27G28G29G31
  20365409.8444   -1565731.70748  -1166061.12347                  20365412.9384
        29.0004         36.0004
  21171241.6954   -2837692.70247  -2152125.13947                  21171245.4454
        25.7504         38.7504
  23283246.9694   -5962723.43646  -4539657.83845                  23283251.2464
        13.5004         10.5004
                  -1478288.632 5  -1153339.755 5  23400419.039    23400422.371
        11.500          11.500
  21277722.3364    2613173.65447   2039876.21447                  21277725.7344
        25.2504         38.2504
  22530538.9924   -6355187.49846  -4826977.69846                  22530542.9654
        18.5004         18.5004
 95  4 13 16 24 45.0000000  0  6G18G19G27G28G29G31
  20366697.4614   -1558966.05948  -1160789.19247                  20366700.5434
        29.5004         36.5004
  21169957.2274   -2844443.21047  -2157385.27547                  21169960.9304
        25.7504         38.7504
  23278023.6484   -5990174.74146  -4561048.44845                  23278027.6334
        13.7504         11.2504
                  -1469755.376 5  -1146690.460 5  23402042.781    23402045.930
        11.250          11.500
  21283604.4694    2644083.96747   2063962.17047                  21283607.6684
        25.5004         37.5004
  22525901.4064   -6379557.89446  -4845967.60146                  22525905.3794
        18.2504         18.2504
 95  4 13 16 25  0.0000000  0  6G18G19G27G28G29G31
  20368018.2274   -1552025.23948  -1155380.76047                  20368021.2034
        29.2504         36.7504
  21168687.9694   -2851111.83047  -2162581.59547                  21168691.7894
        25.7504         39.0004
  23272813.2974   -6017551.81446  -4582381.22545                  23272817.1524
        13.2504         10.5004
                  -1461033.618 5  -1139894.286 5  23403702.555    23403705.629
        11.500          11.500
  21289517.7894    2675157.95047   2088175.66347                  21289520.8594
        26.0004         37.7504
  22521293.3914   -6403772.65646  -4864836.23046                  22521297.6334
        18.0004         17.7504
 95  4 13 16 25 15.0000000  0  6G18G19G27G28G29G31
  20369372.6564   -1544907.67648  -1149834.61047                  20369375.7154
        29.2504         37.2504
  21167434.2114   -2857700.61347  -2167715.71147                  21167438.0084
        25.5004         39.0004
  23267617.3054   -6044855.79046  -4603657.02245                  23267621.8164
        12.7504         10.2504
                  -1452126.860 5  -1132953.952 5  23405397.258    23405400.535
        11.250          11.750
  21295461.7344    2706393.79847   2112515.27847                  21295464.5594
        26.0004         37.2504
  22516714.5634   -6427835.31446  -4883586.33846                  22516718.6294
        17.7504         18.5004
 95  4 13 16 25 30.0000000  0  6G18G19G27G28G29G31
  20370760.4224   -1537614.09348  -1144151.29547                  20370763.3054
        29.7504         37.0004
  21166195.7504   -2864210.40047  -2172788.26948                  21166199.5004
        25.5004         39.7504
  23262434.7424   -6072091.32046  -4624879.50845                  23262438.9734
        12.5004         10.2504
                  -1443036.438 5  -1125870.506 5  23407127.070    23407130.316
        11.000          11.750
  21301436.3134    2737789.69947   2136979.61247                  21301439.1024
        26.5004         38.5004
  22512164.6724   -6451745.11346  -4902217.32746                  22512168.8204
        17.7504         18.0004
 95  4 13 16 25 45.0000000  0  6G18G19G27G28G29G31
  20372182.0944   -1530143.91248  -1138330.37647                  20372184.9064
        29.7504         37.2504
  21164973.2274   -2870635.54247  -2177794.87447                  21164976.9304
        26.0004         38.0004
  23257264.9614   -6099259.51046  -4646049.50645                  23257268.8634
        12.7504         10.7504
                  -1433760.668 5  -1118642.636 5  23408892.258    23408895.477
        11.000          11.500
  21307441.3054    2769346.33047   2161569.19147                  21307444.1294
        26.5004         38.7504
  22507644.2974   -6475497.85546  -4920725.94046                  22507648.4104
        17.7504         17.5004
 95  4 13 16 26  0.0000000  0  6G18G19G27G28G29G31
  20373637.2974   -1522496.77548  -1132371.57347                  20373640.1454
        29.5004         37.5004
  21163766.7894   -2876972.40947  -2182732.68547                  21163770.4924
        25.5004         39.0004
  23252107.8984   -6126360.86846  -4667167.43445                  23252112.0124
        13.2504         11.0004
                  -1424298.717 5  -1111269.689 5  23410692.742    23410696.055
        11.250          11.500
  21313476.9924    2801063.50047   2186283.86047                  21313479.9694
        26.5004         38.7504
  22503154.4064   -6499094.49646  -4939112.91746                  22503158.4844
        17.7504         18.0004
 95  4 13 16 26 15.0000000  0  6G18G19G27G28G29G31
  20375126.0634   -1514673.27948  -1126275.34347                  20375128.9224
        29.5004         37.5004
  21162578.8674   -2883216.11347  -2187597.90647                  21162582.6174
        25.0004         38.2504
  23246963.3914   -6153396.25046  -4688233.95045                  23246966.8594
        13.7504         11.0004
                  -1414649.038 5  -1103750.457 5  23412528.969    23412531.973
        11.000          11.250
  21319543.3914    2832944.51747   2211126.20948                  21319546.3204
        26.5004         39.5004
  22498693.8284   -6522534.72746  -4957378.01146                  22498697.8594
        17.7504         17.2504
 95  4 13 16 26 30.0000000  0  6G18G19G27G28G29G31
  20376648.7504   -1506671.61048  -1120040.27847                  20376651.7624
        29.5004         36.5004
  21161408.3834   -2889365.92747  -2192389.96447                  21161412.3674
        25.0004         38.5004
  23241830.6024   -6180369.15346  -4709251.78845                  23241834.1524
        13.5004         11.0004
                  -1404812.752 5  -1096085.818 5  23414400.922    23414403.773
        11.250          11.250
  21325641.5394    2864988.49647   2236095.54047                  21325644.5984
        26.5004         39.2504
  22494263.5084   -6545817.28946  -4975520.24746                  22494267.4804
        17.7504         17.7504
 95  4 13 16 26 45.0000000  0  6G18G19G27G28G29G31
  20378205.0084   -1498493.40148  -1113667.64847                  20378207.9144
        29.7504         35.7504
  21160256.6254   -2895421.04147  -2197108.23348                  21160260.4694
        25.7504         39.5004
  23236708.8204   -6207280.85246  -4730221.92945                  23236712.9454
        13.0004         11.0004
                  -1394790.714 5  -1088276.438 5  23416307.977    23416310.969
        11.250          11.250
  21331769.4694    2897192.84547   2261189.83348                  21331772.6564
        26.0004         40.0004
  22489862.9224   -6568941.92046  -4993539.42546                  22489866.7774
        18.0004         16.7504
 95  4 13 16 27  0.0000000  0  6G18G19G27G28G29G31
  20379794.0704   -1490141.40248  -1107159.60247                  20379797.0124
        29.2504         36.7504
  21159121.9224   -2901382.24847  -2201753.32748                  21159125.5434
        25.7504         39.5004
  23231599.0864   -6234132.90946  -4751145.59545                  23231603.4694
        12.7504         11.0004
                  -1384583.504 5  -1080322.769 5  23418250.250    23418253.465
        11.000          11.250
  21337928.3054    2929557.42947   2286408.98247                  21337931.4224
        26.0004         39.2504
  22485492.1644   -6591910.74746  -5011437.20046                  22485496.0664
        18.2504         18.7504
 95  4 13 16 27 15.0000000  0  6G18G19G27G28G29G31
  20381416.0704   -1481618.16248  -1100518.11447                  20381418.9414
        29.2504         36.0004
  21158006.2584   -2907245.90147  -2206322.40447                  21158009.8914
        25.7504         39.2504
  23226501.1484   -6260923.24046  -4772021.16945                  23226505.7074
        13.2504         10.7504
                  -1374188.968 5  -1072223.137 5  23420228.523    23420231.633
        11.250          11.250
  21344117.5864    2962082.85747   2311753.46147                  21344120.6564
        25.7504         39.0004
  22481151.6884   -6614719.94146  -5029210.57646                  22481155.6724
        18.2504         18.5004
 95  4 13 16 27 30.0000000  0  6G18G19G27G28G29G31
  20383069.4384   -1472929.92848  -1093748.06647                  20383072.2734
        29.2504         36.2504
  21156908.8914   -2913012.64547  -2210815.96847                  21156912.5824
        25.7504         39.2504
  23221413.6804   -6287657.11446  -4792852.73345                  23221418.3674
        13.2504         10.7504
                  -1363609.310 5  -1063979.246 5  23422241.789    23422244.902
        11.500          11.500
  21350336.6644    2994763.99047   2337219.27447                  21350339.8054
        25.7504         38.0004
  22476840.8984   -6637371.37846  -5046861.02846                  22476844.9064
        18.2504         17.7504
 95  4 13 16 27 45.0000000  0  6G18G19G27G28G29G31
  20384753.6644   -1464078.91948  -1086851.17447                  20384756.6174
        29.0004         36.0004
  21155829.6884   -2918683.64247  -2215234.92548                  21155833.3324
        25.5004         39.7504
  23216337.2194   -6314335.70346  -4813641.23945                  23216342.0594
        13.0004         10.5004
                  -1352844.244 5  -1055590.887 5  23424290.414    23424293.414
        11.500          11.500
  21356585.1564    3027598.79247   2362804.82947                  21356588.2734
        25.5004         38.0004
  22472561.0474   -6659864.04946  -5064387.77446                  22472564.9964
        18.5004         18.7504
 95  4 13 16 28  0.0000000  0  6G18G19G27G28G29G31
  20386470.0634   -1455060.38348  -1079823.74747                  20386472.9224
        29.2504         37.0004
  21154769.1414   -2924257.41547  -2219578.11948                  21154772.7154
        25.7504         39.5004
  23211272.0704   -6340953.22746  -4834382.14645                  23211276.8404
        13.0004         11.2504
                  -1341890.020 5  -1047055.133 5  23426374.703    23426377.969
        11.250          11.500
  21362862.6954    3060588.54347   2388511.12247                  21362865.6724
        25.5004         37.7504
  22468311.5084   -6682195.71546  -5081789.05446                  22468315.3634
        18.2504         18.7504
 95  4 13 16 28 15.0000000  0  6G18G19G27G28G29G31
  20388218.3524   -1445873.33048  -1072665.00647                  20388221.3054
        29.2504         36.5004
  21153726.3364   -2929737.76847  -2223848.52647                  21153729.8984
        26.0004         39.2504
  23206218.0704   -6367511.56446  -4855076.94145                  23206222.1134
        13.0004         10.7504
                  -1330749.112 5  -1038373.911 5  23428494.797    23428497.938
        11.250          11.750
  21369169.0554    3093728.40147   2414334.38147                  21369172.1484
        25.0004         36.2504
  22464092.2894   -6704367.89546  -5099066.06346                  22464096.3204
        18.0004         18.7504
 95  4 13 16 28 30.0000000  0  6G18G19G27G28G29G31
  20389999.2894   -1436514.92348  -1065372.73947                  20390002.2894
        29.5004         36.2504
  21152700.2814   -2935128.38547  -2228048.99848                  21152703.9614
        25.5004         39.5004
  23201175.1024   -6394012.72946  -4875727.18445                  23201178.9924
        13.2504         11.2504
                  -1319423.342 5  -1029548.635 5  23430649.977    23430653.094
        11.250          11.500
  21375502.9924    3127013.58247   2440270.88047                  21375506.1454
        25.2504         36.2504
  22459903.5234   -6726377.84146  -5116216.64946                  22459907.5664
        18.0004         19.0004
 95  4 13 16 28 45.0000000  0  6G18G19G27G28G29G31
  20391813.2034   -1426982.43048  -1057944.82347                  20391816.1564
        29.5004         36.0004
  21151691.4694   -2940429.93347  -2232180.07947                  21151695.1024
        25.5004         39.2504
  23196143.7664   -6420452.65746  -4896329.71945                  23196147.8674
        13.5004         11.0004
                  -1307911.876 5  -1020578.665 5  23432840.563    23432843.586
        11.250          11.250
  21381863.9304    3160442.11347   2466319.07647                  21381867.1644
        24.5004         35.7504
  22455745.7974   -6748224.91846  -5133240.33546                  22455749.8284
        18.0004         18.5004
 95  4 13 16 29  0.0000000  0  6G18G19G27G28G29G31
  20393659.3284   -1417280.73848  -1050385.06847                  20393662.2234
        29.5004         37.0004
  21150698.8364   -2945645.72747  -2236244.32547                  21150702.4104
        25.5004         39.2504
  23191123.3364   -6446832.00246  -4916885.03646                  23191127.6954
        13.0004         12.0004
                  -1296217.028 5  -1011465.799 5  23435066.148    23435069.133
        11.250          11.500
  21388252.1644    3194011.47247   2492477.01147                  21388255.2814
        24.5004         35.0004
  22451618.6024   -6769916.05046  -5150142.49746                  22451622.5634
        18.0004         18.7504
 95  4 13 16 29 15.0000000  0  6G18G19G27G28G29G31
  20395537.8914   -1407406.57248  -1042690.91447                  20395540.6914
        29.2504         36.0004
  21149723.4144   -2950772.59247  -2240239.27747                  21149727.0474
        25.7504         39.2504
  23186115.9454   -6473149.62346  -4937392.25945                  23186120.1414
        13.5004         10.5004
                  -1284336.711 5  -1002208.410 5  23437326.742    23437330.082
        11.500          11.500
  21394667.2974    3227723.13447   2518745.83247                  21394670.4384
        24.7504         35.7504
  22447520.7274   -6791449.13546  -5166921.51046                  22447524.8984
        17.7504         18.2504
 95  4 13 16 29 30.0000000  0  6G18G19G27G28G29G31
  20397450.9614   -1397354.73948  -1034858.31747                  20397453.9844
        29.2504         36.0004
  21148765.1954   -2955807.11347  -2244162.27547                  21148768.6994
        25.2504         38.5004
  23181120.1954   -6499402.39746  -4957848.95845                  23181124.0864
        13.7504         11.7504
                  -1272269.389 5   -992805.303 5  23439623.055    23439626.598
        11.250          11.750
  21401109.8594    3261578.97047   2545126.99447                  21401113.0124
        25.0004         35.2504
  22443453.7504   -6812819.97146  -5183574.09146                  22443457.9454
        17.7504         18.5004
 95  4 13 16 29 45.0000000  0  6G18G19G27G28G29G31
  20399397.8204   -1387124.10948  -1026886.39947                  20399400.8914
        29.0004         36.2504
  21147824.1564   -2960752.71247  -2248015.99048                  21147827.6844
        25.5004         39.5004
  23176135.9774   -6525591.42846  -4978255.98145                  23176139.8444
        13.2504         10.2504
                  -1260018.546 5   -983259.190 5  23441954.445    23441957.711
        11.250          11.750
  21407579.6884    3295576.97947   2571618.93947                  21407582.6414
        25.2504         36.5004
  22439417.3524   -6834034.20146  -5200104.64946                  22439421.8164
        18.0004         19.0004
 95  4 13 16 30  0.0000000  0  6G18G19G27G28G29G31
  20401379.8594   -1376709.45648  -1018771.09047                  20401382.8834
        29.2504         35.7504
  21146900.8134   -2965606.02547  -2251797.78947                  21146904.4804
        25.7504         38.5004
  23171166.0004   -6551710.04546  -4998608.13845                  23171170.0664
        13.5004         10.5004
                  -1247580.742 5   -973567.400 5  23444321.266    23444324.430
        11.000          11.750
  21414077.4774    3329724.39547   2598227.30447                  21414080.5354
        25.2504         37.5004
  22435410.9224   -6855088.00746  -5216510.18946                  22435414.9184
        18.2504         19.5004
 95  4 13 16 30 15.0000000  0  6G18G19G27G28G29G31
  20403396.8674   -1366109.23448  -1010511.17747                  20403399.9734
        29.2504         36.2504
  21145995.4924   -2970364.10247  -2255505.37247                  21145999.0204
        25.5004         38.7504
  23166209.9774   -6577756.77146  -5018904.28246                  23166214.7234
        13.5004         12.2504
                  -1234954.877 5   -963729.068 5  23446723.703    23446727.195
        11.250          11.750
  21420604.8674    3364024.84647   2624954.92347                  21420607.8324
        25.2504         37.0004
  22431435.5864   -6875977.79346  -5232787.93146                  22431439.7464
        18.5004         20.7504
 95  4 13 16 30 30.0000000  0  7G 2G18G19G27G28G29G31
  24583914.977      -27600.41415
         8.000
  20405447.5474   -1355332.13048  -1002113.43947                  20405450.6054
        29.0004         36.5004
  21145107.0084   -2975032.28347  -2259142.91947                  21145110.5704
        25.5004         38.7504
  23161265.4144   -6603737.03846  -5039148.63046                  23161270.0434
        13.5004         12.2504
                  -1222147.045 5   -953748.947 6  23449161.195    23449164.652
        11.250          12.000
  21427160.2584    3398474.20047   2651798.56247                  21427163.3754
        25.2504         37.5004
  22427490.5704   -6896709.10246  -5248942.17846                  22427495.0004
        18.0004         19.7504
 95  4 13 16 30 45.0000000  0  7G 2G18G19G27G28G29G31
  24576767.8834     -65157.77245
         8.2504
  20407531.7584   -1344379.54248   -993578.95347                  20407534.7814
        29.0004         37.5004
  21144236.0084   -2979607.95447  -2262708.36847                  21144239.6414
        25.0004         37.7504
  23156335.3134   -6629646.11246  -5059337.50946                  23156339.4964
        13.7504         12.0004
                  -1209153.631 5   -943624.213 6  23451633.680    23451637.000
        11.250          12.000
  21433745.2504    3433078.37547   2678762.84847                  21433748.6024
        25.5004         38.2504
  22423575.9844   -6917281.30546  -5264972.45846                  22423580.3204
        18.2504         20.5004
 95  4 13 16 31  0.0000000  0  7G 2G18G19G27G28G29G31
  24569638.8754    -102620.21445
         8.0004
  20409648.8984   -1333254.40448   -984910.02047                  20409651.8404
        29.5004         36.7504
  21143383.1414   -2984090.20047  -2266201.02647                  21143386.8444
        25.2504         39.0004
  23151418.9144   -6655482.74546  -5079469.94245                  23151423.1214
        14.0004         11.7504
                  -1195974.137 5   -933354.485 5  23454141.734    23454145.012
        11.500          11.750
  21440360.3914    3467840.84647   2705850.47747                  21440363.5784
        25.2504         37.2504
  22419690.3204   -6937697.32346  -5280881.02246                  22419694.8794
        18.0004         20.2504
 95  4 13 16 31 15.0000000  0  7G 2G18G19G27G28G29G31
  24562526.7734    -139991.77345    -21346.51953                  24562532.6214
         8.0004          2.5004
  20411798.4454   -1321959.22148   -976108.58247                  20411801.3524
        29.5004         36.0004
  21142547.8204   -2988479.93647  -2269621.59348                  21142551.5124
        25.2504         39.5004
  23146515.2194   -6681251.97846  -5099549.86145                  23146519.5904
        14.0004         11.5004
                  -1182611.254 5   -922941.851 5  23456684.617    23456687.793
        11.500          11.750
  21447005.3754    3502758.64647   2733059.14647                  21447008.5044
        25.7504         37.2504
  22415834.9774   -6957958.60546  -5296669.02246                  22415839.1374
        18.2504         20.5004
 95  4 13 16 31 30.0000000  0  7G 2G18G19G27G28G29G31
  24555433.4614    -177270.54945    -50394.89743                  24555438.7344
         8.0004          2.7504
  20413981.2664   -1310489.61848   -967171.23247                  20413984.3014
        29.5004         35.5004
  21141730.6804   -2992774.09647  -2272967.68947                  21141734.2424
        25.2504         38.5004
  23141624.4694   -6706950.82046  -5119574.91645                  23141628.7814
        13.7504         10.7504
                  -1169062.749 5   -912384.577 5  23459262.898    23459266.180
        11.500          11.750
  21453679.7734    3537834.85747   2760391.25047                  21453682.8794
        25.5004         36.5004
  22412010.2344   -6978059.11846  -5312331.74446                  22412014.2774
        18.2504         20.5004
 95  4 13 16 31 45.0000000  0  7G 2G18G19G27G28G29G31
  24548357.5474    -214457.04145    -79371.35643                  24548363.1024
         8.2504          3.2504
  20416196.2734   -1298847.77048   -958099.66647                  20416199.3204
        29.2504         36.7504
  21140930.7974   -2996977.49947  -2276243.06447                  21140934.5234
        25.2504         38.2504
  23136747.2584   -6732579.98846  -5139545.69145                  23136751.5594
        13.7504         11.2504
                  -1155331.416 5   -901684.845 5  23461875.695    23461878.902
        11.250          11.750
  21460384.6804    3573067.88447   2787845.54747                  21460387.5634
        25.5004         36.7504
  22408214.7194   -6998003.54946  -5327872.84746                  22408218.8674
        18.0004         19.5004
 95  4 13 16 32  0.0000000  0  7G 2G18G19G27G28G29G31
  24541298.5864    -251551.23845   -108275.90044                  24541303.4494
         8.2504          4.0004
  20418444.0164   -1287036.52048   -948896.09547                  20418447.0744
        29.2504         36.5004
  21140148.0084   -3001090.67247  -2279448.13747                  21140151.6524
        25.2504         37.5004
  23131883.6334   -6758140.02146  -5159462.59846                  23131887.8874
        13.7504         12.0004
                  -1141417.316 5   -890842.694 5  23464523.500    23464526.883
        11.250          11.750
  21467119.2344    3608459.20147   2815423.18847                  21467122.2344
        25.7504         36.0004
  22404449.2664   -7017791.82846  -5343292.26346                  22404453.4964
        18.5004         21.2504
 95  4 13 16 32 15.0000000  0  7G 2G18G19G27G28G29G31
  24534257.7424    -288550.39545   -137106.37643                  24534262.9804
         8.0004          3.0004
  20420723.8914   -1275055.18548   -939559.99447                  20420726.8674
        29.0004         36.7504
  21139382.3674   -3005113.89847  -2282583.11047                  21139386.1054
        25.2504         38.2504
  23127033.1024   -6783628.51146  -5179323.74245                  23127037.2384
        14.0004         11.0004
                  -1127318.538 5   -879856.642 5  23467206.602    23467209.719
        11.250          11.750
  21473884.3674    3644009.59547   2843124.78647                  21473887.3094
        25.5004         37.5004
  22400714.2584   -7037419.91546  -5358586.87046                  22400718.3954
        18.5004         21.0004
 95  4 13 16 32 30.0000000  0  7G 2G18G19G27G28G29G31
  24527235.6644    -325453.73745   -165862.19945                  24527240.1414
         8.5004          5.2504
  20423036.6174   -1262902.20548   -930090.14347                  20423039.6054
        29.0004         36.2504
  21138634.1254   -3009046.33747  -2285647.34447                  21138637.9224
        25.0004         37.7504
  23122197.2894   -6809044.41446  -5199128.34046                  23122201.3914
        14.2504         12.2504
                  -1113033.046 5   -868725.094 5  23469924.766    23469927.988
        11.000          11.750
  21480679.5634    3679718.39547   2870949.81347                  21480682.5044
        25.7504         36.7504
  22397009.6884   -7056887.18546  -5373756.16046                  22397013.4734
        18.5004         20.7504
 95  4 13 16 32 45.0000000  0  7G 2G18G19G27G28G29G31
  24520230.4694    -362266.51445   -194547.44245                  24520235.2034
         8.7504          5.0004
  20425381.6414   -1250578.57148   -920487.31547                  20425384.6644
        29.2504         36.5004
  21137902.2504   -3012892.54947  -2288644.39048                  21137905.9884
        25.2504         39.7504
  23117374.0474   -6834389.49546  -5218877.75245                  23117378.4654
        14.2504         11.5004
                  -1098563.148 5   -857449.858 5  23472678.375    23472681.445
        11.000          11.500
  21487504.7274    3715584.39947   2898897.34447                  21487507.7624
        25.5004         37.5004
  22393335.0084   -7076198.96646  -5388804.28946                  22393338.8754
        19.0004         20.5004
 95  4 13 16 33  0.0000000  0  7G 2G18G19G27G28G29G31
  24513241.2194    -398991.62945   -223164.37144                  24513245.7544
         8.2504          3.5004
  20427759.3594   -1238083.83148   -910751.15647                  20427762.2304
        29.5004         36.5004
  21137186.8754   -3016651.91947  -2291573.76547                  21137190.5664
        25.2504         38.0004
  23112563.6804   -6859666.74046  -5238574.28946                  23112568.0984
        13.7504         13.0004
                  -1083908.940 5   -846030.994 5  23475466.906    23475470.066
        11.000          11.500
  21494359.5944    3751606.95147   2926966.85547                  21494362.6174
        25.5004         37.0004
  22389689.2274   -7095356.22646  -5403732.00546                  22389693.1294
        18.7504         21.5004
 95  4 13 16 33 15.0000000  0  7G 2G18G19G27G28G29G31
  24506268.5314    -435631.29045   -251714.76045                  24506273.4184
         8.2504          5.0004
  20430170.0474   -1225416.38448   -900880.42347                  20430172.9304
        29.5004         36.2504
  21136488.4774   -3020322.41547  -2294433.88747                  21136492.0394
        25.5004         39.0004
  23107766.0314   -6884878.32746  -5258219.67246                  23107770.0634
        14.2504         13.0004
                  -1069071.546 5   -834469.400 5  23478290.234    23478293.688
        11.000          11.500
  21501243.7814    3787784.14047   2955156.86647                  21501246.7344
        25.2504         35.0004
  22386073.0084   -7114360.54446  -5418540.55446                  22386077.0514
        18.7504         22.0004
 95  4 13 16 33 30.0010000  0  7G 2G18G19G27G28G29G31
  24499313.8254    -472185.75345   -280198.73443                  24499319.9894
         8.2504          3.2504
  20432614.0994   -1212572.66448   -890872.32947                  20432616.9464
        29.5004         36.2504
  21135807.6384   -3023900.17447  -2297221.74547                  21135811.2944
        25.2504         38.7504
  23102981.6614   -6910023.24946  -5277813.10646                  23102985.6574
        14.2504         12.7504
                  -1054046.837 5   -822761.836 5  23481149.427    23481152.692
        10.750          11.500
  21508158.7164    3824122.38947   2983472.37547                  21508161.7164
        25.0004         35.2504
  22382486.4194   -7133207.85946  -5433226.76946                  22382490.2284
        19.0004         20.7504
 95  4 13 16 33 45.0010000  0  7G 2G18G19G27G28G29G31
  24492374.0364    -508649.18645   -308611.78643                  24492379.0054
         8.2504          3.0004
  20435090.7164   -1199558.60348   -880731.50547                  20435093.5754
        29.5004         36.2504
  21135143.8884   -3027388.29547  -2299939.75547                  21135147.5444
        25.2504         37.5004
  23098208.9974   -6935098.90446  -5297352.56246                  23098213.4504
        14.0004         12.5004
                  -1038838.116 5   -810910.892 5  23484043.724    23484046.821
        11.000          11.500
  21515103.0994    3860615.59247   3011908.62747                  21515106.2284
        24.7504         35.2504
  22378929.9814   -7151897.13546  -5447789.82446                  22378933.8374
        19.0004         21.7504
 95  4 13 16 34  0.0010000  0  7G 2G18G19G27G28G29G31
  24485451.0604    -545027.49345   -336958.49243                  24485455.9704
         8.2504          3.2504
  20437598.8254   -1186378.26248   -870461.11247                  20437601.6384
        29.5004         37.5004
  21134496.6224   -3030789.52547  -2302590.05947                  21134500.1854
        25.2504         38.2504
  23093450.0214   -6960109.90546  -5316841.63846                  23093454.3214
        14.5004         13.5004
                  -1023447.070 5   -798917.873 5  23486972.489    23486975.712
        11.250          11.250
  21522076.6384    3897261.17947   3040463.62347                  21522080.0134
        24.5004         34.7504
  22375402.6854   -7170432.44946  -5462232.91446                  22375406.6814
        18.7504         20.7504
 95  4 13 16 34 15.0010000  0  7G 2G18G19G27G28G29G31
  24478544.7244    -581319.67145   -365238.07145                  24478549.6924
         8.2504          5.2504
  20440138.9194   -1173029.33648   -860059.35547                  20440141.6854
        29.5004         36.2504
  21133866.0284   -3034103.08747  -2305172.05647                  21133869.6854
        25.5004         37.2504
  23088703.4424   -6985055.59446  -5336279.84646                  23088707.1694
        14.7504         13.0004
                  -1007871.620 5   -786781.163 5  23489936.560    23489939.642
        11.250          11.250
  21529078.7634    3934058.65547   3069136.96647                  21529082.0914
        24.0004         34.5004
  22371905.1384   -7188810.69346  -5476553.61846                  22371909.1574
        19.0004         21.5004
 95  4 13 16 34 30.0010000  0  7G 2G18G19G27G28G29G31
  24471655.8804    -617523.25645   -393448.63845                  24471660.9424
         8.7504          4.5004
  20442711.1854   -1159511.71748   -849526.14947                  20442714.0564
        29.5004         36.0004
  21133252.3884   -3037328.87347  -2307685.65047                  21133255.9504
        25.5004         39.2504
  23083968.2944   -7009937.89646  -5355668.63846                  23083971.9854
        14.5004         12.0004
                   -992111.219 5   -774500.337 5  23492935.661    23492938.759
        11.250          11.250
  21536109.8414    3971007.11947   3097927.96747                  21536113.1104
        24.2504         33.0004
  22368438.1774   -7207031.77946  -5490751.85746                  22368442.2554
        19.0004         21.5004
 95  4 13 16 34 45.0010000  0  7G 2G18G19G27G28G29G31
  24464783.5214    -653638.13245   -421590.06045                  24464788.4314
         8.7504          4.7504
  20445315.5054   -1145826.68348   -838862.48847                  20445318.4464
        29.2504         37.0004
  21132655.0674   -3040466.25947  -2310130.36547                  21132658.5834
        24.7504         38.5004
  23079244.7634   -7034761.05846  -5375011.35045                  23079248.3964
        14.7504         11.7504
                   -976167.554 5   -762076.708 5  23495969.552    23495972.751
        11.000          11.250
  21543169.2474    4008104.31147   3126834.85947                  21543172.3994
        24.0004         33.7504
  22365000.8334   -7225096.95746  -5504828.60246                  22365004.9814
        19.2504         22.0004
 95  4 13 16 35  0.0010000  0  7G 2G18G19G27G28G29G31
  24457928.8104    -689659.02145   -449658.25545                  24457933.8374
         8.7504          4.7504
  20447951.6924   -1131972.39248   -828066.93647                  20447954.5874
        29.0004         36.7504
  21132075.8024   -3043511.26447  -2312503.09347                  21132079.3884
        25.5004         38.7504
  23074532.1534   -7059525.04246  -5394307.94846                  23074535.5634
        15.0004         12.7504
                   -960038.118 5   -749508.328 5  23499038.778    23499041.981
        11.000          11.250
  21550256.4424    4045349.54447   3155857.10847                  21550259.6884
        23.7504         33.5004
  22361593.6064   -7243000.17046  -5518779.15546                  22361597.4154
        19.2504         22.0004
 95  4 13 16 35 15.0010000  0  7G 2G18G19G27G28G29G31
  24451091.8254    -725588.08045   -477654.91444                  24451096.7944
         9.0004          4.2504
  20450619.9894   -1117951.58648   -817141.63847                  20450622.8374
        29.2504         35.7504
  21131513.2944   -3046466.40847  -2314805.79347                  21131517.0324
        25.2504         38.5004
  23069830.2554   -7084233.80546  -5413561.52246                  23069833.9704
        15.0004         12.7504
                   -943726.504 5   -736797.989 5  23502142.950    23502145.935
        11.250          11.250
  21557371.1774    4082735.90947   3184989.32447                  21557374.3534
        24.0004         33.5004
  22358217.5674   -7260741.67446  -5532603.69146                  22358221.3644
        19.2504         21.5004
 95  4 13 16 35 30.0010000  0  7G 2G18G19G27G28G29G31
  24444274.0834    -761417.63745   -505574.05145                  24444278.9234
         9.0004          4.5004
  20453321.1694   -1103755.32248   -806079.62047                  20453324.0634
        29.0004         35.5004
  21130968.8494   -3049328.05147  -2317035.64547                  21130972.4934
        25.2504         38.7504
  23065140.1774   -7108879.34046  -5432765.81646                  23065144.0674
        15.0004         12.7504
                   -927227.456 5   -723941.592 5  23505282.716    23505285.657
        11.500          11.250
  21564513.5444    4120269.28147   3214236.09947                  21564516.6734
        24.2504         33.5004
  22354874.1534   -7278309.90446  -5546293.21146                  22354877.9624
        19.5004         21.5004
 95  4 13 16 35 45.0010000  0  7G 2G18G19G27G28G29G31
  24437473.1854    -797155.08545   -533421.37045                  24437478.2004
         9.2504          5.5004
  20456054.4274   -1089392.00248   -794887.42547                  20456057.3564
        29.0004         36.2504
  21130439.8564   -3052109.31647  -2319202.85747                  21130443.4784
        25.7504         39.2504
  23060460.8254   -7133468.67046  -5451926.32146                  23060464.5994
        15.0004         13.2504
                   -910549.683 5   -710945.929 5  23508456.341    23508459.403
        11.250          11.250
  21571681.8964    4157938.15447   3243588.45547                  21571684.9894
        24.7504         34.5004
  22351563.5054   -7295710.04946  -5559851.76246                  22351567.1034
        19.5004         21.7504
 95  4 13 16 36  0.0010000  0  7G 2G18G19G27G28G29G31
  24430691.3964    -832794.44145   -561192.28345                  24430695.7554
         9.5004          5.0004
  20458821.3024   -1074852.95748   -783558.30047                  20458824.2554
        29.0004         36.2504
  21129926.2714   -3054806.78647  -2321304.78247                  21129929.8214
        25.5004         38.2504
  23055793.7634   -7157995.98946  -5471038.50745                  23055797.3604
        14.7504         11.5004
                   -893688.185 5   -697807.104 5  23511664.950    23511668.083
        11.250          11.000
  21578876.6924    4195746.83947   3273049.76047                  21578879.6574
        24.7504         34.0004
  22348284.8804   -7312937.65046  -5573275.85846                  22348288.7354
        19.5004         21.2504
 95  4 13 16 36 15.0010000  0  7G 2G18G19G27G28G29G31
  24423928.4584    -868333.92445   -588885.38045                  24423933.4154
         9.5004          6.0004
  20461622.1304   -1060134.51648   -772089.39047                  20461625.1884
        29.5004         36.0004
  21129429.4034   -3057418.21447  -2323339.65847                  21129432.9194
        25.7504         39.0004
  23051138.3494   -7182460.10346  -5490101.43846                  23051141.8174
        14.7504         12.5004
                   -876641.697 5   -684524.132 5  23514908.614    23514912.169
        11.250          11.250
  21586098.0524    4233695.99247   3302620.51647                  21586101.0874
        25.0004         35.0004
  22345039.1774   -7329993.58646  -5586566.19346                  22345043.0094
        19.2504         19.5004
 95  4 13 16 36 30.0010000  0  7G 2G18G19G27G28G29G31
  24417183.9584    -903778.02745   -616504.14145                  24417190.3214
         9.5004          5.5004
  20464455.4814   -1045245.10248   -760487.25147                  20464458.3644
        29.2504         36.7504
  21128947.8414   -3059948.83647  -2325311.57047                  21128951.3804
        25.5004         38.2504
  23046492.9504   -7206870.31746  -5509122.39246                  23046496.5714
        14.5004         12.5004
                   -859417.811 5   -671102.930 5  23518186.396    23518189.599
        11.250          11.250
  21593345.2944    4271780.47847   3332296.72847                  21593348.5054
        24.7504         35.0004
  22341824.7244   -7346886.64446  -5599729.61146                  22341828.2514
        19.7504         20.5004
 95  4 13 16 36 45.0010000  0  7G 2G18G19G27G28G29G31
  24410457.2634    -939121.94345   -644044.82745                  24410462.4544
         9.2504          5.2504
  20467322.6224   -1030178.29248   -748746.88147                  20467325.4704
        29.2504         35.5004
  21128482.8254   -3062393.20347  -2327216.26647                  21128486.3294
        25.5004         39.2504
  23041859.4664   -7231221.77846  -5528097.52746                  23041863.3804
        14.7504         13.0004
                   -842012.810 5   -657540.594 5  23521498.380    23521501.767
        11.250          11.500
  21600619.2864    4310005.44647   3362082.40947                  21600622.3104
        24.7504         33.5004
  22338641.9744   -7363611.35846  -5612761.84546                  22338645.8174
        19.5004         21.7504
 95  4 13 16 37  0.0010000  0  7G 2G18G19G27G28G29G31
  24403750.4974    -974363.91445   -671506.10045                  24403756.3564
         8.7504          5.0004
  20470224.6694   -1014929.00148   -736864.31747                  20470227.4934
        29.5004         36.0004
  21128034.5284   -3064747.86147  -2329051.06147                  21128038.1854
        25.2504         35.7504
  23037238.0674   -7255507.07346  -5547021.13145                  23037242.1104
        14.7504         10.5004
                   -824422.854 5   -643834.137 5  23524845.575    23524849.040
        11.000          11.500
  21607920.7244    4348374.74447   3391980.55447                  21607923.8414
        24.5004         32.0004
  22335491.7474   -7380165.66346  -5625661.29646                  22335495.3804
        19.7504         20.5004
 95  4 13 16 37 15.0010000  0  7G 2G18G19G27G28G29G31
  24397063.6614   -1009506.10945   -698889.60745                  24397069.1694
         8.7504          4.5004
  20473160.3644    -999500.22448   -724841.89547                  20473163.1654
        29.2504         36.7504
  21127603.0284   -3067016.15947  -2330818.56347                  21127606.5794
        25.7504         39.2504
  23032629.2004   -7279725.60746  -5565892.69846                  23032633.3724
        14.5004         13.7504
                   -806650.732 5   -629985.729 5  23528227.685    23528231.087
        11.250          11.750
  21615250.0674    4386888.57447   3421991.31747                  21615253.1964
        24.7504         33.2504
  22332373.5444   -7396552.35146  -5638430.13946                  22332377.1884
        19.5004         20.2504
 95  4 13 16 37 30.0010000  0  7G 2G18G19G27G28G29G31
  24390395.6464   -1044547.89745   -726194.86744                  24390401.1424
         9.0004          4.2504
  20476130.8724    -983890.48848   -712678.46647                  20476133.6144
        29.2504         36.0004
  21127187.4664   -3069198.78547  -2332519.30747                  21127190.9464
        25.5004         37.7504
  23028033.8494   -7303872.92546  -5584708.78145                  23028038.1734
        14.7504         11.7504
                   -788696.567 5   -615995.476 5  23531644.341    23531647.544
        11.250          11.750
  21622606.2944    4425549.20847   3452116.47647                  21622609.4464
        24.2504         32.7504
  22329286.6224   -7412774.41546  -5651070.70046                  22329290.4664
        19.5004         20.5004
 95  4 13 16 37 45.0010000  0  7G 2G18G19G27G28G29G31
  24383746.8254   -1079486.56045   -753419.79045                  24383752.7674
         8.7504          5.2504
  20479135.2634    -968102.18048   -700375.89147                  20479138.0874
        29.2504         37.0004
  21126788.5134   -3071294.87947  -2334152.62447                  21126792.0994
        25.5004         38.0004
  23023453.5834   -7327944.52146  -5603465.85046                  23023458.0364
        14.5004         12.7504
                   -770558.220 5   -601861.703 5  23535095.825    23535099.052
        11.000          11.500
  21629991.6774    4464358.42147   3482357.41447                  21629994.7824
        24.2504         33.7504
  22326231.6064   -7428831.36946  -5663582.60546                  22326235.3804
        19.7504         21.2504
 95  4 13 16 38  0.0010000  0  7G 2G18G19G27G28G29G31
  24377116.6614   -1114327.48445   -780568.55545                  24377122.0874
         8.7504          5.2504
  20482172.4664    -952141.38548   -687938.91147                  20482175.4544
        29.0004         36.5004
  21126405.7864   -3073307.67747  -2335721.03847                  21126409.2554
        25.5004         37.5004
  23018886.1614   -7351946.35746  -5622168.56746                  23018890.1464
        15.0004         13.0004
                   -752239.312 5   -587587.242 5  23538581.692    23538584.927
        10.750          11.500
  21637404.1694    4503312.43647   3512711.17647                  21637407.3454
        24.2504         33.2504
  22323205.7164   -7444730.48846  -5675971.52446                  22323209.5364
        19.5004         22.2504
 95  4 13 16 38 15.0010000  0  7G 2G18G19G27G28G29G31
  24370505.8414   -1149068.97245   -807639.80945                  24370511.2204
         9.0004          5.0004
  20485242.3724    -936010.02648   -675369.02747                  20485245.4894
        29.0004         36.5004
  21126039.3884   -3075232.93247  -2337221.23147                  21126042.7164
        25.7504         38.5004
  23014332.3254   -7375879.53246  -5640817.78746                  23014335.9584
        15.2504         13.2504
                   -733737.885 5   -573170.550 5  23542102.544    23542105.646
        10.750          11.500
  21644845.4894    4542415.85047   3543181.35747                  21644848.5954
        24.5004         33.5004
  22320210.2944   -7460471.50046  -5688237.23846                  22320214.1494
        19.7504         21.7504
 95  4 13 16 38 30.0010000  0  7G 2G18G19G27G28G29G31
  24363912.7864   -1183714.42345   -834636.26045                  24363918.9974
         8.7504          4.7504
  20488343.6464    -919712.49448   -662669.65347                  20488346.9274
        29.0004         36.5004
  21125689.8804   -3077070.80147  -2338653.33547                  21125693.3024
        25.7504         38.0004
  23009789.9194   -7399748.34846  -5659416.85546                  23009793.6574
        15.0004         12.2504
                   -715055.737 5   -558613.039 5  23545657.458    23545660.688
        11.000          11.250
  21652315.1854    4581668.89847   3573768.13747                  21652318.3024
        24.5004         32.5004
  22317244.9114   -7476053.73146  -5700379.22446                  22317248.9194
        19.5004         22.5004
 95  4 13 16 38 45.0010000  0  7G 2G18G19G27G28G29G31
  24357337.9354   -1218263.99645   -861557.98845                  24357343.9464
         8.5004          4.7504
  20491477.0604    -903245.27648   -649838.05947                  20491480.4354
        28.5004         35.7504
  21125356.9814   -3078819.43747  -2340015.90747                  21125360.2394
        26.0004         38.7504
  23005260.3724   -7423550.07746  -5677963.63946                  23005264.1814
        15.2504         13.5004
                   -696190.034 5   -543912.492 5  23549247.544    23549250.575
        11.000          11.250
  21659814.1224    4621076.00847   3604474.95947                  21659817.4034
        24.2504         32.7504
  22314311.4194   -7491469.73746  -5712391.69446                  22314315.4034
        19.5004         20.2504
 95  4 13 16 39  0.0010000  0  7G 2G18G19G27G28G29G31
  24350780.6464   -1252722.66445   -888408.86544                  24350786.5634
         8.5004          3.7504
  20494642.5994    -886611.16648   -636876.42247                  20494645.8454
        28.7504         36.5004
  21125040.0914   -3080483.36647  -2341312.47147                  21125043.4664
        25.5004         37.7504
  23000744.1534   -7447285.50046  -5696458.75846                  23000748.3134
        15.5004         13.5004
                   -677143.101 5   -529070.729 5  23552872.224    23552875.263
        11.250          11.250
  21667341.8724    4660634.01247   3635299.36447                  21667345.2004
        24.0004         33.0004
  22311409.2314   -7506721.00746  -5724275.79246                  22311412.7594
        19.7504         21.2504
 95  4 13 16 39 15.0010000  0  7G 2G18G19G27G28G29G31
  24344241.4974   -1287088.07145   -915187.10845                  24344246.7124
         9.0004          4.5004
  20497838.8254    -869814.51848   -623788.12647                  20497842.0484
        28.5004         36.5004
  21124740.3334   -3082060.31047  -2342541.25848                  21124743.5914
        26.0004         39.5004
  22996239.0134   -7470955.25046  -5714902.70646                  22996243.3724
        14.7504         13.2504
                   -657913.573 5   -514086.678 5  23556531.481    23556534.450
        11.000          11.250
  21674898.1694    4700343.89747   3666242.12647                  21674901.5914
        23.7504         33.2504
  22308538.9504   -7521804.48346  -5736029.13946                  22308542.6064
        19.5004         20.5004
 95  4 13 16 39 30.0010000  0  7G 2G18G19G27G28G29G31
  24337719.4354   -1321361.99645   -941894.03844                  24337725.2474
         9.0004          4.0004
  20501065.5364    -852858.46148   -610575.61947                  20501068.7474
        28.5004         36.5004
  21124456.1534   -3083553.12847  -2343704.49147                  21124459.3174
        26.2504         38.0004
  22991746.4744   -7494564.66246  -5733299.64646                  22991751.1144
        14.7504         14.2504
                   -638503.941 5   -498962.293 5  23560224.911    23560228.091
        11.000          11.500
  21682483.7864    4740205.31947   3697302.96347                  21682487.2084
        24.0004         33.0004
  22305700.9424   -7536719.68146  -5747651.36146                  22305704.6694
        19.7504         21.0004
 95  4 13 16 39 45.0010000  0  7G 2G18G19G27G28G29G31
  24331214.0524   -1355546.72045   -968531.44844                  24331219.3964
         9.0004          4.2504
  20504322.6464    -835742.63548   -597238.61747                  20504325.8214
        28.5004         36.2504
  21124188.3964   -3084961.20347  -2344801.68847                  21124191.4664
        26.0004         37.0004
  22987264.8334   -7518116.21446  -5751651.48946                  22987269.0054
        15.0004         13.0004
                   -618912.830 5   -483696.492 5  23563953.083    23563956.325
        11.000          11.250
  21690097.8964    4780219.02947   3728482.46347                  21690101.5174
        23.5004         33.5004
  22302894.7554   -7551464.58146  -5759140.88346                  22302898.6924
        19.5004         20.5004
 95  4 13 16 40  0.0010000  0  7G 2G18G19G27G28G29G31
  24324726.3724   -1389637.80045   -995095.92545                  24324732.3604
         9.0004          5.5004
  20507611.5054    -818458.78848   -583770.68747                  20507614.7044
        28.5004         36.5004
  21123937.8644   -3086277.54947  -2345827.40847                  21123940.9464
        26.2504         38.2504
  22982794.3804   -7541608.91446  -5769957.48246                  22982798.5754
        15.0004         12.7504
                   -599134.102 5   -468284.496 5  23567716.833    23567719.958
        11.000          11.500
  21697742.4114    4820392.24447   3759786.25247                  21697746.0674
        23.2504         31.2504
  22300122.6614   -7566030.66146  -5770491.06846                  22300126.4354
        19.0004         20.7504
 95  4 13 16 40 15.0010000  0  7G 2G18G19G27G28G29G31
  24318255.7634   -1423643.57045  -1021593.92245                  24318261.4934
         9.2504          5.2504
  20510931.8254    -801010.45448   -570174.58647                  20510935.0014
        28.5004         36.5004
  21123703.8884   -3087506.02847  -2346784.65947                  21123707.2164
        25.5004         37.7504
  22978333.1924   -7565052.94446  -5788225.54146                  22978337.2124
        15.2504         13.5004
                   -579175.375 5   -452732.241 5  23571514.567    23571518.017
        10.750          11.000
  21705416.9034    4860720.43147   3791210.80447                  21705420.2904
        23.2504         32.2504
  22297383.4664   -7580426.79046  -5781708.82146                  22297387.3104
        19.2504         20.0004
 95  4 13 16 40 30.0010000  0  7G 2G18G19G27G28G29G31
  24311801.1464   -1457561.59045  -1048023.51745                  24311806.8414
         9.5004          5.7504
  20514284.0914    -783394.50648   -556447.87847                  20514287.3024
        28.5004         36.7504
  21123487.3494   -3088642.94147  -2347670.56347                  21123490.7124
        25.7504         38.7504
  22973882.1464   -7588443.55246  -5806451.97846                  22973886.0604
        15.2504         12.7504
                   -559035.288 5   -437038.664 5  23575347.271    23575350.606
        11.000          11.250
  21713120.9034    4901205.62047   3822757.69247                  21713124.2314
        23.0004         32.7504
  22294676.1464   -7594651.00746  -5792792.61146                  22294679.9424
        19.0004         20.5004
 95  4 13 16 40 45.0010000  0  7G 2G18G19G27G28G29G31
  24305363.8644   -1491390.94245  -1074384.03245                  24305369.5484
         9.7504          5.2504
  20517668.9354    -765606.29648   -542586.93747                  20517672.0404
        28.5004         36.7504
  21123288.5524   -3089689.25347  -2348485.86647                  21123292.0214
        26.0004         37.5004
  22969441.9744   -7611777.25346  -5824634.06846                  22969445.8294
        15.2504         13.7504
                   -538714.436 5   -421204.237 5  23579214.302    23579217.372
        11.000          10.750
  21720854.3884    4941844.59947   3854424.41847                  21720857.7164
        23.2504         31.0004
  22292002.7084   -7608701.34046  -5803740.91146                  22292006.4584
        19.0004         20.5004
 95  4 13 16 41  0.0010000  0  7G 2G18G19G27G28G29G31
  24298944.1304   -1525127.17845  -1100671.98245                  24298949.3454
         9.7504          5.0004
  20521087.3024    -747642.88648   -528589.47647                  20521090.3964
        28.7504         36.5004
  21123106.4744   -3090645.00247  -2349230.60547                  21123109.8604
        25.5004         37.7504
  22965012.8104   -7635049.89346  -5842768.56946                  22965016.8764
        15.2504         12.7504
                   -518211.166 5   -405227.662 5  23583115.833    23583118.997
        10.750          11.000
  21728616.5994    4982634.41047   3886208.67347                  21728619.9854
        23.7504         31.2504
  22289362.4114   -7622576.51346  -5814552.72146                  22289366.3134
        19.2504         22.0004
 95  4 13 16 41 15.0010000  0  7G 2G18G19G27G28G29G31
  24292542.2714   -1558769.75745  -1126886.97745                  24292548.0604
         9.7504          5.2504
  20524538.7784    -729505.83948   -514456.71147                  20524541.8374
        28.7504         35.7504
  21122941.6854   -3091511.50147  -2349905.79447                  21122945.0714
        25.5004         36.7504
  22960596.0914   -7658262.42046  -5860856.24646                  22960600.0754
        15.7504         14.2504
                   -497526.991 5   -389110.116 5  23587051.849    23587055.009
        10.750          10.750
  21736406.7084    5023572.57447   3918108.52847                  21736410.0604
        23.7504         31.2504
  22286755.2004   -7636277.70046  -5825228.95846                  22286759.0564
        19.5004         21.7504
 95  4 13 16 41 30.0010000  0  7G 2G18G19G27G28G29G31
  24286158.9744   -1592316.56045  -1153027.32445                  24286164.5994
        10.0004          7.0004
  20528024.3804    -711189.35448   -500184.12847                  20528027.4504
        28.5004         36.7504
  21122794.2864   -3092286.83547  -2350509.94747                  21122797.7314
        25.7504         36.7504
  22956190.7474   -7681412.61346  -5878895.34746                  22956194.6964
        15.7504         14.5004
                   -476659.556 5   -372849.772 5  23591022.692    23591025.981
        10.750          10.750
  21744226.1224    5064662.02747   3950126.27647                  21744229.3334
        24.2504         32.0004
  22284181.8104   -7649801.75146  -5835767.16746                  22284185.5364
        19.7504         23.5004
 95  4 13 16 41 45.0010000  0  7G 2G18G19G27G28G29G31
  24279792.6694   -1625768.58545  -1179093.79245                  24279797.6264
        10.0004          5.7504
  20531545.0834    -692687.74848   -485767.29447                  20531548.1304
        28.2504         36.2504
  21122663.9894   -3092970.16847  -2351042.41247                  21122667.5284
        25.2504         38.2504
  22951797.2084   -7704498.13446  -5896884.05846                  22951801.2394
        15.2504         13.7504
                   -455607.998 5   -356445.958 5  23595028.536    23595032.024
        10.500          11.000
  21752073.7394    5105902.79447   3982261.92747                  21752077.0214
        24.2504         32.5004
  22281641.2244   -7663152.03647  -5846169.97746                  22281645.0794
        20.0004         22.2504
 95  4 13 16 42  0.0010000  0  7G 2G18G19G27G28G29G31
  24273444.2634   -1659127.65945  -1205087.87245                  24273449.9234
         9.5004          5.7504
  20535100.7004    -674003.64748   -471208.25847                  20535103.8414
        28.5004         37.2504
  21122550.8964   -3093564.47747  -2351505.51147                  21122554.4464
        25.2504         39.2504
  22947416.7864   -7727521.19446  -5914824.09646                  22947420.5014
        15.5004         14.5004
                   -434376.178 5   -339901.684 5  23599068.927    23599072.380
        10.500          10.750
  21759949.1534    5147288.57847   4014510.58047                  21759952.2474
        24.5004         32.2504
  22279132.9664   -7676334.91847  -5856442.34046                  22279136.9744
        20.0004         22.7504
 95  4 13 16 42 15.0010000  0  7G 2G18G19G27G28G29G31
  24267114.3024   -1692391.27545  -1231007.53945                  24267119.8564
         9.7504          6.0004
  20538690.7314    -655136.14348   -456506.31047                  20538693.8254
        28.0004         36.5004
  21122454.6384   -3094069.84647  -2351899.29847                  21122458.1774
        25.2504         38.5004
  22943047.4744   -7750480.93146  -5932714.78746                  22943051.3414
        15.7504         14.5004
                   -412964.136 5   -323216.976 5  23603143.552    23603146.903
        10.500          10.750
  21767852.0914    5188818.37247   4046871.45247                  21767855.2674
        24.2504         31.2504
  22276655.9424   -7689350.75547  -5866584.53546                  22276659.8924
        20.2504         23.0004
 95  4 13 16 42 30.0010000  0  7G 2G18G19G27G28G29G31
  24260803.3104   -1725558.62045  -1256852.19445                  24260808.2314
         9.7504          5.0004
  20542315.3564    -636088.76548   -441664.19947                  20542318.6264
        28.2504         36.2504
  21122375.3254   -3094487.59347  -2352224.81247                  21122378.8644
        25.5004         38.0004
  22938690.5444   -7773374.60546  -5950554.00546                  22938694.5404
        15.2504         13.7504
                   -391372.454 5   -306392.289 5  23607252.466    23607255.755
        10.500          10.500
  21775782.2164    5230489.83747   4079342.71247                  21775785.3684
        24.5004         31.5004
  22274210.8024   -7702199.24047  -5876596.32846                  22274214.5994
        20.0004         23.0004
 95  4 13 16 42 45.0010000  0  7G 2G18G19G27G28G29G31
  24254510.5674   -1758627.79445  -1282620.37545                  24254516.3684
         9.7504          6.0004
  20545974.2474    -616861.25548   -426681.72747                  20545977.5054
        28.2504         36.2504
  21122311.7784   -3094821.42847  -2352484.94147                  21122315.2824
        25.5004         37.5004
  22934346.3804   -7796203.08846  -5968342.42446                  22934350.7634
        15.2504         14.0004
                   -369600.930 5   -289427.463 5  23611395.372    23611398.458
        10.500          10.500
  21783737.9274    5272299.95847   4111922.01547                  21783741.1034
        24.2504         32.2504
  22271797.8724   -7714878.02347  -5886475.87946                  22271801.7514
        20.0004         22.7504
 95  4 13 16 43  0.0010000  0  7G 2G18G19G27G28G29G31
  24248236.3494   -1791598.61345  -1308311.88745                  24248241.7514
         9.7504          5.7504
  20549667.0834    -597455.06948   -411560.02547                  20549670.4704
        28.0004         35.7504
  21122264.0674   -3095071.55247  -2352679.84547                  21122267.7714
        25.2504         37.7504
  22930014.8724   -7818968.27646  -5986081.51846                  22930019.0094
        16.0004         14.2504
                   -347648.522 5   -272321.687 5  23615572.950    23615575.931
        10.750          10.250
  21791720.9114    5314248.55747   4144609.22647                  21791724.1224
        24.2504         31.2504
  22269417.5674   -7727386.86246  -5896223.01546                  22269421.4704
        19.7504         22.5004
 95  4 13 16 43 15.0010000  0  7G 2G18G19G27G28G29G31
  24241980.2944   -1824475.05345  -1333929.86945                  24241985.4504
         9.5004          6.0004
  20553392.8884    -577876.73948   -396304.18947                  20553396.3104
        28.0004         37.0004
  21122232.4424   -3095238.93447  -2352810.27047                  21122236.0404
        25.0004         38.2504
  22925694.1384   -7841672.95546  -6003773.46346                  22925698.0524
        16.0004         15.0004
                   -325516.813 5   -255076.196 5  23619784.403    23619787.571
        10.500          10.500
  21799730.1774    5356337.43747   4177405.74347                  21799733.4234
        24.2504         32.7504
  22267068.8334   -7739730.91647  -5905841.74746                  22267072.5834
        20.2504         23.5004
 95  4 13 16 43 30.0010000  0  7G 2G18G19G27G28G29G31
  24235742.1534   -1857257.67745  -1359474.75945                  24235747.4624
         9.7504          5.5004
  20557151.0754    -558127.77248   -380915.38747                  20557154.4504
        28.5004         36.7504
  21122217.0214   -3095319.67047  -2352873.17947                  21122220.3844
        25.7504         38.0004
  22921384.9194   -7864316.84646  -6021418.04446                  22921388.9744
        15.7504         15.0004
                   -303204.964 5   -237690.334 5  23624030.114    23624033.294
        10.500          10.500
  21807766.7634    5398570.90047   4210314.92247                  21807769.9744
        24.2504         31.7504
  22264751.1694   -7751910.61947  -5915332.40846                  22264754.7314
        20.2504         22.5004
 95  4 13 16 43 45.0010000  0  7G 2G18G19G27G28G29G31
  24229521.9424   -1889944.76845  -1384945.19245                  24229527.4384
         9.7504          5.7504
  20560941.6924    -538206.95948   -365392.67747                  20560944.8334
        28.7504         37.5004
  21122218.5914   -3095312.64247  -2352867.69847                  21122222.0604
        25.5004         36.7504
  22917087.9194   -7886899.69046  -6039015.05546                  22917091.8454
        16.0004         14.2504
                   -280712.192 5   -220163.498 5  23628310.333    23628313.704
        10.500          10.750
  21815830.9354    5440948.72647   4243336.59147                  21815834.0874
        24.0004         32.5004
  22262464.1774   -7763927.59947  -5924696.27346                  22262467.8924
        20.0004         22.5004
 95  4 13 16 44  0.0010000  0  7G 2G18G19G27G28G29G31
  24223319.7394   -1922537.60645  -1410342.20345                  24223324.9894
        10.0004          5.0004
  20564764.8104    -518117.52748   -349738.57947                  20564768.0214
        28.7504         38.0004
  21122235.9664   -3095219.66747  -2352795.24947                  21122239.4584
        25.2504         37.0004
  22912802.3494   -7909422.03546  -6056564.92446                  22912806.0174
        16.2504         15.2504
                   -258040.778 5   -202497.466 5  23632624.583    23632627.974
        10.500          10.750
  21823922.1064    5483468.15547   4276468.60147                  21823925.3994
        23.7504         31.5004
  22260207.9974   -7775782.42147  -5933933.79046                  22260211.8644
        20.0004         22.7504
 95  4 13 16 44 15.0010000  0  7G 2G18G19G27G28G29G31
  24217136.2244   -1955032.95945  -1435663.21445                  24217141.7784
        10.0004          6.5004
  20568619.9354    -497858.86548   -333952.61147                  20568623.1574
        28.5004         37.7504
  21122270.5214   -3095039.26347  -2352654.67447                  21122274.0134
        25.7504         38.7504
  22908528.0524   -7931881.58946  -6074065.86846                  22908531.8844
        15.7504         13.7504
                   -235188.122 5   -184690.202 5  23636973.271    23636976.438
        10.500          10.750
  21832041.1614    5526133.34747   4309714.19547                  21832044.5134
        23.7504         32.2504
  22257985.3804   -7787465.66247  -5943037.60046                  22257989.2474
        20.2504         22.5004
 95  4 13 16 44 30.0010000  0  7G 2G18G19G27G28G29G31
  24210970.2944   -1987432.88945  -1460909.87745                  24210975.4504
        10.2504          5.5004
  20572506.3564    -477433.97248   -318037.11147                  20572509.5564
        28.2504         36.5004
  21122321.3104   -3094771.88947  -2352446.32947                  21122324.8134
        25.2504         37.5004
  22904265.5284   -7954278.86446  -6091518.28846                  22904269.7124
        15.5004         14.7504
                   -212155.866 5   -166742.990 5  23641356.224    23641359.524
        10.750          10.750
  21840187.5674    5568943.02147   4343072.36847                  21840190.8374
        23.5004         31.5004
  22255794.8804   -7798974.96447  -5952005.87346                  22255798.5134
        20.5004         22.5004
 95  4 13 16 44 45.0010000  0  7G 2G18G19G27G28G29G31
  24204822.5604   -2019741.79745  -1486085.63545                  24204827.6694
        10.2504          5.0004
  20576424.2474    -456845.47348   -301994.12447                  20576427.4934
        28.2504         37.0004
  21122388.3334   -3094419.32447  -2352171.60247                  21122391.9074
        25.2504         38.5004
  22900015.2714   -7976614.44746  -6108922.62746                  22900019.2554
        15.7504         15.2504
                   -188947.259 5   -148658.365 5  23645772.755    23645775.720
        10.750          10.750
  21848360.7554    5611893.91247   4376540.58047                  21848364.0484
        23.2504         31.5004
  22253637.0524   -7810314.32147  -5960841.72146                  22253640.7904
        20.5004         23.0004
 95  4 13 16 45  0.0010000  0  7G 2G18G19G27G28G29G31
  24198691.9274   -2051957.32445  -1511188.62445                  24198697.4234
        10.2504          5.0004
  20580374.3564    -436088.68848   -285820.01047                  20580377.4504
        28.5004         37.2504
  21122472.4274   -3093977.76447  -2351827.52647                  21122476.0364
        25.5004         38.0004
  22895777.2474   -7998884.63946  -6126276.02246                  22895781.3254
        15.7504         14.7504
                   -165559.536 5   -130434.157 5  23650223.427    23650226.454
        11.000          11.000
  21856561.4354    5654990.37247   4410122.22547                  21856564.6924
        22.7504         30.2504
  22251512.4664   -7821479.64647  -5969541.96746                  22251516.2744
        20.5004         22.7504
 95  4 13 16 45 15.0010000  0  7G 2G18G19G27G28G29G31
  24192578.2784   -2084083.70945  -1536222.14145                  24192584.1264
        10.2504          6.0004
  20584355.8024    -415165.65648   -269516.35247                  20584358.8604
        28.5004         37.7504
  21122573.1464   -3093446.81647  -2351413.79947                  21122576.7434
        25.0004         38.0004
  22891552.4664   -8021087.15546  -6143576.67446                  22891556.3564
        15.5004         14.5004
                   -141994.628 5   -112071.891 5  23654707.599    23654710.821
        11.000          11.000
  21864790.2474    5698231.56347   4443816.64547                  21864793.7164
        22.5004         30.0004
  22249420.5754   -7832471.74347  -5978107.22746                  22249424.3254
        20.5004         22.7504
 95  4 13 16 45 30.0010000  0  7G 2G18G19G27G28G29G31
  24186482.4354   -2116118.14345  -1561184.03945                  24186486.9464
        10.2504          7.0004
  20588369.9194    -394072.49348   -253080.12647                  20588372.9074
        28.5004         37.0004
  21122691.5214   -3092825.43147  -2350929.60147                  21122694.9784
        25.0004         37.5004
  22887340.4194   -8043220.87246  -6160823.72046                  22887344.4744
        15.7504         15.5004
                   -118252.046 5    -93571.175 5  23659225.786    23659229.095
        11.000          11.000
  21873046.4814    5741618.32047   4477624.50047                  21873049.9504
        23.0004         30.0004
  22247362.3174   -7843287.70747  -5986535.23946                  22247365.7984
        20.2504         23.0004
 95  4 13 16 45 45.0010000  0  7G 2G18G19G27G28G29G31
  24180405.3104   -2148055.07245  -1586069.93245                  24180410.5714
        11.0004          5.2504
  20592417.7004    -372800.32848   -236504.41147                  20592420.7714
        28.5004         36.5004
  21122827.6924   -3092110.93747  -2350372.85447                  21122831.1614
        25.0004         38.5004
  22883142.3174   -8065281.62946  -6178013.90846                  22883146.6184
        15.2504         15.0004
                    -94327.077 5    -74928.338 5  23663778.552    23663781.563
        11.250          10.750
  21881331.1384    5785153.00947   4511547.61847                  21881334.5484
        23.0004         29.7504
  22245339.1224   -7853919.55947  -5994819.79046                  22245342.8024
        20.2504         22.2504
 95  4 13 16 46  0.0010000  0  7G 2G18G19G27G28G29G31
  24174345.8104   -2179896.96045  -1610881.78345                  24174350.7904
        11.0004          7.2504
  20596499.6694    -351349.59048   -219789.55447                  20596502.7514
        28.5004         37.2504
  21122980.4894   -3091306.85747  -2349746.29447                  21122983.9464
        25.2504         37.2504
  22878958.1304   -8087272.44646  -6195149.61546                  22878962.0094
        15.7504         15.7504
                    -70222.014 5    -56145.165 5  23668365.646    23668368.692
        11.250          11.000
  21889642.8804    5828833.00347   4545583.96347                  21889646.3374
        23.0004         29.2504
  22243350.7474   -7864369.22747  -6002962.37346                  22243354.4744
        20.2504         21.5004
 95  4 13 16 46 15.0010000  0  7G 2G18G19G27G28G29G31
  24168304.6854   -2211643.17245  -1635619.06945                  24168309.6534
        10.7504          6.7504
  20600615.7164    -329719.90548   -202935.25547                  20600618.9744
        28.5004         37.0004
  21123150.9814   -3090410.12747  -2349047.54347                  21123154.5674
        24.7504         36.7504
  22874786.7474   -8109193.37646  -6212230.84146                  22874790.6034
        16.2504         15.2504
                    -45935.543 5    -37220.640 5  23672987.067    23672990.185
        11.250          11.000
  21897983.2634    5872660.84247   4579735.51247                  21897986.8024
        23.0004         29.2504
  22241396.9354   -7874634.73846  -6010961.46746                  22241400.8494
        19.7504         21.0004
 95  4 13 16 46 30.0010000  0  7G 2G18G19G27G28G29G31
  24162280.7084   -2243295.17145  -1660282.94845                  24162285.9934
        11.0004          6.0004
  20604765.0754    -307914.44248   -185943.99247                  20604768.2394
        28.2504         35.7504
  21123339.3024   -3089421.73547  -2348277.36947                  21123342.9584
        25.0004         37.2504
  22870627.9274   -8131047.68546  -6229260.16946                  22870631.3374
        16.0004         14.7504
                    -21469.727 5    -18156.366 5  23677642.786    23677646.040
        11.000          11.000
  21906350.9194    5916632.42447   4613999.06947                  21906354.3764
        23.2504         30.0004
  22239477.7634   -7884720.34946  -6018820.36946                  22239481.6534
        19.5004         22.2504
 95  4 13 16 46 45.0010000  0  7G 2G18G19G27G28G29G31
  24156275.5604   -2274855.37745  -1684875.29045                  24156281.0444
        11.0004          6.2504
  20608947.6534    -285933.97247   -168816.35447                  20608950.8884
        27.7504         37.0004
  21123544.7784   -3088342.61547  -2347436.49547                  21123548.3064
        25.5004         37.5004
  22866481.9744   -8152835.57546  -6246237.73646                  22866485.7004
        16.5004         15.2504
                      3174.419 5      1046.860 5  23682332.317    23682335.720
        11.000          11.000
  21914744.8644    5960744.36447   4648371.99247                  21914748.2744
        22.7504         29.5004
  22237591.9114   -7894631.75346  -6026543.54046                  22237595.7674
        19.7504         22.5004
 95  4 13 16 47  0.0010000  0  7G 2G18G19G27G28G29G31
  24150288.2084   -2306322.62845  -1709395.20345                  24150294.0444
        11.2504          6.0004
  20613163.9424    -263776.93348   -151551.12947                  20613167.1774
        28.0004         38.0004
  21123767.0284   -3087173.90747  -2346525.81147                  21123770.5794
        25.0004         36.7504
  22862348.3884   -8174558.35946  -6263164.56546                  22862352.2434
        16.5004         15.2504
                     27998.594 5     20390.371 5  23687056.200    23687059.669
        11.000          11.250
  21923166.2784    6004999.52047   4682856.52047                  21923169.7354
        22.7504         29.2504
  22235738.9814   -7904369.42947  -6034131.32746                  22235742.8134
        20.0004         23.0004
 95  4 13 16 47 15.0010000  0  7G 2G18G19G27G28G29G31
  24144317.0914   -2337697.92145  -1733843.46745                  24144322.9504
        11.2504          6.7504
  20617413.1464    -241447.84548   -134151.84647                  20617416.2514
        28.5004         38.7504
  21124005.9274   -3085918.54047  -2345547.59947                  21124009.5604
        25.0004         38.5004
  22858225.9424   -8196222.22746  -6280045.49846                  22858229.9384
        16.5004         15.2504
                     53000.666 5     39872.506 5  23691813.989    23691817.396
        11.000          11.250
  21931614.7004    6049395.27047   4717450.59947                  21931618.1924
        23.0004         30.5004
  22233918.9974   -7913933.17147  -6041583.58446                  22233922.8534
        20.2504         23.0004
 95  4 13 16 47 30.0010000  0  7G 2G18G19G27G28G29G31
  24138365.3024   -2368975.11845  -1758215.29145                  24138370.3064
        11.0004          7.7504
  20621695.2394    -218946.61448   -116618.42147                  20621698.3104
        28.5004         38.7504
  21124261.3884   -3084575.76847  -2344501.28847                  21124265.0914
        24.7504         38.0004
  22854114.0444   -8217828.01946  -6296881.16746                  22854118.0754
        16.2504         15.2504
                     78183.490 5     59495.484 5  23696606.052    23696609.317
        10.750          11.000
  21940090.0214    6093932.78147   4752155.13747                  21940093.7354
        23.0004         29.5004
  22232132.2314   -7923322.23047  -6048899.72946                  22232136.0524
        20.5004         23.0004
 95  4 13 16 47 45.0010000  0  7G 2G18G19G27G28G29G31
  24132431.2864   -2400157.44445  -1782513.19345                  24132436.8294
        10.5004          6.2504
  20626008.4814    -196279.17448    -98955.48447                  20626011.5054
        28.2504         39.0004
  21124532.4744   -3083151.84447  -2343391.73547                  21124536.1304
        25.5004         37.5004
  22850012.4354   -8239383.01946  -6313677.26946                  22850016.2314
        16.5004         15.0004
                    103542.532 5     79255.781 5  23701431.700    23701434.743
        10.750          10.750
  21948591.3644    6138608.49747   4786967.36947                  21948594.9624
        22.7504         30.2504
  22230378.2394   -7932540.11247  -6056082.48146                  22230381.9544
        20.7504         23.0004
 95  4 13 16 48  0.0010000  0  7G 2G18G19G27G28G29G31
  24126516.4814   -2431240.03745  -1806733.37645                  24126521.5214
        10.5004          7.0004
  20630354.2944    -173441.36848    -81159.79047                  20630357.5634
        28.2504         38.2504
  21124820.0914   -3081640.05347  -2342213.71147                  21124823.8294
        25.2504         37.5004
  22845921.4504   -8260882.06746  -6330429.76346                  22845924.9314
        16.7504         15.0004
                    129083.494 5     99157.828 5  23706291.817    23706295.185
        10.500          10.750
  21957120.2474    6183426.81547   4821890.71747                  21957123.6814
        22.7504         29.0004
  22228657.8964   -7941581.11047  -6063127.41346                  22228661.7044
        20.7504         23.7504
 95  4 13 16 48 15.0010000  0  7G 2G18G19G27G28G29G31
  24120619.0444   -2462228.59945  -1830880.28345                  24120624.2944
        10.2504          7.0004
  20634731.2634    -150441.21248    -63237.59547                  20634734.4974
        28.5004         37.5004
  21125123.7164   -3080045.26447  -2340971.01647                  21125127.3374
        25.2504         37.5004
  22841839.7164   -8282330.96446  -6347143.17946                  22841842.9034
        16.7504         14.7504
                    154800.321 5    119196.908 5  23711185.622    23711188.935
        10.500          10.250
  21965674.9744    6228382.01947   4856920.73247                  21965678.2204
        22.7504         29.7504
  22226969.8414   -7950450.74147  -6070038.81046                  22226973.5794
        21.0004         23.2504
 95  4 13 16 48 30.0010000  0  7G 2G18G19G27G28G29G31
  24114741.1614   -2493121.16845  -1854952.40245                  24114746.2824
        10.7504          7.5004
  20639138.9194    -127279.01448    -45189.12848                  20639141.9894
        28.5004         40.2504
  21125442.5994   -3078369.12147  -2339664.92447                  21125446.3724
        25.2504         38.0004
  22837768.1144   -8303727.02646  -6363815.42846                  22837771.6064
        16.5004         15.2504
                    180693.990 5    139373.791 5  23716113.067    23716116.454
        10.500          11.000
  21974255.3104    6273472.64047   4892056.26847                  21974258.6264
        23.0004         29.2504
  22225315.8494   -7959145.08547  -6076813.61446                  22225319.3064
        21.2504         23.7504
 95  4 13 16 48 45.0010000  0  7G 2G18G19G27G28G29G31
  24108881.1224   -2523912.10945  -1878945.31145                  24108887.1224
        10.5004          6.7504
  20643578.3414    -103949.97948    -27010.66347                  20643581.4814
        28.5004         37.7504
  21125777.1384   -3076610.30247  -2338294.41847                  21125780.7354
        25.0004         37.0004
  22833707.5054   -8325065.10346  -6380442.49746                  22833711.2204
        16.5004         15.0004
                    206767.726 5    159690.984 5  23721074.614    23721078.063
        10.250          11.000
  21982861.9974    6318701.13747   4927299.23747                  21982865.4194
        22.7504         28.0004
  22223695.2714   -7967659.56847  -6083448.27246                  22223699.0444
        21.0004         24.0004
 95  4 13 16 49  0.0010000  0  7G 2G18G19G27G28G29G31
  24103040.8644   -2554603.58845  -1902860.72645                  24103046.2674
        11.0004          6.7504
  20648049.3334     -80454.87448     -8702.79147                  20648052.5324
        28.5004         38.5004
  21126127.2554   -3074771.71647  -2336861.75147                  21126130.9234
        25.2504         38.5004
  22829657.1694   -8346349.43646  -6397027.68446                  22829660.8844
        16.5004         16.2504
                    233018.449 5    180146.088 5  23726070.083    23726073.474
        10.500          10.750
  21991494.6534    6364067.44647   4962649.59747                  21991498.1694
        22.5004         28.7504
  22222108.9114   -7975997.46647  -6089945.33646                  22222112.5914
        21.0004         24.2504
 95  4 13 16 49 15.0010000  0  7G 2G18G19G27G28G29G31
  24097219.5524   -2585194.46645  -1926697.76145                  24097224.8604
        11.2504          6.7504
  20652551.2784     -56796.03047      9732.66747                  20652554.6304
        27.7504         38.2504
  21126491.9274   -3072854.66447  -2335367.94247                  21126495.7824
        25.2504         37.7504
  22825617.4424   -8367580.81946  -6413571.61646                  22825621.1924
        17.2504         15.7504
                    259444.472 5    200737.789 5  23731098.724    23731102.224
        10.500          10.750
  22000153.6464    6409569.48947   4998105.72747                  22000157.2204
        22.7504         28.7504
  22220555.7714   -7984157.66047  -6096303.91846                  22220559.4274
        21.0004         23.2504
 95  4 13 16 49 30.0010000  0  7G 2G18G19G27G28G29G31
  24091418.3564   -2615681.08245  -1950453.54745                  24091423.9354
        11.0004          6.5004
  20657085.4974     -32968.63847     28299.46647                  20657088.9424
        27.7504         38.0004
  21126872.5364   -3070855.32547  -2333810.01747                  21126876.3334
        25.2504         39.0004
  22821588.7944   -8388751.27346  -6430068.06346                  22821592.2864
        17.0004         16.2504
                    286048.674 5    221468.337 5  23736161.271    23736164.720
        10.500          10.750
  22008838.2004    6455206.14347   5033666.74147                  22008841.5284
        22.7504         28.2504
  22219037.3174   -7992136.58347  -6102521.25746                  22219041.1734
        20.7504         23.5004
 95  4 13 16 49 45.0010000  0  7G 2G18G19G27G28G29G31
  24085635.6694   -2646067.10945  -1974130.96045                  24085640.1104
        11.2504          8.0004
  20661652.1464      -8970.97648     46998.93947                  20661655.5794
        28.0004         37.7504
  21127268.3644   -3068774.49147  -2332188.58948                  21127272.1614
        25.2504         39.7504
  22817571.6924   -8409859.92146  -6446516.35346                  22817575.3604
        16.7504         16.0004
                    312828.246 5    242335.538 5  23741257.364    23741260.767
        10.750          10.500
  22017547.7634    6500975.66747   5069331.29347                  22017551.0674
        22.7504         29.0004
  22217552.8564   -7999937.91447  -6108600.21246                  22217556.4074
        20.7504         22.7504
 95  4 13 16 50  0.0010000  0  7G 2G18G19G27G28G29G31
  24079871.9974   -2676354.52745  -1997731.53345                  24079876.8374
        10.7504          6.7504
  20666251.4664      15198.73448     65832.47647                  20666254.6534
        28.0004         36.7504
  21127680.6144   -3066609.05247  -2330501.23148                  21127684.2714
        25.5004         39.5004
  22813567.4034   -8430903.08146  -6462913.61846                  22813571.1654
        16.7504         15.7504
                    339783.825 5    263339.884 5  23746386.958    23746389.966
        10.500          10.500
  22026283.0754    6546880.62847   5105101.38647                  22026286.6384
        22.5004         27.7504
  22216102.0054   -8007561.74347  -6114540.85246                  22216105.6614
        20.5004         22.5004
 95  4 13 16 50 15.0010000  0  7G 2G18G19G27G28G29G31
  24074127.8254   -2706542.60545  -2021254.69145                  24074132.4894
        11.2504          7.0004
  20670883.7394      39541.72247     84801.03147                  20670886.9154
        27.7504         38.5004
  21128108.7004   -3064359.14647  -2328748.05447                  21128112.2744
        25.5004         38.5004
  22809575.8964   -8451879.51646  -6479258.87946                  22809579.4584
        17.5004         16.5004
                    366914.848 5    284480.937 5  23751549.700    23751552.919
        10.500          10.250
  22035043.9974    6592920.15447   5140976.32447                  22035047.5134
        22.0004         28.0004
  22214684.8334   -8015010.64447  -6120345.18246                  22214688.6884
        20.5004         23.2504
 95  4 13 16 50 30.0010000  0  7G 2G18G19G27G28G29G31
  24068402.7944   -2736627.24945  -2044697.26045                  24068407.9274
        11.2504          7.2504
  20675549.5364      64059.98148    103906.16847                  20675552.7004
        28.0004         38.0004
  21128552.3804   -3062026.17047  -2326930.14647                  21128556.0834
        25.2504         38.0004
  22805596.8644   -8472786.16746  -6495549.76446                  22805600.6384
        16.7504         16.7504
                    394222.891 5    305759.922 5  23756746.310    23756749.157
        10.500          10.000
  22043830.8564    6639095.45047   5176957.06347                  22043834.6064
        21.7504         27.5004
  22213300.0054   -8022285.02447  -6126013.53146                  22213303.5094
        20.5004         23.0004
 95  4 13 16 50 45.0010000  0  7G 2G18G19G27G28G29G31
  24062698.0134   -2766608.39145  -2068059.16945                  24062703.3454
        11.5004          8.7504
  20680248.2634      88751.81648    123146.55447                  20680251.5214
        28.0004         39.2504
  21129012.0444   -3059609.13347  -2325046.74047                  21129015.5954
        25.0004         38.2504
  22801631.5134   -8493624.69046  -6511787.57146                  22801635.4854
        17.0004         16.2504
                    421706.119 5    327175.427 5  23761976.466    23761979.126
        10.750          10.000
  22052643.3964    6685406.05247   5213043.23547                  22052646.9704
        22.0004         27.5004
  22211948.3724   -8029387.90347  -6131548.22946                  22211952.0524
        20.2504         23.2504
 95  4 13 16 51  0.0010000  0  7G 2G18G19G27G28G29G31
  24057012.2714   -2796486.38445  -2091340.70745                  24057017.2284
        11.2504          6.7504
  20684980.1534     113618.21548    142522.96547                  20684983.3174
        28.0004         38.0004
  21129488.9424   -3057104.54047  -2323095.11247                  21129492.8104
        25.0004         38.5004
  22797679.5364   -8514394.73246  -6527972.00846                  22797683.7434
        17.2504         16.7504
                    449365.059 5    348727.843 5  23767239.927    23767242.321
        10.750          10.000
  22061482.5054    6731854.29147   5249236.64947                  22061485.9504
        21.7504         26.2504
  22210629.4894   -8036320.17047  -6136949.99546                  22210633.2284
        20.5004         24.0004
 95  4 13 16 51 15.0010000  0  7G 2G18G19G27G28G29G31
  24051345.1854   -2826265.69245  -2114545.34245                  24051350.2244
        11.2504          6.7504
  20689744.4974     138654.57148    162031.81047                  20689747.5674
        28.0004         38.7504
  21129981.9974   -3054513.32947  -2321075.98047                  21129985.8764
        24.7504         38.7504
  22793739.8024   -8535097.56446  -6544104.07546                  22793743.7044
        17.0004         16.7504
                    477198.552 5    370416.274 5  23772536.278    23772539.032
        10.750          10.000
  22070347.9194    6778442.00847   5285538.75347                  22070351.5404
        21.7504         27.5004
  22209342.8804   -8043081.77147  -6142218.76946                  22209346.5604
        21.0004         24.7504
 95  4 13 16 51 30.0010000  0  7G 2G18G19G27G28G29G31
  24045697.5524   -2855945.06745  -2137672.11245                  24045702.4154
        11.7504          7.7504
  20694541.1224     163861.76447    181673.77247                  20694544.3104
        27.7504         39.0004
  21130491.7004   -3051834.57047  -2318988.63247                  21130495.5214
        25.0004         37.5004
  22789813.2394   -8555731.13946  -6560182.18646                  22789816.8964
        17.0004         16.5004
                    505208.737 5    392242.384 5  23777866.567    23777869.216
        10.750          10.000
  22079239.9194    6825170.91047   5321950.87247                  22079243.4354
        22.0004         28.5004
  22208089.4504   -8049667.72247  -6147350.67446                  22208093.1064
        20.5004         23.7504
 95  4 13 16 51 45.0010000  0  7G 2G18G19G27G28G29G31
  24040067.9974   -2885528.82845  -2160724.40045                  24040073.0484
        11.7504          7.0004
  20699369.9114     189237.84747    201447.34447                  20699373.1694
        27.7504         39.0004
  21131017.4274   -3049071.85747  -2316835.86447                  21131021.2354
        25.0004         38.2504
  22785898.6144   -8576302.37346  -6576211.71146                  22785902.2824
        17.0004         16.0004
                    533392.479 5    414203.736 5  23783229.450    23783232.489
        10.500          10.250
  22088159.1464    6872041.67047   5358473.52547                  22088162.7554
        22.0004         27.0004
  22206869.0914   -8056080.67747  -6152347.77746                  22206872.9464
        20.5004         24.5004
 95  4 13 16 52  0.0010000  0  7G 2G18G19G27G28G29G31
  24034456.8724   -2915016.04945  -2183701.42945                  24034462.1464
        11.7504          7.7504
  20704230.6854     214781.91047    221351.80047                  20704233.9314
        27.2504         37.7504
  21131559.7634   -3046223.73647  -2314616.54647                  21131563.3844
        25.5004         38.5004
  22781995.2864   -8596813.99646  -6592194.78146                  22781999.2244
        16.7504         16.7504
                    561750.871 5    436301.169 5  23788626.208    23788629.048
        10.750          10.000
  22097106.5524    6919058.94047   5395110.34747                  22097110.0564
        22.2504         27.7504
  22205682.3104   -8062319.40447  -6157209.11446                  22205686.1064
        21.2504         24.2504
 95  4 13 16 52 15.0010000  0  7G 2G18G19G27G28G29G31
  24028863.8884   -2944408.74245  -2206604.79545                  24028869.3134
        11.7504          7.0004
  20709122.9194     240490.45947    241384.43047                  20709126.3414
        27.5004         37.0004
  21132117.4274   -3043293.77647  -2312333.45947                  21132120.8724
        25.7504         39.2504
  22778102.6384   -8617268.94246  -6608133.69346                  22778106.4584
        16.2504         16.5004
                    590282.406 5    458533.530 5  23794055.521    23794058.356
        10.750          10.500
  22106080.6534    6966218.29847   5431857.88547                  22106084.0874
        22.5004         27.5004
  22204528.3724   -8068382.71547  -6161933.77046                  22204532.1464
        21.2504         25.0004
 95  4 13 16 52 30.0010000  0  7G 2G18G19G27G28G29G31
  24023288.6384   -2973705.55845  -2229433.46545                  24023293.6184
        11.5004          8.0004
  20714047.1464     266366.55147    261547.61347                  20714050.3924
        27.2504         37.2504
  21132690.3104   -3040282.07847  -2309986.68648                  21132693.7314
        25.2504         39.5004
  22774221.5524   -8637664.27146  -6624026.14146                  22774225.7474
        16.7504         17.0004
                    618989.948 5    480903.038 5  23799518.419    23799521.392
        10.750          10.500
  22115082.3254    7013521.56647   5468717.55647                  22115085.5834
        22.7504         26.7504
  22203408.6534   -8074265.51347  -6166517.76246                  22203412.5324
        21.0004         24.7504
 95  4 13 16 52 45.0010000  0  7G 2G18G19G27G28G29G31
  24017730.3804   -3002912.18845  -2252191.86545                  24017735.2904
        11.5004          7.5004
  20719002.2394     292405.26847    281837.51847                  20719005.4154
        27.7504         36.7504
  21133278.7714   -3037189.64047  -2307576.98647                  21133282.3334
        25.5004         38.7504
  22770351.2394   -8658004.55446  -6639875.70846                  22770355.1184
        17.2504         17.0004
                    647870.111 5    503407.056 5  23805014.021    23805017.321
        10.500          10.750
  22124110.4584    7060966.24947   5505687.42547                  22124113.6924
        22.2504         27.5004
  22202323.2784   -8079970.00447  -6170962.81046                  22202327.0754
        21.2504         24.2504
 95  4 13 16 53  0.0010000  0  7G 2G18G19G27G28G29G31
  24012189.7634   -3032032.60646  -2274883.08445                  24012194.3454
        12.2504          7.0004
  20723988.3104     318607.34147    302254.71147                  20723991.3334
        27.5004         37.2504
  21133882.8964   -3034014.49947  -2305102.84247                  21133886.4464
        25.7504         39.2504
  22766491.0994   -8678290.40146  -6655682.85246                  22766494.7204
        17.2504         17.7504
                    676922.452 5    526045.239 5  23810542.325    23810545.892
        10.500          11.000
  22133165.9274    7108551.59347   5542766.90647                  22133169.3254
        22.2504         26.2504
  22201272.4034   -8085493.59047  -6175266.90046                  22201276.2594
        21.0004         24.2504
 95  4 13 16 53 15.0010000  0  7G 2G18G19G27G28G29G31
  24006664.0444   -3061068.15546  -2297508.17345                  24006668.1224
        12.2504          7.7504
  20729005.7634     344974.77547    322800.75747                  20729008.9034
        27.5004         37.7504
  21134502.8024   -3030756.93147  -2302564.47947                  21134506.3884
        25.2504         38.2504
  22762641.5834   -8698520.29646  -6671446.39846                  22762645.1224
        17.5004         17.5004
                    706148.841 5    548819.043 5  23816104.013    23816107.599
        10.500          11.000
  22142247.7474    7156279.02547   5579957.09347                  22142251.1574
        21.7504         27.5004
  22200255.4744   -8090834.28747  -6179428.48146                  22200259.3294
        21.0004         24.5004
 95  4 13 16 53 30.0010000  0  7G 2G18G19G27G28G29G31
  24001155.0364   -3090016.63545  -2320065.41245                  24001159.8414
        11.7504          8.7504
  20734055.3884     371510.88047    343478.23747                  20734058.5174
        27.5004         38.5004
  21135138.8964   -3027415.56047  -2299960.81048                  21135142.3414
        26.0004         40.0004
  22758802.5284   -8718694.32446  -6687166.41046                  22758806.5484
        17.5004         17.2504
                    735549.963 5    571728.997 5  23821699.185    23821702.462
        10.500          11.250
  22151357.0754    7204146.78847   5617256.63547                  22151360.5674
        21.7504         26.0004
  22199274.8024   -8095991.22347  -6183446.86946                  22199278.4354
        21.5004         25.5004
 95  4 13 16 53 45.0010000  0  7G 2G18G19G27G28G29G31
  23995662.5994   -3118880.63945  -2342556.81045                  23995667.8494
        11.7504          7.2504
  20739137.0214     398213.44347    364285.42747                  20739140.0794
        27.7504         37.7504
  21135789.9744   -3023993.31047  -2297294.11847                  21135793.5244
        25.7504         39.0004
  22754973.7084   -8738815.55746  -6702845.28846                  22754977.4814
        17.2504         17.2504
                    765121.282 5    594771.573 5  23827326.106    23827329.583
        10.500          11.250
  22160490.9974    7252147.25447   5654659.58646                  22160494.4194
        21.5004         25.0004
  22198326.8564   -8100971.23347  -6187327.39247                  22198330.3374
        21.2504         25.7504
 95  4 13 16 54  0.0010000  0  7G 2G18G19G27G28G29G31
  23990186.8964   -3147656.23046  -2364979.32645                  23990192.3564
        12.0004          8.2504
  20744250.8564     425086.04147    385225.10947                  20744253.9274
        27.7504         38.0004
  21136457.9974   -3020483.21147  -2294558.97648                  21136461.5954
        26.0004         40.0004
  22751155.9194   -8758876.66246  -6718477.30646                  22751159.6924
        17.2504         18.0004
                    794865.856 5    617949.161 5  23832986.278    23832989.802
        10.500          11.250
  22169651.2634    7300284.36547   5692169.00446                  22169654.6614
        21.5004         25.0004
  22197413.0054   -8105773.29747  -6191069.25846                  22197416.6264
        21.0004         25.0004
 95  4 13 16 54 15.0010000  0  7G 2G18G19G27G28G29G31
  23984728.1144   -3176342.96146  -2387332.59745                  23984732.8844
        12.5004          8.0004
  20749396.4974     452128.68247    406297.29047                  20749399.5214
        27.5004         37.2504
  21137143.1614   -3016883.73447  -2291754.18448                  21137146.6064
        26.2504         40.0004
  22747350.1534   -8778875.30846  -6734060.65846                  22747354.1734
        17.2504         17.7504
                    824783.353 5    641261.492 5  23838679.560    23838682.837
        10.250          11.250
  22178836.7394    7348554.41947   5729782.01946                  22178840.1494
        21.2504         25.2504
  22196532.9424   -8110398.77247  -6194673.51646                  22196536.7394
        21.2504         25.0004
 95  4 13 16 54 30.0010000  0  7G 2G18G19G27G28G29G31
  23979286.5284   -3204937.77146  -2409614.25345                  23979291.4154
        12.5004          8.5004
  20754575.4504     479343.65447    427503.76047                  20754578.3454
        27.5004         36.5004
  21137844.9814   -3013194.37847  -2288879.36148                  21137848.5564
        26.5004         40.7504
  22743557.0994   -8798806.30146  -6749591.29746                  22743561.1774
        16.7504         17.5004
                    854875.461 5    664709.879 5  23844405.755    23844409.450
        10.250          11.250
  22188047.5914    7396958.20547   5767499.23846                  22188050.9894
        21.2504         24.2504
  22195686.4114   -8114846.46347  -6198139.24747                  22195690.1144
        21.2504         25.7504
 95  4 13 16 54 45.0010000  0  7G 2G18G19G27G28G29G31
  23973863.9194   -3233433.25446  -2431818.51145                  23973868.4784
        12.2504          7.7504
  20759787.4664     506732.82047    448845.96047                  20759790.5604
        27.5004         37.2504
  21138565.2944   -3009409.28847  -2285929.93848                  21138568.8684
        26.0004         39.7504
  22739777.9584   -8818668.13846  -6765068.04246                  22739782.0364
        17.2504         17.0004
                    885144.644 5    688296.249 5  23850165.763    23850169.458
        10.000          11.250
  22197284.4504    7445498.13047   5805322.53946                  22197287.8494
        21.2504         25.2504
  22194873.9504   -8119116.98847  -6201466.92147                  22194877.7004
        21.5004         26.5004
 95  4 13 16 55  0.0010000  0  7G 2G18G19G27G28G29G31
  23968459.5604   -3261832.13546  -2453947.49545                  23968464.2244
        12.2504          9.2504
  20765031.7634     534292.04247    470320.67047                  20765034.8334
        27.2504         38.0004
  21139303.2864   -3005531.64647  -2282908.39448                  21139306.7904
        26.5004         41.5004
  22736010.5914   -8838466.39546  -6780495.25346                  22736014.3644
        17.5004         18.0004
                    915584.961 5    712015.964 5  23855958.294    23855962.044
        10.000          11.000
  22206545.9114    7494166.50147   5843245.93546                  22206549.0054
        21.7504         24.7504
  22194094.3024   -8123214.14147  -6204659.50447                  22194097.6774
        21.5004         26.0004
 95  4 13 16 55 15.0010000  0  7G 2G18G19G27G28G29G31
  23963074.6064   -3290131.58446  -2475998.99245                  23963079.7044
        12.5004          9.2504
  20770308.7634     562022.52647    491928.83547                  20770311.9154
        27.0004         37.2504
  21140058.1694   -3001564.19847  -2279816.87248                  21140061.5914
        26.5004         41.0004
  22732255.1924   -8858199.90446  -6795872.00346                  22732258.9894
        17.5004         17.7504
                    946196.172 5    735868.848 5  23861783.575    23861787.071
        10.000          11.250
  22215831.7784    7542962.77747   5881268.98746                  22215835.1884
        22.0004         24.7504
  22193347.7394   -8127137.81847  -6207716.90846                  22193351.4074
        21.5004         25.5004
 95  4 13 16 55 30.0010000  0  7G 2G18G19G27G28G29G31
  23957709.1384   -3318325.23446  -2497968.05345                  23957714.4704
        12.2504          8.2504
  20775618.0054     589923.26647    513669.66547                  20775621.2514
        26.7504         37.5004
  21140830.6384   -2997505.75547  -2276654.44448                  21140834.1774
        26.7504         42.0004
  22728513.3884   -8877865.61246  -6811195.92046                  22728517.3374
        17.7504         18.5004
                    976980.159 5    759856.364 5  23867641.411    23867644.903
         9.750          11.000
  22225142.4114    7591890.27847   5919394.29746                  22225145.5994
        21.7504         24.2504
  22192634.1384   -8130885.87347  -6210637.46647                  22192637.7474
        21.2504         27.0004
 95  4 13 16 55 45.0010000  0  7G 2G18G19G27G28G29G31
  23952363.8724   -3346412.60846  -2519854.29645                  23952369.6264
        12.0004          9.5004
  20780958.9584     617989.97347    535539.82147                  20780962.3104
        26.7504         36.7504
  21141619.6464   -2993359.81847  -2273423.84248                  21141623.2084
        26.5004         41.7504
  22724783.5364   -8897465.08146  -6826468.22546                  22724787.5794
        17.7504         19.2504
                   1007934.242 5    783976.424 5  23873531.849    23873535.153
         9.750          10.750
  22234476.9114    7640945.38747   5957619.04646                  22234480.0994
        21.5004         24.7504
  22191954.4274   -8134458.84047  -6213421.59446                  22191958.1534
        21.5004         25.2504
 95  4 13 16 56  0.0010000  0  7G 2G18G19G27G28G29G31
  23947040.4114   -3374392.80046  -2541657.01845                  23947045.4854
        12.5004          8.7504
  20786331.1614     646221.93247    557538.74347                  20786334.6064
        26.5004         36.7504
  21142425.0754   -2989127.33547  -2270125.80448                  21142428.5794
        27.0004         42.7504
  22721066.6064   -8916995.59546  -6841686.80446                  22721070.6384
        17.5004         19.0004
                   1039058.700 5    808229.244 5  23879454.552    23879457.915
         9.750          11.000
  22243836.8174    7690129.38347   5995944.22246                  22243840.0054
        22.0004         25.0004
  22191308.1694   -8137855.46647  -6216068.31246                  22191311.9544
        21.2504         25.0004
 95  4 13 16 56 15.0010000  0  7G 2G18G19G27G28G29G31
  23941735.8804   -3402265.86546  -2563376.27645                  23941741.3534
        12.2504          9.5004
  20791735.1384     674619.57047    579666.76847                  20791738.6184
        26.7504         36.7504
  21143246.1614   -2984812.34547  -2266763.46148                  21143249.6774
        26.5004         42.0004
  22717362.9814   -8936458.36746  -6856852.59146                  22717367.0244
        17.5004         17.7504
                   1070353.148 5    832614.524 5  23885409.622    23885413.204
         9.750          10.750
  22253220.4504    7739440.91347   6034368.78346                  22253223.6494
        21.5004         25.2504
  22190695.3334   -8141073.34247  -6218575.73847                  22190699.1304
        20.7504         25.7504
 95  4 13 16 56 30.0010000  0  7G 2G18G19G27G28G29G31
  23936452.5214   -3430029.79846  -2585010.50045                  23936457.7944
        12.2504          9.2504
  20797170.8174     703185.78847    601926.14947                  20797174.2744
        26.2504         37.5004
  21144082.8884   -2980416.24747  -2263337.93448                  21144086.3684
        27.0004         43.0004
  22713672.3334   -8955853.76746  -6871965.87946                  22713676.4584
        17.7504         18.5004
                   1101820.257 5    857134.343 5  23891397.700    23891401.419
        10.000          11.000
  22262628.3174    7788881.04747   6072893.54346                  22262631.7394
        21.5004         24.5004
  22190118.0604   -8144107.80047  -6220940.24447                  22190121.7864
        20.7504         26.0004
 95  4 13 16 56 45.0010000  0  7G 2G18G19G27G28G29G31
  23931189.5214   -3457687.51646  -2606561.95345                  23931194.2434
        12.7504          9.0004
  20802638.0834     731915.82647    624313.18947                  20802641.4114
        26.0004         36.0004
  21144934.1694   -2975941.72547  -2259851.29748                  21144937.6734
        27.0004         43.7504
  22709993.4974   -8975186.21246  -6887030.11246                  22709997.3644
        17.5004         17.7504
                   1133455.994 5    881785.564 5  23897417.997    23897421.149
        10.000          10.750
  22272060.3804    7838446.67047   6111516.08846                  22272063.9314
        21.2504         25.0004
  22189575.1304   -8146961.06747  -6223163.56546                  22189578.8334
        20.5004         25.0004
 95  4 13 16 57  0.0010000  0  7G 2G18G19G27G28G29G31
  23925945.9744   -3485241.66346  -2628032.70345                  23925950.4744
        12.5004          9.0004
  20808136.8104     760810.32147    646828.37347                  20808140.2084
        26.5004         36.7504
  21145800.7634   -2971386.89847  -2256302.07448                  21145804.3964
        26.7504         42.2504
  22706325.7164   -8994458.74646  -6902047.66546                  22706329.6534
        17.5004         19.0004
                   1165260.343 5    906568.167 5  23903469.997    23903473.478
         9.750          10.750
  22281516.8564    7888140.12747   6150238.25246                  22281520.3604
        21.2504         23.2504
  22189067.4814   -8149629.72647  -6225243.03946                  22189071.4194
        20.2504         24.7504
 95  4 13 16 57 15.0010000  0  7G 2G18G19G27G28G29G31
  23920721.5994   -3512695.19146  -2649425.04245                  23920726.6144
        12.5004          9.5004
  20813666.8724     789870.97547    669473.03547                  20813670.1534
        26.2504         36.5004
  21146682.9894   -2966751.71347  -2252690.24048                  21146686.3414
        27.0004         43.7504
  22702670.4354   -9013667.92146  -6917015.84546                  22702674.5604
        17.7504         19.2504
                   1197235.576 5    931483.928 5  23909554.427    23909557.974
         9.750          10.750
  22290998.5364    7937967.52747   6189064.78346                  22291002.0524
        21.0004         23.0004
  22188595.1144   -8152110.66847  -6227176.22946                  22188598.9934
        20.2504         23.7504
 95  4 13 16 57 30.0010000  0  7G 2G18G19G27G28G29G31
  23915515.4664   -3540052.80946  -2670742.64545                  23915520.4934
        12.2504          9.2504
  20819226.9194     819090.22547    692241.27547                  20819230.2244
        26.2504         37.2504
  21147579.8024   -2962038.59847  -2249017.68348                  21147583.1424
        27.2504         43.5004
  22699026.2714   -9032817.99446  -6931937.97346                  22699030.1854
        18.0004         19.5004
                   1229378.260 5    956530.171 5  23915671.153    23915674.700
         9.750          10.750
  22300505.7394    7987927.71147   6227994.77346                  22300509.2904
        21.0004         24.0004
  22188157.5054   -8154410.49447  -6228968.29546                  22188161.2784
        20.5004         25.0004
 95  4 13 16 57 45.0010000  0  7G 2G18G19G27G28G29G31
  23910327.6384   -3567315.11446  -2691985.98145                  23910332.8534
        12.0004          7.7504
  20824817.9664     848469.99547    715134.59347                  20824821.1064
        26.5004         37.2504
  21148492.1614   -2957244.16247  -2245281.75848                  21148495.5134
        27.2504         43.2504
  22695393.3494   -9051909.42146  -6946814.40046                  22695397.4154
        18.0004         19.2504
                   1261689.296 5    981707.596 5  23921819.825    23921823.056
        10.000          10.750
  22310038.2474    8038022.68647   6267029.80646                  22310041.9034
        20.7504         23.7504
  22187754.1384   -8156529.20547  -6230619.23746                  22187757.8884
        20.2504         25.2504
 95  4 13 16 58  0.0010000  0  7G 2G18G19G27G28G29G31
  23905157.1924   -3594485.20546  -2713157.47245                  23905161.8684
        12.0004          8.0004
  20830439.8804     878014.35847    738156.17447                  20830443.2314
        26.2504         36.2504
  21149420.0674   -2952368.20047  -2241482.30448                  21149423.4784
        27.2504         43.2504
  22691771.3104   -9070944.79646  -6961647.15446                  22691775.6224
        18.2504         19.5004
                   1294168.314 5   1007015.924 5  23928000.310    23928003.888
        10.000          10.500
  22319596.6534    8088252.40147   6306169.82946                  22319600.1574
        20.5004         23.7504
  22187385.2474   -8158469.09847  -6232130.83646                  22187389.0794
        20.7504         25.0004
 95  4 13 16 58 15.0010000  0  7G 2G18G19G27G28G29G31
  23900004.8804   -3621562.78446  -2734256.86245                  23900009.7314
        12.0004          7.7504
  20836094.2944     907727.81647    761309.51147                  20836097.5524
        26.2504         36.0004
  21150364.0214   -2947407.04047  -2237616.46548                  21150367.4784
        27.0004         43.5004
  22688159.5364   -9089924.30746  -6976436.37946                  22688163.5094
        18.5004         20.2504
                   1326816.900 5   1032456.369 5  23934213.364    23934216.403
        10.000          10.500
  22329181.5674    8138619.69747   6345417.05246                  22329185.3064
        21.0004         23.2504
  22187050.7474   -8160227.96047  -6233501.36946                  22187054.4504
        21.0004         25.0004
 95  4 13 16 58 30.0010000  0  7G 2G18G19G27G28G29G31
  23894869.4424   -3648551.72146  -2755287.18245                  23894874.2124
        12.5004          8.7504
  20841779.5054     937604.35947    784589.93247                  20841782.8564
        26.2504         37.0004
  21151324.3644   -2942361.84847  -2233685.14748                  21151327.7514
        27.2504         43.2504
  22684557.0284   -9108855.31646  -6991187.80346                  22684560.9194
        18.2504         18.5004
                   1359632.011 5   1058026.582 5  23940457.981    23940460.849
        10.250          10.250
  22338791.8254    8189122.28747   6384769.70546                  22338795.4464
        21.0004         24.5004
  22186749.4664   -8161808.88547  -6234733.25446                  22186753.1694
        20.5004         25.0004
 95  4 13 16 58 45.0010000  0  7G 2G18G19G27G28G29G31
  23889751.3024   -3675447.41046  -2776244.84045                  23889756.3294
        12.7504          7.7504
  20847496.8254     967647.89547    808000.47347                  20847500.0604
        26.5004         37.0004
  21152301.9814   -2937224.08047  -2229681.69048                  21152305.3924
        27.5004         42.7504
  22680964.6694   -9127734.33046  -7005898.71646                  22680968.3134
        18.5004         20.0004
                   1392618.333 5   1083730.212 5  23946735.122    23946738.165
        10.250          10.250
  22348429.0134    8239765.99247   6424232.31546                  22348432.5284
        21.0004         23.5004
  22186483.6304   -8163208.26047  -6235823.67447                  22186487.3214
        20.7504         25.7504
 95  4 13 16 59  0.0010000  0  7G 2G18G19G27G28G29G31
  23884649.3884   -3702258.06646  -2797136.25245                  23884654.4624
        12.2504          8.2504
  20853244.3494     997851.48847    831535.73447                  20853247.7354
        26.2504         36.2504
  21153295.9974   -2932002.07747  -2225612.59548                  21153299.1614
        27.5004         42.5004
  22677380.6694   -9146568.88146  -7020574.98546                  22677384.3724
        18.7504         20.2504
                   1425766.820 5   1109560.196 5  23953043.083    23953046.013
        10.250          10.000
  22358091.8024    8290543.91847   6463799.51546                  22358095.1184
        21.0004         23.5004
  22186249.8254   -8164435.79947  -6236780.19247                  22186253.4464
        20.7504         26.0004
 95  4 13 16 59 15.0010000  0  7G 2G18G19G27G28G29G31
  23879564.5134   -3728978.47146  -2817957.32745                  23879569.0364
        12.0004          8.2504
  20859023.2634    1028221.31647    855200.53047                  20859026.5444
        26.0004         37.0004
  21154306.0754   -2926692.56647  -2221475.31548                  21154309.2864
        27.2504         42.7504
  22673805.8724   -9165351.91346  -7035211.10046                  22673809.4584
        18.5004         19.5004
                   1459083.045 5   1135520.891 5  23959382.755    23959385.728
        10.000          10.000
  22367780.9504    8341461.58547   6503475.60846                  22367784.4074
        21.2504         23.0004
  22186049.7864   -8165486.90747  -6237599.23246                  22186053.5014
        21.0004         25.2504
 95  4 13 16 59 30.0010000  0  7G 2G18G19G27G28G29G31
  23874497.9354   -3755603.28046  -2838703.92345                  23874502.3534
        12.5004          8.0004
  20864834.5604    1058760.31047    878997.14147                  20864838.0524
        26.0004         36.2504
  21155332.9664   -2921296.39347  -2217270.50348                  21155336.1064
        27.0004         43.5004
  22670242.4504   -9184080.14946  -7049804.52646                  22670246.2004
        18.7504         19.7504
                   1492567.873 5   1161612.960 5  23965754.575    23965758.138
        10.000          10.000
  22377496.1384    8392514.30947   6543256.93346                  22377499.5714
        21.0004         23.0004
  22185883.7084   -8166361.41847  -6238280.66647                  22185887.3294
        21.2504         26.2504
 95  4 13 16 59 45.0010000  0  7G 2G18G19G27G28G29G31
  23869449.3024   -3782132.30646  -2859375.87445                  23869454.4584
        12.2504          8.5004
  20870678.1854    1089468.34047    902925.46847                  20870681.7824
        25.5004         36.2504
  21156375.7714   -2915815.29247  -2212999.51248                  21156379.1924
        27.0004         43.0004
  22666688.2314   -9202756.40746  -7064357.44446                  22666691.8764
        18.5004         20.2504
                   1526219.600 5   1187835.083 5  23972158.263    23972161.470
         9.750          10.000
  22387235.2084    8443695.40347   6583138.28446                  22387238.8414
        20.5004         22.7504
  22185750.3964   -8167060.36847  -6238825.29447                  22185754.0754
        21.0004         26.2504
 95  4 13 17  0  0.0010000  0  7G 2G18G19G27G28G29G31
  23864419.7084   -3808566.81946  -2879974.18245                  23864425.0874
        13.0004          9.2504
  20876554.1464    1120347.70247    926987.30347                  20876557.8724
        25.2504         36.2504
  21157434.4274   -2910253.35847  -2208665.53748                  21157437.7084
        27.7504         42.7504
  22663143.9504   -9221380.70846  -7078869.88146                  22663147.8994
        18.5004         19.7504
                   1560037.756 5   1214186.883 5  23978593.817    23978597.079
        10.000          10.000
  22396998.8494    8495002.54547   6623117.86046                  22397002.2474
        20.2504         22.7504
  22185651.1144   -8167582.07247  -6239231.80846                  22185654.8534
        21.2504         25.0004
 95  4 13 17  0 15.0010000  0  7G 2G18G19G27G28G29G31
  23859407.2554   -3834905.75346  -2900498.00645                  23859411.6384
        13.2504          8.7504
  20882462.6464    1151395.90147    951180.69847                  20882466.3604
        25.5004         35.7504
  21158507.7554   -2904613.11347  -2204270.54248                  21158510.9194
        27.5004         43.2504
  22659610.2004   -9239952.66146  -7093341.52246                  22659614.0444
        18.7504         19.2504
                   1594021.294 5   1240667.559 5  23985060.833    23985063.911
        10.000          10.000
  22406785.4814    8546433.23747   6663193.71246                  22406789.1264
        20.0004         22.0004
  22185586.0054   -8167925.23247  -6239499.20347                  22185589.8134
        21.0004         26.0004
 95  4 13 17  0 30.0010000  0  7G 2G18G19G27G28G29G31
  23854412.9194   -3861151.12446  -2920948.92145                  23854417.7594
        13.2504         10.0004
  20888401.9194    1182607.58047    975501.47747                  20888405.6694
        25.2504         36.5004
  21159595.4974   -2898897.06647  -2199816.47548                  21159598.6494
        27.5004         43.0004
  22656086.1774   -9258471.47446  -7107771.76246                  22656089.5994
        18.7504         19.7504
                   1628168.306 5   1267275.623 5  23991558.731    23991561.595
        10.000          10.000
  22416596.2004    8597986.18547   6703364.82146                  22416599.6574
        20.5004         21.0004
  22185554.0444   -8168092.05647  -6239629.19747                  22185557.7944
        21.0004         26.2504
 95  4 13 17  0 45.0010000  0  7G 2G18G19G27G28G29G31
  23849436.9034   -3887300.12646  -2941324.74945                  23849441.6144
        13.5004          9.0004
  20894372.9504    1213984.96647    999951.37847                  20894376.7004
        25.2504         35.7504
  21160698.1534   -2893103.13947  -2195301.72948                  21160701.3294
        27.2504         43.5004
  22652572.9504   -9276932.47146  -7122156.94246                  22652576.5714
        18.5004         19.5004
                   1662481.053 5   1294012.820 5  23998088.177    23998091.501
        10.000          10.000
  22426429.6464    8649662.35947   6743631.95446                  22426433.3494
        20.2504         22.0004
  22185556.1064   -8168081.11147  -6239620.66347                  22185559.8454
        21.2504         26.5004
 95  4 13 17  1  0.0010000  0  7G 2G18G19G27G28G29G31
  23844479.2394   -3913353.97746  -2961626.43245                  23844484.0564
        13.7504         10.2504
  20900375.6384    1245528.62247   1024530.84647                  20900379.2944
        25.5004         36.5004
  21161814.7944   -2887234.73047  -2190728.94248                  21161818.0404
        27.2504         43.0004
  22649071.5054   -9295333.60146  -7136495.47746                  22649074.9854
        18.7504         20.0004
                   1696956.836 5   1320877.056 5  24004648.739    24004651.872
        10.000           9.750
  22436286.3724    8701458.32747   6783992.43246                  22436290.2044
        20.5004         22.2504
  22185592.1224   -8167894.74347  -6239475.43647                  22185595.4854
        22.0004         26.7504
 95  4 13 17  1 15.0010000  0  7G 2G18G19G27G28G29G31
  23839539.4114   -3939311.70546  -2981853.22245                  23839544.3684
        13.5004         10.5004
  20906409.7164    1277238.09047   1049239.51647                  20906413.2434
        25.5004         36.7504
  21162945.9114   -2881291.06947  -2186097.51948                  21162949.1574
        27.7504         41.5004
  22645581.7244   -9313671.08646  -7150784.42046                  22645585.2044
        18.5004         19.5004
                   1731596.350 5   1347868.886 5  24011240.606    24011243.700
        10.250           9.750
  22446165.6224    8753374.89747   6824446.88246                  22446169.2084
        20.2504         21.7504
  22185661.1384   -8167530.92347  -6239191.93447                  22185664.4784
        21.7504         26.2504
 95  4 13 17  1 30.0010000  0  7G 2G18G19G27G28G29G31
  23834617.9354   -3965172.84146  -3002004.74245                  23834623.1494
        13.5004         10.2504
  20912475.2714    1309112.42647   1074076.65647                  20912478.7284
        25.7504         36.2504
  21164091.6064   -2875270.17647  -2181405.91548                  21164094.7714
        27.2504         42.0004
  22642103.6304   -9331947.15546  -7165025.50446                  22642107.2634
        18.2504         19.0004
                   1766400.842 5   1374989.260 5  24017863.575    24017866.427
        10.250           9.750
  22456067.6614    8805411.48147   6864994.85046                  22456071.4234
        20.0004         21.2504
  22185764.3174   -8166988.30347  -6238769.11247                  22185767.7744
        21.5004         26.0004
 95  4 13 17  1 45.0010000  0  7G 2G18G19G27G28G29G31
  23829714.6614   -3990938.48346  -3022081.83545                  23829719.9584
        13.5004         10.0004
  20918571.7944    1341149.72747   1099040.78347                  20918575.0404
        25.7504         36.5004
  21165252.3724   -2869170.35447  -2176652.80848                  21165255.4544
        27.2504         42.0004
  22638637.5364   -9350162.97446  -7179219.63946                  22638641.2164
        18.2504         19.7504
                   1801371.020 5   1402238.744 5  24024518.106    24024521.313
        10.000           9.500
  22465993.2784    8857569.71447   6905637.61046                  22465996.8414
        20.0004         21.2504
  22185901.2394   -8166266.86447  -6238206.94747                  22185904.8964
        21.2504         26.2504
 95  4 13 17  2  0.0010000  0  7G 2G18G19G27G28G29G31
  23824829.3964   -4016610.86146  -3042086.27645                  23824834.6574
        13.7504         11.0004
  20924699.1144    1373349.28447   1124131.34047                  20924702.5014
        25.7504         36.7504
  21166428.5214   -2862990.45348  -2171837.29748                  21166431.4384
        28.0004         42.2504
  22635181.9114   -9368321.53646  -7193369.16646                  22635185.4974
        18.5004         19.2504
                   1836505.822 5   1429616.508 5  24031204.021    24031207.134
        10.000           9.500
  22475942.7474    8909854.80747   6946379.22546                  22475946.4154
        20.0004         20.0004
  22186072.8174   -8165366.92547  -6237505.69247                  22186076.3684
        21.7504         27.5004
 95  4 13 17  2 15.0010000  0  7G 2G18G19G27G28G29G31
  23819962.8254   -4042187.58146  -3062016.17545                  23819967.6534
        14.0004         11.5004
  20930857.4424    1405711.15347   1149348.37547                  20930860.8644
        25.7504         37.0004
  21167619.9504   -2856729.24447  -2166958.43048                  21167622.7634
        27.7504         42.7504
  22631737.8334   -9386421.44146  -7207472.97546                  22631741.4424
        18.2504         19.0004
                   1871805.559 5   1457122.793 5  24037921.317    24037924.349
        10.000           9.500
  22485917.0994    8962269.32247   6987221.68146                  22485921.0014
        20.0004         21.0004
  22186278.4664   -8164285.88047  -6236663.31247                  22186282.1464
        21.5004         26.0004
 95  4 13 17  2 30.0010000  0  7G 2G18G19G27G28G29G31
  23815113.9584   -4067669.70246  -3081872.35745                  23815119.0674
        14.0004         11.0004
  20937046.2944    1438233.70247   1174690.61847                  20937049.7744
        26.0004         37.0004
  21168827.2474   -2850384.28147  -2162014.30348                  21168830.2354
        27.2504         41.7504
  22628304.6224   -9404463.02846  -7221531.34646                  22628308.4424
        18.2504         20.2504
                   1907269.863 5   1484757.314 5  24044670.146    24044672.966
        10.000           9.250
  22495915.3254    9014811.85646   7028163.89746                  22495919.1224
        19.7504         21.7504
  22186518.4584   -8163024.70547  -6235680.57347                  22186522.1264
        21.2504         26.7504
 95  4 13 17  2 45.0010000  0  7G 2G18G19G27G28G29G31
  23810282.1774   -4093059.02346  -3101656.22345                  23810287.5444
        13.5004         10.7504
  20943265.2634    1470915.46747   1200156.92247                  20943268.7204
        25.7504         37.0004
  21170050.8494   -2843955.86647  -2157005.14748                  21170053.7434
        27.7504         42.5004
  22624881.8644   -9422449.55346  -7235546.81246                  22624885.4274
        18.5004         19.5004
                   1942897.242 5   1512518.902 5  24051449.724    24051453.032
        10.250           9.750
  22505937.8334    9067479.20246   7069203.37346                  22505941.4314
        19.7504         21.2504
  22186792.7004   -8161583.01847  -6234557.17947                  22186796.4274
        21.2504         27.2504
 95  4 13 17  3  0.0010000  0  7G 2G18G19G27G28G29G31
  23805468.5284   -4118353.06946  -3121365.83845                  23805473.9894
        13.0004         11.2504
  20949515.6304    1503758.97847   1225749.26347                  20949519.0284
        26.0004         36.7504
  21171289.9114   -2837443.97547  -2151930.94348                  21171292.8414
        27.5004         42.5004
  22621469.7634   -9440380.74146  -7249519.16746                  22621473.2784
        18.7504         19.0004
                   1978688.548 5   1540408.225 5  24058260.567    24058264.095
        10.000          10.000
  22515983.9034    9120271.52847   7110340.23046                  22515987.5604
        20.0004         20.2504
  22187102.1464   -8159958.63147  -6233291.42147                  22187105.8604
        21.7504         26.5004
 95  4 13 17  3 15.0010000  0  7G 2G18G19G27G28G29G31
  23800673.2634   -4143550.71146  -3141000.35845                  23800678.3024
        12.5004          9.7504
  20955796.0524    1536764.17047   1251467.58347                  20955799.4974
        26.0004         36.7504
  21172544.8254   -2830848.97047  -2146791.98348                  21172547.5914
        27.7504         40.7504
  22618068.1304   -9458257.39046  -7263449.01146                  22618071.7984
        18.7504         19.2504
                   2014644.468 5   1568425.816 5  24065102.731    24065106.122
        10.000           9.750
  22526054.2634    9173190.30847   7151575.62546                  22526057.9074
        20.2504         21.5004
  22187445.9424   -8158149.77047  -6231881.91247                  22187449.5634
        21.5004         27.0004
 95  4 13 17  3 30.0010000  0  7G 2G18G19G27G28G29G31
  23795895.7784   -4168657.55546  -3160564.10745                  23795901.2044
        12.7504         10.5004
  20962106.7004    1569926.85047   1277308.62947                  20962109.9934
        26.0004         38.0004
  21173814.6534   -2824175.05847  -2141591.53448                  21173817.5714
        27.5004         41.7504
  22614674.9584   -9476087.07646  -7277342.27346                  22614678.5444
        18.5004         19.7504
                   2050760.801 5   1596568.410 5  24071975.466    24071978.849
        10.000          10.000
  22536147.6464    9226231.52447   7192906.42646                  22536151.1734
        20.0004         20.5004
  22187824.4034   -8156160.91647  -6230332.15347                  22187828.0244
        21.5004         27.7504
 95  4 13 17  3 45.0010000  0  7G 2G18G19G27G28G29G31
  23791136.0914   -4193670.30046  -3180054.55745                  23791141.8454
        12.7504         10.0004
  20968447.7714    1603250.15547   1303274.83147                  20968451.2044
        26.0004         37.0004
  21175099.9584   -2817419.62747  -2136327.56048                  21175102.9234
        27.2504         41.7504
  22611291.3254   -9493868.46246  -7291197.89846                  22611294.9114
        18.2504         19.5004
                   2087039.258 5   1624837.335 5  24078879.044    24078882.247
         9.750           9.750
  22546264.6854    9279396.76647   7234333.86846                  22546267.8844
        20.0004         20.5004
  22188238.1304   -8153988.51847  -6228639.37047                  22188241.6814
        22.0004         26.2504
 95  4 13 17  4  0.0010000  0  7G 2G18G19G27G28G29G31
  23786394.7784   -4218586.09446  -3199469.41845                  23786400.5214
        12.5004          9.5004
  20974819.5834    1636733.77147   1329365.95447                  20974823.0994
        26.0004         37.7504
  21176401.1924   -2810582.47847  -2130999.91348                  21176404.1924
        27.0004         40.5004
  22607917.7164   -9511597.47146  -7305012.69946                  22607921.2904
        18.7504         20.0004
                   2123478.565 5   1653231.589 5  24085813.192    24085816.696
         9.500          10.000
  22556404.6534    9332685.85446   7275857.81646                  22556408.1814
        19.2504         19.7504
  22188686.6304   -8151631.15747  -6226802.45647                  22188690.1344
        21.5004         27.7504
 95  4 13 17  4 15.0010000  0  7G 2G18G19G27G28G29G31
  23781673.2784   -4243398.63646  -3218803.85345                  23781678.9974
        12.7504          8.7504
  20981222.7714    1670382.90647   1355586.05047                  20981226.3804
        26.0004         36.7504
  21177718.7244   -2803659.23847  -2125605.17948                  21177721.7714
        27.2504         40.7504
  22604555.4194   -9529266.64446  -7318780.87746                  22604558.9464
        18.5004         20.0004
                   2160082.667 5   1681754.264 5  24092779.044    24092782.212
         9.750          10.000
  22566569.8804    9386102.00246   7317480.78046                  22566573.3844
        19.5004         20.0004
  22189171.4114   -8149082.68247  -6224816.63047                  22189175.0564
        21.2504         27.2504
 95  4 13 17  4 30.0010000  0  7G 2G18G19G27G28G29G31
  23776970.2474   -4268112.64646  -3238061.50545                  23776975.3924
        12.7504          9.7504
  20987657.0994    1704193.53547   1381931.98947                  20987660.6264
        26.5004         38.0004
  21179051.5994   -2796654.75747  -2120147.13848                  21179054.4814
        27.0004         41.5004
  22601204.3884   -9546875.65946  -7332502.17946                  22601208.0214
        18.5004         19.7504
                   2196847.672 5   1710402.318 5  24099775.146    24099778.302
         9.750          10.000
  22576757.3414    9439637.37946   7359196.64046                  22576761.0794
        19.7504         20.2504
  22189691.6854   -8146348.45447  -6222686.06247                  22189695.4464
        21.5004         27.5004
 95  4 13 17  4 45.0010000  0  7G 2G18G19G27G28G29G31
  23772286.5834   -4292725.42646  -3257240.28345                  23772291.0484
        12.7504          9.7504
  20994121.9114    1738167.37647   1408405.10247                  20994125.3454
        26.0004         38.5004
  21180400.4814   -2789566.17747  -2114623.57048                  21180403.3884
        27.2504         40.5004
  22597865.2864   -9564423.23046  -7346175.60546                  22597869.1064
        18.5004         19.2504
                   2233775.093 5   1739176.924 5  24106801.958    24106805.173
         9.500          10.000
  22586967.8884    9493294.61446   7401007.45646                  22586971.4854
        19.7504         20.2504
  22190247.6924   -8143427.51347  -6220409.99747                  22190251.2784
        21.7504         27.0004
 95  4 13 17  5  0.0010000  0  7G 2G18G19G27G28G29G31
  23767622.0604   -4317236.26046  -3276339.62745                  23767627.2394
        12.7504         10.2504
  21000617.6144    1772303.36247   1435004.56547                  21000620.9664
        26.0004         38.0004
  21181765.2634   -2782394.47447  -2109035.23248                  21181768.1924
        27.0004         40.0004
  22594537.6854   -9581910.08246  -7359801.72046                  22594541.5874
        18.5004         20.0004
                   2270863.247 5   1768076.783 5  24113859.396    24113863.294
         9.250          10.250
  22597201.9814    9547076.40546   7442915.32746                  22597205.5914
        19.5004         19.5004
  22190839.3494   -8140318.55847  -6217987.43147                  22190843.0754
        21.5004         28.7504
 95  4 13 17  5 15.0010000  0  7G 2G18G19G27G28G29G31
  23762977.9354   -4341643.48846  -3295358.22345                  23762982.6464
        13.5004         11.0004
  21007145.2784    1806605.16447   1461733.23647                  21007148.7714
        25.7504         38.2504
  21183146.1924   -2775136.43147  -2103379.61447                  21183149.1464
        26.2504         38.5004
  22591222.6774   -9599331.70646  -7373377.00546                  22591226.4384
        19.0004         22.0004
                   2308114.930 5   1797104.059 5  24120948.067    24120951.685
         9.250          10.000
  22607460.9034    9600986.09046   7484922.85546                  22607464.4194
        19.5004         20.2504
  22191467.1224   -8137019.38047  -6215416.64247                  22191471.0604
        21.5004         27.5004
 95  4 13 17  5 30.0010000  0  7G 2G18G19G27G28G29G31
  23758352.6064   -4365949.47246  -3314297.93845                  23758357.5634
        13.7504         10.5004
  21013703.4894    1841069.21847   1488588.33647                  21013706.9354
        26.0004         37.0004
  21184544.1224   -2767791.74347  -2097656.48447                  21184547.0994
        26.7504         38.7504
  22587918.8334   -9616691.54646  -7386904.14746                  22587922.5484
        18.7504         20.7504
                   2345527.751 5   1826256.906 5  24128067.458    24128071.407
         9.000          10.250
  22617743.2944    9655020.45746   7527027.53846                  22617747.1494
        19.2504         20.2504
  22192130.9664   -8133531.72347  -6212698.98247                  22192134.6814
        21.7504         28.2504
 95  4 13 17  5 45.0010000  0  7G 2G18G19G27G28G29G31
  23753746.6854   -4390153.92546  -3333158.52745                  23753751.7594
        13.7504         10.2504
  21020292.4034    1875694.18447   1515568.82147                  21020295.7554
        26.0004         38.2504
  21185958.2394   -2760360.03447  -2091865.53547                  21185961.3804
        26.7504         38.5004
  22584627.1924   -9633988.48346  -7400382.27646                  22584630.9894
        18.5004         21.0004
                   2383101.475 5   1855535.122 5  24135217.599    24135221.196
         9.000          10.500
  22628049.3024    9709178.61046   7569228.68046                  22628053.0174
        19.2504         19.5004
  22192830.3494   -8129854.96347  -6209833.97147                  22192833.9234
        21.7504         27.7504
 95  4 13 17  6  0.0010000  0  7G 2G18G19G27G28G29G31
  23749160.6924   -4414252.72946  -3351936.82145                  23749165.1814
        14.0004         10.2504
  21026912.2244    1910481.64047   1542675.92247                  21026915.6104
        26.2504         37.2504
  21187389.2004   -2752840.23347  -2086005.95348                  21187392.1774
        26.7504         39.7504
  22581348.9354   -9651217.65146  -7413807.59746                  22581352.6494
        19.2504         21.7504
                   2420838.506 5   1884940.592 5  24142398.700    24142402.560
         8.750          10.500
  22638378.8884    9763461.63346   7611527.11646                  22638382.5794
        19.0004         19.5004
  22193566.8494   -8125985.92047  -6206819.13247                  22193570.4704
        21.5004         27.2504
 95  4 13 17  6 15.0010000  0  7G 2G18G19G27G28G29G31
  23744593.0444   -4438255.05846  -3370639.91345                  23744597.6264
        14.0004         11.0004
  21033562.2864    1945426.48647   1569905.66247                  21033565.7314
        26.2504         38.0004
  21188835.3884   -2745241.17047  -2080084.60747                  21188838.3994
        26.2504         39.2504
  22578081.6304   -9668385.76046  -7427185.34046                  22578085.1574
        19.0004         21.7504
                   2458732.865 5   1914468.654 5  24149609.856    24149613.353
         9.000          10.500
  22648731.2864    9817863.55446   7653918.20346                  22648735.2824
        19.2504         20.2504
  22194337.9114   -8121932.84747  -6203660.88747                  22194341.5564
        21.7504         27.0004
 95  4 13 17  6 30.0010000  0  7G 2G18G19G27G28G29G31
  23740044.6694   -4462160.33446  -3389267.39445                  23740049.4624
        14.5004         11.0004
  21040242.5444    1980532.71247   1597261.15847                  21040245.8494
        26.0004         38.5004
  21190296.7084   -2737560.84047  -2074099.92947                  21190299.8724
        26.2504         38.5004
  22574827.1534   -9685490.24346  -7440513.49746                  22574830.8104
        19.0004         21.2504
                   2496788.611 5   1944122.467 5  24156851.278    24156855.251
         8.500          10.500
  22659106.3804    9872385.33146   7696402.68246                  22659110.2124
        19.0004         20.2504
  22195144.6924   -8117693.97847  -6200357.87047                  22195148.1384
        21.7504         27.7504
 95  4 13 17  6 45.0010000  0  7G 2G18G19G27G28G29G31
  23735513.4354   -4485972.04846  -3407821.96045                  23735518.0994
        14.7504         11.2504
  21046953.0134    2015796.03447   1624739.06547                  21046956.4704
        26.2504         38.5004
  21191773.6774   -2729801.07047  -2068053.35247                  21191776.5714
        26.5004         38.7504
  22571582.6534   -9702538.81946  -7453798.09646                  22571586.4274
        19.0004         21.7504
                   2535003.258 5   1973900.098 5  24164123.685    24164126.974
         8.750          10.500
  22669504.4744    9927025.73346   7738979.59646                  22669508.3994
        19.2504         19.7504
  22195986.6304   -8113270.64147  -6196911.11447                  22195990.1464
        22.0004         27.0004
 95  4 13 17  7  0.0010000  0  7G 2G18G19G27G28G29G31
  23730999.6304   -4509691.73846  -3426304.81845                  23731004.2004
        14.7504         11.7504
  21053692.8644    2051213.92947   1652337.42047                  21053696.1694
        26.2504         39.0004
  21193265.5054   -2721960.62247  -2061943.91547                  21193268.2594
        26.7504         39.0004
  22568348.3334   -9719534.33946  -7467041.35446                  22568352.0134
        19.2504         23.0004
                   2573376.651 5   2003801.425 5  24171425.919    24171429.368
         9.000          10.500
  22679924.9744    9981785.96746   7781649.88946                  22679928.7594
        19.2504         20.5004
  22196863.5524   -8108660.74047  -6193318.97647                  22196866.9744
        22.0004         27.2504
 95  4 13 17  7 15.0010000  0  7G 2G18G19G27G28G29G31
  23726502.9664   -4533319.97946  -3444716.41545                  23726507.2784
        14.7504         11.7504
  21060462.2944    2086787.58547   1680057.14147                  21060465.6104
        26.2504         38.0004
  21194772.1924   -2714042.09947  -2055773.63447                  21194775.2394
        26.0004         38.0004
  22565125.0134   -9736474.38146  -7480241.38046                  22565128.7744
        19.5004         22.0004
                   2611909.194 5   2033826.774 5  24178758.325    24178762.091
         9.000          10.500
  22690367.9354   10036664.18946   7824412.12446                  22690371.6034
        19.2504         19.7504
  22197775.5914   -8103867.46747  -6189583.95647                  22197779.3534
        21.7504         27.0004
 95  4 13 17  7 30.0010000  0  7G 2G18G19G27G28G29G31
  23722023.8964   -4556860.18046  -3463059.42746                  23722027.8924
        14.7504         12.2504
  21067260.4814    2122511.98747   1707894.33947                  21067263.7164
        26.5004         38.7504
  21196292.8024   -2706050.73447  -2049546.59647                  21196295.8964
        26.0004         39.0004
  22561910.8414   -9753364.97146  -7493402.87246                  22561914.6614
        19.5004         22.2504
                   2650595.741 5   2063972.121 5  24186120.271    24186123.931
         9.000          10.250
  22700831.9974   10091653.36746   7867260.81146                  22700835.8414
        19.2504         19.5004
  22198721.1924   -8098899.38747  -6185712.72347                  22198724.8024
        22.0004         26.5004
 95  4 13 17  7 45.0010000  0  7G 2G18G19G27G28G29G31
  23717561.9114   -4580307.53946  -3481330.07846                  23717566.0014
        14.7504         12.0004
  21074088.5134    2158393.46747   1735853.92347                  21074091.7594
        26.5004         38.0004
  21197828.2554   -2697982.08647  -2043259.34047                  21197831.3844
        26.0004         37.7504
  22558707.4424   -9770199.05546  -7506520.33346                  22558711.2634
        19.5004         21.2504
                   2689441.763 5   2094241.732 5  24193512.325    24193515.833
         8.750          10.500
  22711318.2244   10146759.58946   7910200.70746                  22711322.0674
        19.0004         19.2504
  22199700.6304   -8093752.08347  -6181701.82947                  22199704.2864
        21.7504         27.5004
 95  4 13 17  8  0.0010000  0  7G 2G18G19G27G28G29G31
  23713117.5524   -4603661.75346  -3499528.15546                  23713122.0524
        15.0004         12.2504
  21080946.2474    2194431.78647   1763935.72247                  21080949.5054
        26.2504         38.0004
  21199377.8964   -2689838.26547  -2036913.50547                  21199381.0014
        25.5004         36.5004
  22555515.0834   -9786976.01646  -7519593.28646                  22555518.8684
        19.7504         21.2504
                   2728446.505 5   2124635.030 5  24200934.958    24200938.704
         8.750          10.500
  22721827.3884   10201984.15546   7953232.81546                  22721831.1144
        19.2504         18.5004
  22200714.0754   -8088426.06447  -6177551.68047                  22200717.5914
        21.7504         27.5004
 95  4 13 17  8 15.0010000  0  7G 2G18G19G27G28G29G31
  23708691.3494   -4626923.76046  -3517654.37345                  23708695.8024
        15.2504         11.5004
  21087834.5994    2230629.79547   1792141.95747                  21087837.9034
        26.5004         39.2504
  21200942.0674   -2681618.64247  -2030508.59947                  21200945.2674
        25.2504         36.5004
  22552332.8564   -9803697.55746  -7532623.05246                  22552336.5714
        19.7504         22.5004
                   2767610.667 5   2155152.535 5  24208387.614    24208390.896
         8.750          10.500
  22732359.2554   10257327.76246   7996357.68546                  22732362.7714
        19.2504         19.7504
  22201761.3254   -8082923.25647  -6173263.77447                  22201764.9114
        22.0004         27.7504
 95  4 13 17  8 30.0010000  0  7G 2G18G19G27G28G29G31
  23704282.3024   -4650092.04746  -3535707.56646                  23704286.8134
        15.2504         12.5004
  21094753.7084    2266989.86147   1820474.46647                  21094757.0484
        26.2504         38.7504
  21202521.7004   -2673317.52147  -2024040.19847                  21202524.9234
        25.0004         36.2504
  22549162.0444   -9820360.85847  -7545607.43446                  22549165.6064
        20.2504         23.2504
                   2806937.067 5   2185796.476 5  24215870.888    24215874.794
         8.500          10.500
  22742914.2474   10312795.71146   8039579.44746                  22742917.7634
        19.0004         19.0004
  22202842.5524   -8077240.65847  -6168835.77147                  22202846.0564
        22.0004         28.2504
 95  4 13 17  8 45.0010000  0  7G 2G18G19G27G28G29G31
  23699890.0444   -4673173.38146  -3553693.01145                  23699894.3924
        14.7504         11.7504
  21101702.1774    2303503.54147   1848926.68047                  21101705.4234
        26.7504         39.0004
  21204115.9274   -2664939.96947  -2017512.23347                  21204119.1964
        25.2504         35.5004
  22546000.4894   -9836975.20147  -7558553.66846                  22546003.9814
        20.0004         22.7504
                   2846417.673 5   2216560.571 5  24223383.888    24223387.548
         8.500          10.500
  22753492.0054   10368382.13846   8082893.52346                  22753495.8254
        18.7504         18.0004
  22203957.2244   -8071383.81747  -6164271.99447                  22203961.0324
        22.0004         27.7504
 95  4 13 17  9  0.0010000  0  7G 2G18G19G27G28G29G31
  23695515.0524   -4696163.73046  -3571607.55446                  23695519.6574
        14.7504         13.0004
  21108680.5994    2340174.90647   1877501.76047                  21108683.7984
        27.0004         38.7504
  21205725.6384   -2656481.24047  -2010921.02047                  21205728.8724
        25.5004         36.5004
  22542848.3254   -9853538.74346  -7571460.31946                  22542852.0404
        19.7504         23.5004
                   2886054.928 5   2247446.728 5  24230926.388    24230930.513
         8.500          10.500
  22764093.1384   10424091.76546   8126303.60546                  22764096.9584
        18.5004         17.5004
  22205104.8254   -8065351.10047  -6159571.17147                  22205108.5404
        21.5004         27.0004
 95  4 13 17  9 15.0010000  0  7G 2G18G19G27G28G29G31
  23691157.4664   -4719063.52046  -3589451.52946                  23691162.3064
        15.0004         12.0004
  21115689.0444    2377006.47847   1906201.67648                  21115692.0674
        26.7504         39.7504
  21207349.6534   -2647945.62447  -2004269.88847                  21207352.8644
        25.0004         36.5004
  22539706.3724   -9870047.49046  -7584324.26246                  22539710.2864
        19.5004         23.7504
                   2925847.494 5   2278453.909 5  24238498.872    24238502.282
         8.750          10.250
  22774716.7004   10479920.49646   8169806.49146                  22774720.5214
        18.2504         17.2504
  22206285.9424   -8059146.44447  -6154736.36747                  22206289.7744
        22.0004         28.2504
 95  4 13 17  9 30.0010000  0  7G 2G18G19G27G28G29G31
  23686817.4894   -4741870.03546  -3607222.82845                  23686822.2004
        14.5004         11.5004
  21122729.2864    2414003.08747   1935030.19647                  21122732.4384
        26.7504         38.7504
  21208988.9274   -2639332.33647  -1997558.23547                  21208992.2084
        25.2504         36.0004
  22536576.5524   -9886497.81347  -7597142.69146                  22536580.1264
        20.2504         23.5004
                   2965797.050 5   2309583.423 5  24246101.044    24246105.181
         9.000          10.750
  22785363.2314   10535869.06946   8213402.76446                  22785366.7004
        18.2504         17.0004
  22207499.7084   -8052767.51147  -6149765.76647                  22207503.3884
        21.7504         27.7504
 95  4 13 17  9 45.0020000  0  7G 2G18G19G27G28G29G31
  23682494.6744   -4764586.76646  -3624924.15646                  23682499.6664
        14.5004         12.0004
  21129801.9004    2451169.86647   1963991.31748                  21129804.9944
        26.7504         39.5004
  21210643.6274   -2630636.37547  -1990782.16147                  21210646.7214
        25.0004         35.7504
  22533457.5334   -9902888.99347  -7609915.02746                  22533461.1314
        20.2504         22.5004
                   3005907.770 5   2340838.516 5  24253734.385    24253737.260
         9.250          10.250
  22796034.1114   10591943.03746   8257096.73946                  22796037.7214
        18.5004         18.0004
  22208747.8544   -8046207.73247  -6144654.24447                  22208751.2404
        21.7504         27.2504
 95  4 13 17 10  0.0020000  0  7G 2G18G19G27G28G29G31
  23678187.7834   -4787215.32846  -3642556.78745                  23678192.4244
        14.7504         11.5004
  21136905.0574    2488495.88947   1993076.51947                  21136908.2324
        26.5004         37.5004
  21212313.2054   -2621862.57547  -1983945.42747                  21212316.2994
        25.0004         35.7504
  22530349.9714   -9919220.23347  -7622640.66646                  22530353.3694
        20.5004         23.2504
                   3046171.015 5   2372212.457 5  24261396.182    24261399.752
         9.250          10.500
  22806726.7214   10648131.50146   8300879.94146                  22806730.5294
        19.0004         18.5004
  22210030.3694   -8039468.97047  -6139403.25747                  22210033.8964
        22.0004         27.0004
 95  4 13 17 10 15.0020000  0  7G 2G18G19G27G28G29G31
  23673899.3384   -4809756.06546  -3660120.98345                  23673904.1314
        14.7504         11.5004
  21144038.7364    2525982.71247   2022287.02547                  21144041.8544
        26.7504         38.0004
  21213998.2444   -2613007.47347  -1977045.35247                  21214001.4084
        24.7504         34.5004
  22527253.0414   -9935493.65847  -7635321.26146                  22527256.5334
        20.2504         23.0004
                   3086588.287 5   2403706.425 5  24269087.205    24269090.311
         9.250          10.250
  22817440.6664   10704434.89946   8344752.70046                  22817444.2994
        18.7504         18.5004
  22211347.1194   -8032549.15047  -6134011.18247                  22211350.5644
        22.0004         27.5004
 95  4 13 17 10 30.0020000  0  7G 2G18G19G27G28G29G31
  23669626.6664   -4832207.44046  -3677615.54345                  23669631.6464
        14.7504         11.5004
  21151202.8854    2563631.90247   2051624.04947                  21151205.9794
        26.7504         39.0004
  21215699.6194   -2604066.69547  -1970078.50747                  21215702.8074
        24.7504         35.7504
  22524168.1824   -9951704.85447  -7647953.35046                  22524171.6154
        20.2504         23.5004
                   3127161.464 5   2435321.883 5  24276808.244    24276811.303
         9.250          10.250
  22828177.0334   10760854.73746   8388716.18646                  22828180.6194
        18.7504         19.2504
  22212699.5254   -8025444.19547  -6128474.84947                  22212702.9244
        22.2504         28.0004
 95  4 13 17 10 45.0020000  0  7G 2G18G19G27G28G29G31
  23665372.2054   -4854564.55746  -3695036.66146                  23665377.0924
        14.5004         13.5004
  21158398.1274    2601443.01547   2081087.24547                  21158401.2794
        26.7504         38.0004
  21217417.4164   -2595038.33247  -1963043.42047                  21217420.7564
        24.2504         34.5004
  22521095.6504   -9967850.51947  -7660534.38346                  22521099.2254
        20.7504         23.2504
                   3167891.333 5   2467059.423 5  24284558.479    24284561.857
         9.250          10.000
  22838935.3854   10817390.89246   8432770.31246                  22838939.1704
        18.7504         17.7504
  22214087.1504   -8018149.31847  -6122790.52347                  22214090.8544
        22.0004         28.0004
 95  4 13 17 11  0.0020000  0  7G 2G18G19G27G28G29G31
  23661136.7754   -4876823.05746  -3712380.92446                  23661141.6394
        14.5004         12.5004
  21165624.7994    2639419.44447   2110679.26247                  21165627.8574
        26.5004         38.2504
  21219152.2684   -2585922.37147  -1955940.07547                  21219155.5844
        24.5004         34.2504
  22518035.8934   -9983930.55547  -7673064.27546                  22518039.3264
        20.5004         24.0004
                   3208778.716 5   2498919.710 5  24292339.307    24292342.893
         9.250          10.000
  22849715.5804   10874041.76846   8476913.83246                  22849719.2954
        18.5004         19.0004
  22215511.7054   -8010664.99347  -6116958.57947                  22215515.1864
        22.2504         28.7504
 95  4 13 17 11 15.0020000  0  7G 2G18G19G27G28G29G31
  23656919.4394   -4898983.17646  -3729648.52846                  23656924.6784
        14.7504         12.5004
  21172882.4244    2677558.70347   2140398.15747                  21172885.4944
        26.5004         36.7504
  21220902.7754   -2576723.68547  -1948772.26747                  21220906.1864
        24.2504         34.0004
  22514988.9944   -9999941.86047  -7685540.60946                  22514992.6394
        20.5004         25.0004
                   3249821.642 5   2530901.202 5  24300149.627    24300152.740
         9.500           9.750
  22860516.7134   10930802.96646   8521143.32046                  22860520.6394
        18.5004         18.2504
  22216971.3854   -8002992.72447  -6110980.18247                  22216974.8894
        22.5004         27.2504
 95  4 13 17 11 30.0020000  0  7G 2G18G19G27G28G29G31
  23652721.8464   -4921042.08346  -3746837.27746                  23652726.7564
        15.2504         13.0004
  21180171.0964    2715861.40347   2170244.40847                  21180174.2014
        26.2504         37.0004
  21222669.1194   -2567441.23147  -1941539.18547                  21222672.4124
        24.2504         34.0004
  22511955.6664  -10015880.93947  -7697960.66346                  22511959.4284
        20.2504         23.5004
                   3291021.969 5   2563005.340 5  24307989.869    24307993.006
         9.500          10.000
  22871339.7444   10987675.46846   8565459.53446                  22871343.6824
        18.7504         18.2504
  22218468.6434   -7995126.20247  -6104850.41747                  22218472.0294
        22.7504         29.0004
 95  4 13 17 11 45.0020000  0  7G 2G18G19G27G28G29G31
  23648543.3074   -4942999.15746  -3763946.66346                  23648548.4164
        14.7504         12.0004
  21187489.8774    2754321.85047   2200213.57947                  21187493.0414
        25.7504         37.5004
  21224451.9554   -2558072.35947  -1934238.76747                  21224455.5184
        24.2504         33.7504
  22508935.8854  -10031749.96847  -7710326.13446                  22508939.6584
        20.0004         23.0004
                   3332378.821 5   2595231.446 5  24315859.744    24315862.842
         9.500          10.000
  22882183.7054   11044660.18346   8609863.18546                  22882187.3964
        18.7504         18.2504
  22220002.8224   -7987064.37247  -6098568.46847                  22220006.2794
        23.0004         29.5004
 95  4 13 17 12  0.0020000  0  7G 2G18G19G27G28G29G31
  23644385.2994   -4964849.09846  -3780972.58145                  23644390.5844
        14.7504         11.5004
  21194838.4794    2792937.62047   2230303.77947                  21194841.7134
        26.0004         37.2504
  21226251.5254   -2548614.56847  -1926869.05947                  21226254.9944
        24.2504         32.7504
  22505929.2914  -10047550.35947  -7722638.12246                  22505932.8654
        20.5004         23.5004
                   3373893.796 5   2627580.759 5  24323759.416    24323763.494
         9.250          10.250
  22893049.5104   11101760.17046   8654356.66046                  22893053.2834
        18.0004         18.0004
  22221574.2294   -7978806.99147  -6092134.14247                  22221577.7684
        23.0004         29.0004
